GFSCGP_prec_radar_000.txt.gz
Reflectivity
-20 -20 -20 -20 -20 -20 -20 -20 -20 -20 -20 -20 -20 -20 -20 -20 -20 -20 -20 -20 -20 -20 26 6 -10 -20 -20 -20 -20 -20 27 24 -20 -20 -20 -20 -20 -20 -20 -17 -20 -20 -20 -20
-20 -20 -20 -20 -20 -20 -20 -20 -20 -20 -20 -20 -20 -20 -20 -20 -20 -20 -20 -20 -20 -20 -20 -20 -20 -20 -20 -8 -20 -20 -20 -20 -20 -20 -20 -20 -20 -20 -20 -20 -20 -20 -20 -20
-20 -20 -20 -20 -20 -20 -20 -20 -20 -20 -20 -20 -20 -20 -20 -20 -20 -20 -20 -20 -20 -20 -20 -20 -20 -20 -16 -20 -20 -20 -20 -20 -20 -20 -20 -20 -20 -20 -20 -20 -20 -20 -20 -20
-20 -20 -20 -20 -20 -20 -20 -20 -20 -20 -20 -20 -20 -20 -20 -20 -20 -20 -20 -20 -20 -20 -20 -20 -20 -20 -20 -20 -20 -20 -20 -20 -20 -20 -20 -20 -20 -20 -20 -20 -20 -20 -20 -20
-20 -20 -20 -20 -20 -20 -20 -20 -20 -20 -20 -20 -20 -20 -20 -20 -20 -20 -20 -20 -20 -20 -20 -20 -11 -20 -20 -20 -20 -20 -20 -20 -20 -20 -20 -20 -20 -20 -20 -20 -20 -20 -20 -20
-20 -20 -20 -20 -20 -20 -20 -20 -20 -20 -20 -20 -20 -20 -20 -20 -20 -20 -20 -20 -20 -20 -20 -20 -20 -16 6 -19 -20 -20 -20 -20 -20 -20 -20 -20 -20 -20 -20 -20 -20 -20 -20 -20
-20 -20 -20 -20 -20 -20 -20 -20 -20 -20 -20 -20 -20 -20 -20 -20 -20 -20 -20 -20 -20 -20 -20 -20 -13 -20 -20 -20 -20 -20 -20 -20 -20 -20 -20 -20 -20 -20 -20 -20 -20 -20 -20 -20
-20 -20 -20 -20 -20 -20 -20 -20 -20 -20 -20 -20 -20 -20 -20 -20 -20 -20 -20 -20 -20 -20 -20 -20 -18 -20 -20 -20 -20 -20 -20 -20 -20 -20 -20 -20 -20 -20 -20 -20 -20 -20 -20 -20
-20 -20 -20 -20 -20 -20 -20 -20 -20 -20 -20 -20 -20 -20 -20 -20 -20 -20 -20 -20 -20 -20 -20 -20 -20 -20 -20 -20 -20 -20 -20 -20 -20 -20 -20 -20 -20 -20 -20 -20 -20 -20 -20 -20
-20 -20 -20 -20 -20 -20 -20 -20 -20 -20 -20 -20 -20 -20 -20 -20 -20 -20 -20 -20 -20 -20 -20 -20 -20 -20 -20 -20 -20 -20 -20 -20 -20 -20 -20 -20 -20 -20 -20 -20 -20 -20 -20 -20
-20 -20 -20 -20 -20 -20 -20 -20 -20 -20 -20 -20 -20 -20 -20 -20 -20 -20 -20 -20 -20 -20 -20 -20 -20 -20 -20 -20 -19 -2 4 -20 -20 -20 -20 -20 -20 -20 -20 -20 -20 -20 -20 -20
-20 -20 -20 -20 -20 -20 -20 -20 -20 -20 -20 -20 -20 -20 -20 -20 -20 -20 -20 -20 -20 -20 -20 -20 -20 -20 -17 17 -8 -20 -20 3 -16 -20 -20 -20 -20 -20 -20 -20 -20 -20 -20 -20
-20 -20 -20 -20 -20 -20 -20 -20 -20 -20 -20 -20 -20 -20 -20 -20 -20 -20 -20 -20 -20 -20 -20 -20 -20 -18 -8 -20 -20 -16 8 -20 -20 -20 -20 -20 -20 -20 -20 -20 -20 -20 -20 -20
-20 -20 -20 -20 -20 -20 -20 -20 -20 -20 -20 -20 -20 -20 -20 -20 -20 -20 -20 -20 -20 -20 -20 -20 -20 -20 -20 -20 -6 3 -20 -20 -20 -20 -20 -20 -20 -20 -20 -20 -20 -20 -20 -20
-20 -20 -20 -20 -20 -20 -20 -20 -20 -20 -20 -20 -20 -20 -20 -20 -20 -20 -20 -20 -20 -20 -20 -20 -20 -20 -20 15 -1 -20 -20 -20 -20 -20 -20 -20 -20 -20 -20 -20 -20 -20 -20 -20
-20 -20 -20 -20 -20 -20 -20 -20 -20 -20 -20 -20 -20 -20 -20 -20 -20 -20 -20 -20 -20 -20 -20 -20 -20 -20 3 -20 -20 -20 -20 -20 -20 -20 -20 -20 -20 -20 -20 -20 -20 -20 -20 -20
-20 -20 -20 -20 -20 -20 -20 -20 -20 -20 -20 -20 -20 -20 -20 -20 -20 -20 -20 -20 -20 -20 -20 -20 -20 -20 -20 -20 -20 -20 -20 -20 -20 -20 -20 -20 -20 -20 -20 -20 -20 -20 -20 -20
-20 -20 -20 -20 -20 -20 -20 -20 -20 -20 -20 -20 -20 -20 -20 -20 -20 -20 -20 -20 -20 -20 -20 -20 -20 -20 -20 -20 -20 -20 -20 -20 -20 -20 -20 -20 -20 -20 -20 -20 -20 -20 -20 -20
-20 -20 -20 -20 -20 -20 -20 -20 -20 -20 -20 -20 -20 -20 -20 -20 -20 -20 -20 -20 -20 -20 -20 -20 -20 -20 -20 -20 -20 -20 -20 -20 -20 -20 -20 -20 -20 -20 -20 -20 -20 -20 -20 -20
-20 -20 -20 -20 -20 -20 -20 -20 -20 -20 -20 -20 -20 -20 -20 -20 -20 -20 -20 -20 -20 -20 -20 -20 -20 -20 -20 -20 -20 -20 -20 -20 -20 -20 -20 -20 -20 -20 -20 -20 -20 -20 -20 -20
-20 -20 -20 -20 -20 -20 -20 -20 -20 -20 -20 -20 -20 -20 -20 -20 -20 -20 -20 -20 -20 -20 -20 -20 -20 -20 -20 -20 -20 -20 -20 -20 -20 -20 -20 -20 -20 -20 -20 -20 -20 -20 -20 -20
-20 -20 -20 -20 -20 -20 -20 -20 -20 -20 -20 -20 -20 -20 -20 -20 -20 -20 -20 -20 -20 -18 -20 -20 -20 -20 -20 -20 -20 -20 -20 -20 -20 -20 -20 -20 -20 -20 -20 -20 -20 -20 -20 -20
-20 -20 -20 -20 -20 -20 -20 -20 -20 -20 -20 -20 -20 -20 -20 -20 -20 -20 -20 -20 -15 -20 -20 -17 -20 -20 -20 -20 -20 -20 -20 -20 -20 -20 -20 -20 -20 -20 -20 -20 -20 -20 -20 -20
-20 -20 -20 -20 -20 -20 -20 -20 -20 -20 -20 -20 -20 -20 -20 -20 -20 -15 -20 -20 -14 6 10 -14 -20 -20 -20 -20 -20 -20 -20 -20 -20 -20 -20 -20 -20 -20 -20 -20 -20 -20 -20 -20
-20 -20 -20 -20 -20 -20 -20 -20 -20 -20 -20 -20 -20 -20 -20 -20 -12 -20 -8 -20 -14 20 -17 -20 -20 -20 -20 -20 -20 -20 -20 -20 -20 -20 -20 -20 -20 -20 -20 -20 -20 -20 -20 -20
-20 -20 -20 -20 -20 -20 -20 -20 -20 -20 -20 -20 -20 -20 -20 -13 -15 18 14 -4 23 -17 -15 -20 -20 -20 -20 -20 -20 -20 -20 -20 -20 -20 -20 -14 -19 -20 -12 -20 -20 -20 -20 -20

GFSCGP_prec_radar_003.txt.gz
Reflectivity
-20 -20 -20 -20 -20 -20 -20 -20 -20 -20 -20 -20 -20 -20 -20 -20 -20 -20 -20 -20 -20 -20 -14 -20 -20 -20 -20 -20 -20 22 -20 -20 -20 -20 -20 -20 -20 -20 -20 -20 -20 -20 -20 -20
-20 -20 -20 -20 -20 -20 -20 -20 -20 -20 -20 -20 -20 -20 -20 -20 -20 -20 -20 -20 -20 -20 -20 -20 -20 -20 -20 -20 -20 -20 -20 -20 -20 -20 -20 -20 -20 -20 -20 -20 -20 -20 -20 -20
-20 -20 -20 -20 -20 -20 -20 -20 -20 -20 -20 -20 -20 -20 -20 -20 -20 -20 -20 -20 -20 -20 -20 -20 -20 -20 -20 -20 -20 -20 -20 -20 -20 -20 -20 -20 -20 -20 -20 -20 -20 -20 -20 -20
-20 -20 -20 -20 -20 -20 -20 -20 -20 -20 -20 -20 -20 -20 -20 -20 -20 -20 -20 -20 -20 -20 -20 -20 -20 -20 -19 -20 -20 -20 -20 -20 -20 -20 -20 -20 -20 -20 -20 -20 -20 -20 -20 -20
-20 -20 -20 -20 -20 -20 -20 -20 -20 -20 -20 -20 -20 -20 -20 -20 -20 -20 -20 -20 -20 -20 -20 -20 -20 -20 -20 -20 -20 -20 -20 -20 -20 -20 -20 -20 -20 -20 -20 -20 -20 -20 -20 -20
-20 -20 -20 -20 -20 -20 -20 -20 -20 -20 -20 -20 -20 -20 -20 -20 -20 -20 -20 -20 -20 -20 -20 -20 -20 -20 -20 -10 -20 -20 -20 -20 -20 -20 -20 -20 -20 -20 -20 -20 -20 -20 -20 -20
-20 -20 -20 -20 -20 -20 -20 -20 -20 -20 -20 -20 -20 -20 -20 -20 -20 -20 -20 -20 -20 -20 -20 -20 -20 -20 -20 -20 -20 -20 -20 -20 -20 -20 -20 -20 -20 -20 -20 -20 -20 -20 -20 -20
-20 -20 -20 -20 -20 -20 -20 -20 -20 -20 -20 -20 -20 -20 -20 -20 -20 -20 -20 -20 -20 -20 -20 -20 -20 -20 -20 -20 -20 -20 -20 -20 -20 -20 -20 -20 -20 -20 -20 -20 -20 -20 -20 -20
-20 -20 -20 -20 -20 -20 -20 -20 -20 -20 -20 -20 -20 -20 -20 -20 -20 -20 -20 -20 -20 -20 -20 -20 -20 -20 -20 -20 -20 -20 -20 -20 -20 -20 -20 -20 -20 -20 -20 -20 -20 -20 -20 -20
-20 -20 -20 -20 -20 -20 -20 -20 -20 -20 -20 -20 -20 -20 -20 -20 -20 -20 -20 -20 -20 -20 -20 -20 -20 -20 -20 -20 -20 -20 -20 -16 -20 -20 -20 -20 -20 -20 -20 -20 -20 -20 -20 -20
-20 -20 -20 -20 -20 -20 -20 -20 -20 -20 -20 -20 -20 -20 -20 -20 -20 -20 -20 -20 -20 -20 -20 -20 -20 -20 -20 -20 -20 -20 1 13 -20 -18 -20 -20 -20 -20 -20 -20 -20 -20 -20 -20
-20 -20 -20 -20 -20 -20 -20 -20 -20 -20 -20 -20 -20 -20 -20 -20 -20 -20 -20 -20 -20 -20 -20 -20 -20 -20 -20 -20 -20 8 -11 -20 0 -19 -20 -20 -20 -20 -20 -20 -20 -20 -20 -20
-20 -20 -20 -20 -20 -20 -20 -20 -20 -20 -20 -20 -20 -20 -20 -20 -20 -20 -20 -20 -20 -20 -20 -20 -20 -20 -20 -20 -15 -20 -20 10 -17 -20 -20 -20 -20 -20 -20 -20 -20 -20 -20 -20
-20 -20 -20 -20 -20 -20 -20 -20 -20 -20 -20 -20 -20 -20 -20 -20 -20 -20 -20 -20 -20 -20 -20 -20 -20 -20 -20 -20 -20 13 -10 -20 -20 -20 -20 -20 -20 -20 -20 -20 -20 -20 -20 -20
-20 -20 -20 -20 -20 -20 -20 -20 -20 -20 -20 -20 -20 -20 -20 -20 -20 -20 -20 -20 -20 -20 -20 -20 -20 -20 -20 -16 -7 -20 -20 -20 -20 -20 -20 -20 -20 -20 -20 -20 -20 -20 -20 -20
-20 -20 -20 -20 -20 -20 -20 -20 -20 -20 -20 -20 -20 -20 -20 -20 -20 -20 -20 -20 -20 -20 -20 -20 -20 -20 -20 -20 -20 -20 -20 -20 -20 -20 -20 -20 -20 -20 -20 -20 -20 -20 -20 -20
-20 -20 -20 -20 -20 -20 -20 -20 -20 -20 -20 -20 -20 -20 -20 -20 -20 -20 -20 -20 -20 -20 -20 -20 -20 -20 -20 -20 -20 -20 -20 -20 -20 -20 -20 -20 -20 -20 -20 -20 -20 -20 -20 -20
-20 -20 -20 -20 -20 -20 -20 -20 -20 -20 -20 -20 -20 -20 -20 -20 -20 -20 -20 -20 -20 -20 -20 -20 -20 -20 -20 -20 -20 -20 -20 -20 -20 -20 -20 -20 -20 -20 -20 -20 -20 -20 -20 -20
-20 -20 -20 -20 -20 -20 -20 -20 -20 -20 -20 -20 -20 -20 -20 -20 -20 -20 -20 -20 -20 -20 -20 -20 -20 -20 -20 -20 -20 -20 -20 -20 -20 -20 -20 -20 -20 -20 -20 -20 -20 -20 -20 -20
-20 -20 -20 -20 -20 -20 -20 -20 -20 -20 -20 -20 -20 -20 -20 -20 -20 -20 -20 -20 -20 -20 -20 -20 -19 -20 -20 -20 -20 -20 -20 -20 -20 -20 -20 -20 -20 -20 -20 -20 -20 -20 -20 -20
-20 -20 -20 -20 -20 -20 -20 -20 -20 -20 -20 -20 -20 -20 -20 -20 -20 -20 -20 -20 -20 -20 -20 -20 -4 18 -20 -20 -20 -20 -20 -20 -20 -20 -20 -20 -20 -20 -20 -20 -20 -20 -20 -20
-20 -20 -20 -20 -20 -20 -20 -20 -20 -20 -20 -20 -20 -20 -20 -20 -20 -20 -20 -20 -20 -20 -20 -20 -18 -20 -20 -20 -20 -20 -20 -20 -20 -20 -20 -20 -20 -20 -20 -20 -20 -20 -20 -20
-20 -20 -20 -20 -20 -20 -20 -20 -20 -20 -20 -20 -20 -20 -20 -20 -20 -20 -20 -20 -20 -20 -20 -19 -20 -20 -20 -20 -20 -20 -20 -20 -20 -20 -20 -20 -20 -20 -20 -20 -20 -20 -20 -20
-20 -20 -20 -20 -20 -20 -20 -20 -20 -20 -20 -20 -20 -20 -20 -20 -20 -20 -20 -20 -20 -20 -19 -18 15 -17 5 -20 -20 -20 -20 -20 -20 -20 -20 -20 -20 -20 -20 -20 -20 -20 -20 -20
-20 -20 -20 -20 -20 -20 -20 -20 -20 -20 -20 -20 -20 -20 -20 -20 -20 -20 -20 -20 -20 -20 22 21 9 9 -7 -20 -20 -20 -20 -20 -20 -20 -20 -20 -20 -20 -20 -20 -20 -20 -20 -20
-20 -20 -20 -20 -20 -20 -20 -20 -20 -20 -20 -20 -20 -20 -20 -20 -20 -20 -20 -15 -20 20 12 12 3 3 -20 -17 -20 -20 -20 -20 -20 -20 -20 -20 -20 -20 -20 -20 -20 -20 -20 -20

GFSCGP_prec_radar_006.txt.gz
Reflectivity
-20 -18 -20 -3 -18 -20 -20 -20 -20 -20 -20 -20 -20 -20 -20 -20 -20 -20 -20 -20 -20 -20 -20 -20 -20 -20 -20 -20 -20 -20 -20 -20 -20 -20 -20 -20 -20 -20 -20 -20 -20 -20 -20 -20
-19 -15 -20 -20 -20 -20 -20 -20 -20 -20 -20 -20 -20 -20 -20 -20 -20 -20 -20 -20 -20 -20 -20 -20 -20 -20 -20 -20 -20 -20 -20 -20 -20 -20 -20 -20 -20 -20 -20 -20 -20 -20 -20 -20
9 -20 -20 -20 -20 -20 -20 -20 -19 -20 -20 -20 -20 -20 -20 -20 -20 -20 -20 -20 -20 -20 -20 -20 -20 -20 -20 -20 -20 -20 -20 -20 -20 -20 -20 -20 -20 -20 -20 -20 -20 -20 -20 -20
-20 -20 -20 -20 -20 -20 -20 -20 -20 -20 -20 -20 -20 -20 -20 -20 -20 -20 -20 -20 -20 -20 -20 -20 -20 -20 -15 -18 -20 -20 -20 -20 -20 -20 -20 -20 -20 -20 -20 -20 -20 -20 -20 -20
-20 -20 -20 -20 -20 -20 -20 -20 -20 -20 -20 -20 -20 -20 -20 -20 -20 -20 -20 -20 -20 -20 -20 -20 -20 -20 -20 -20 -20 -20 -20 -20 -20 -20 -20 -20 -20 -20 -20 -20 -20 -20 -20 -20
-20 -20 -20 -20 -20 -20 -20 -20 -20 -20 -20 -20 -20 -20 -20 -20 -20 -20 -20 -20 -20 -20 -20 -20 -20 -20 -20 -20 -20 -20 -20 -20 -20 -20 -20 -20 -20 -20 -20 -20 -20 -20 -20 -20
-20 -20 -20 -20 -20 -20 -20 -20 -20 -20 -20 -20 -20 -20 -20 -20 -20 -20 -20 -20 -20 -20 -20 -20 -20 -20 -20 -20 -20 -20 -20 -20 -20 -20 -20 -20 -20 -20 -20 -20 -20 -20 -20 -20
-20 -20 -20 -20 -20 -20 -20 -20 -20 -20 -20 -20 -20 -20 -20 -20 -20 -20 -20 -20 -20 -20 -20 -20 -20 -20 -20 -20 -20 -20 -20 -20 -20 -20 -20 -9 -20 -20 -20 -20 -20 -20 -20 -20
-20 -20 -20 -20 -20 -20 -20 -20 -20 -20 -20 -20 -20 -20 -20 -20 -20 -20 -20 -20 -20 -20 -20 -20 -20 -20 -20 -20 -20 -20 -20 -20 -20 -20 9 -9 -20 -20 -20 -20 -20 -20 -20 -20
-20 -20 -20 -20 -20 -20 -20 -20 -20 -20 -20 -20 -20 -20 -20 -20 -20 -20 -20 -20 -20 -20 -20 -20 -20 -20 -20 -20 -20 -20 -20 -20 -20 -5 16 -20 -20 -20 -20 -20 -20 -20 -20 -20
-20 -20 -20 -20 -20 -20 -20 -20 -20 -20 -20 -20 -20 -20 -20 -20 -20 -20 -20 -20 -20 -20 -20 -20 -20 -20 -20 -20 -20 -20 -20 -20 -20 -11 -15 -20 -20 -20 -20 -20 -20 -20 -20 -20
-20 -20 -20 -20 -20 -20 -20 -20 -20 -20 -20 -20 -20 -20 -20 -20 -20 -20 -20 -20 -20 -20 -20 -20 -20 -20 -20 -20 -20 -20 -20 -20 -13 -4 -19 -20 -20 -20 -20 -20 -20 -20 -20 -20
-20 -20 -20 -20 -20 -20 -20 -20 -20 -20 -20 -20 -8 -20 -20 -20 -20 -20 -20 -20 -20 -20 -20 -20 -20 -20 -20 -20 -20 -20 -20 -19 7 -20 -20 -20 -20 -20 -20 -20 -20 -20 -20 -20
-20 -20 -20 -20 -20 -20 -20 -20 -20 -20 -20 -20 -20 -20 -20 -20 -20 -20 -20 -20 -20 -20 -20 -20 -20 -20 -20 -20 -20 -20 -20 -4 -20 -20 -20 -20 -20 -20 -20 -20 -20 -20 -20 -20
-20 -20 -20 -20 -20 -20 -20 -20 -20 -20 -20 -20 -20 -20 -20 -20 -20 -20 -20 -20 -20 -20 -20 -20 -20 -20 -20 -20 -20 -20 -12 -20 -20 -20 -20 -20 -20 -20 -20 -20 -20 -20 -20 -20
-20 -20 -20 -20 -20 -20 -20 -20 -20 -20 -20 -20 -20 -20 -20 -20 -20 -20 -20 -20 -20 -20 -20 -20 -20 -20 -20 -20 -20 -19 -20 -20 -20 -20 -20 -20 -20 -20 -20 -20 -20 -20 -20 -20
-20 -20 -20 -20 -20 -20 -20 -20 -20 -20 -20 -20 -20 -20 -20 -20 -20 -20 -20 -20 -20 -20 -20 -20 -20 -20 -20 -20 -20 -20 -20 -20 -20 -20 -20 -20 -20 -20 -20 -20 -20 -20 -20 -20
-20 -20 -20 -20 -20 -20 -20 -20 -20 -20 -20 -20 -20 -20 -20 -20 -20 -20 -20 -20 -20 -20 -20 -20 -20 -20 -20 -20 -20 -20 -20 -20 -20 -20 -20 -20 -20 -20 -20 -20 -20 -20 -20 -20
-20 -20 -20 -13 -20 -20 -20 -20 -20 -20 -20 -20 -20 -20 -20 -20 -20 -20 -20 -20 -20 -20 -20 -20 -20 -20 -20 -20 -20 -20 -16 -20 -20 -20 -20 -20 -20 -20 -20 -20 -20 -20 -12 -20
-20 -20 -20 -20 -17 -20 -20 -20 -20 -20 -20 -20 -20 -20 -20 -20 -20 -20 -20 -20 -20 -20 -20 -20 -20 -20 -20 -20 -12 11 -20 -20 -20 -20 -20 -20 -20 -20 -20 -20 -20 -20 -20 -20
-20 -19 13 -20 2 -20 -20 -20 -20 -20 -20 -20 -20 -20 -20 -20 -20 -20 -20 -20 -20 -20 -20 -20 -20 -20 -20 -16 -9 -20 -20 -20 -20 -20 -20 -20 -20 -20 -20 -20 -20 -20 -20 -20
-20 -20 -20 -20 10 -20 -20 -20 -6 -20 -20 -20 -20 -20 -20 -20 -20 -20 -20 -20 -20 -20 -20 -20 -20 -20 -20 13 17 -13 -20 -20 -20 -20 -20 -20 -20 -20 -20 -20 -20 -20 -20 -20
-20 -20 -20 -20 -20 -20 -20 -20 -20 -20 -20 -20 -20 -20 -20 -20 -20 -20 -20 -20 -20 -20 -20 -20 -20 14 16 7 -3 -20 -7 -16 -20 -20 -20 -20 -20 -20 -20 -20 -20 -20 -20 -20
-20 -20 -20 -20 -20 -20 -20 -20 -20 -20 -20 -20 -20 -20 -20 -20 -20 -20 -20 -20 -20 -20 -20 -19 -19 14 8 26 15 15 4 0 3 -6 -20 -19 -20 -20 -20 -20 -20 -20 -20 -20
-20 -20 -20 -20 -20 -20 -20 -20 -20 -20 -20 -20 -20 -20 -20 -20 -20 -20 -20 -20 -20 -20 -20 -14 31 21 18 7 13 15 13 -9 -16 -20 -14 -19 -20 -20 -20 -14 -20 -20 -20 -20
-20 -20 -20 -20 -20 -20 -20 -20 -20 -20 -20 -20 -20 -20 -20 -20 -20 -20 -20 -20 -20 -20 -9 29 23 15 16 21 17 13 8 6 -8 -20 -7 -8 -20 -20 -20 -20 -16 -17 -20 -20

GFSCGP_prec_radar_009.txt.gz
Reflectivity
-0 -18 -18 5 10 11 -14 -20 -20 -20 -20 -20 -20 -20 -20 -20 -20 -20 -20 -20 -20 -20 -20 -20 -20 -20 -20 -20 -20 -20 -20 -20 -20 -20 -20 -20 -20 -20 -20 -20 -20 -20 -20 -20
-16 4 -1 6 -9 -20 -20 -1 -13 -20 -20 -20 -20 -20 -20 -20 -20 -20 -20 -20 -20 -20 -20 -20 -20 -20 -20 -20 -20 -20 -20 -20 -20 -20 -20 -20 -20 -20 -20 -20 -20 -20 -20 -20
19 10 -11 -20 -20 -20 -20 -20 8 -10 -20 -19 -6 -20 -20 -20 -20 -20 -20 -20 -20 -20 -20 -20 -20 -20 -20 -20 -20 -20 -20 -20 -20 -20 -20 -20 -20 -20 -20 -20 -20 -20 -20 -20
0 -17 -19 -20 6 -8 -18 -18 15 -20 -20 -20 -20 9 17 -20 -20 -20 -20 -20 -20 -20 -20 -20 -20 -20 -20 -20 -20 -20 -20 -20 -20 -20 -20 -20 -20 -20 -20 -20 -20 -20 -20 -20
5 -20 -20 -13 10 -20 17 7 -20 -20 -20 5 11 -20 13 13 -20 -20 -20 -20 -20 -20 -20 -20 -20 -20 -20 -20 -20 -20 -20 -20 -20 -20 -20 -20 -20 -20 -20 -20 -20 -20 -20 -20
25 -20 -20 -20 -20 -20 -20 -20 -20 -20 -20 -14 -20 28 11 8 -19 -20 -20 -20 -20 -20 -20 -20 -20 -20 -20 -20 -20 -20 -20 -20 -20 -20 -20 -20 -20 -20 -20 -20 -20 -20 -20 -20
-20 -20 -20 -20 -20 -20 -20 -20 -12 -9 -4 -20 -7 -20 -20 15 13 -20 -20 -20 -20 -20 -20 -20 -20 -20 -20 -20 -20 -20 -20 -20 -20 -20 -20 -20 -20 -19 -20 -20 -20 -20 -20 -20
-19 -20 -20 -20 -20 -20 -20 -20 -20 4 -18 -17 -4 -20 -20 -20 -20 -20 -20 -20 -20 -20 -20 -20 -20 -20 -20 -20 -20 -20 -20 -20 -20 -20 -20 -20 -20 -8 -13 -20 -20 -20 -20 -20
-3 20 -6 -20 -20 -20 -20 -20 -20 -20 -20 -20 -20 -20 -20 -20 -20 -20 -20 -20 -20 -20 -20 -20 -20 -20 -20 -20 -20 -20 -20 -20 -20 -20 -20 -20 -20 -13 -20 -20 -20 -20 -20 -20
-20 -20 -20 -20 -20 -20 -20 -20 -20 -20 -20 -20 -20 -20 -20 -20 -20 -20 -20 -20 -20 -20 -20 -20 -20 -20 -20 -20 -20 -20 -20 -20 -20 -20 -20 -20 -17 -18 -20 -20 -20 -20 -20 -20
-20 -20 -20 -20 -20 -20 -20 -20 -20 -20 -20 -20 -20 -20 -20 -20 -20 -20 -20 -20 -20 -20 -20 -20 -20 -20 -20 -20 -20 -20 -20 -20 -20 -20 -20 -20 -3 -6 -20 -20 -20 -20 -20 -20
-20 -20 -20 -20 -20 -20 -20 -20 -20 -20 -20 -20 -20 -20 -20 -20 -20 -20 -20 -20 -20 -20 -20 -20 -20 -20 -20 -20 -20 -20 -20 -20 -20 -20 -20 -20 -20 -20 -20 -20 -20 -20 -20 -20
-20 -20 -20 -20 -20 -20 -20 -20 -20 -20 -20 -20 -20 -20 -20 -20 -20 -20 -20 -20 -20 -20 -20 -20 -20 -20 -20 -20 -20 -20 -20 -20 -20 -20 -20 -20 -20 -20 -20 -20 -20 -20 -20 -20
-20 -20 -20 -20 -20 -20 -20 -20 -20 -20 -20 -20 -20 -20 -20 -20 -20 -20 -20 -20 -20 -20 -20 -20 -20 -20 -20 -20 -20 -20 -20 -20 -20 -20 -19 -20 -20 -20 -20 -20 -20 -20 -20 -20
-20 -20 -20 -20 -20 -20 -20 -20 -20 -20 -20 -20 -20 -20 -20 -20 -20 -20 -20 -20 -20 -20 -20 -20 -20 -20 -20 -20 -20 -20 -20 -20 -20 -7 -20 -20 -20 -20 -20 -20 -20 -20 -20 -20
-20 -20 -20 -20 -20 -20 -20 -20 -20 -20 -20 -20 -20 -20 -20 -20 -20 -20 -20 -20 -20 -20 -20 -20 -20 -20 -20 -20 -20 -20 -20 -20 -20 -18 -20 -20 -20 -14 -20 -20 -20 -20 -20 -20
-20 -20 -20 -20 -20 -20 -20 -20 -20 -20 -20 -20 -20 -20 -20 -20 -20 -20 -20 -20 -20 -20 -20 -20 -20 -20 -20 -20 -20 -20 -20 -20 -17 3 -20 -17 -9 0 -20 -20 -20 -20 -20 -20
-20 -20 -20 -20 -20 -11 -20 -20 -20 -20 -20 -20 -20 -20 -20 -20 -20 -20 -20 -20 -20 -20 -20 -20 -20 -20 -20 -20 -20 -20 -20 -20 7 -20 9 19 4 -20 -20 -20 -20 -20 -20 -20
-20 -20 -20 -15 -20 -20 -20 -20 -20 -20 -20 -20 -20 -20 -20 -20 -20 -20 -20 -20 -20 -20 -20 -20 -20 -20 -20 -20 -20 -20 -12 -4 -19 14 20 6 -20 -20 -20 -20 -20 -20 -20 -20
-20 -20 -20 -20 -20 -20 -20 -20 -20 -20 -20 -20 -20 -20 -20 -20 -20 -20 -20 -20 -20 -20 -20 -20 -20 -20 -20 -20 -20 -20 -20 2 -13 7 13 10 6 -6 -20 -20 -20 -20 -20 -20
-20 -20 -3 -20 -10 -20 -20 -20 -20 -20 -20 -20 -20 -20 -20 -20 -20 -20 -20 -20 -20 -20 -20 -20 -20 -20 -20 -20 -20 -16 6 10 16 -14 13 7 0 9 3 -18 -19 -12 -19 -20
-20 -20 -20 -20 -20 -20 -20 -20 -20 -20 -20 -20 -20 -20 -20 -20 -20 -20 -20 -20 -20 -20 -20 -20 -20 -20 -19 -3 -6 -3 9 23 20 11 -2 10 6 2 -8 3 2 -0 -20 -4
-20 -20 -20 -20 -20 -20 -20 -20 -20 -20 -20 -20 -20 -20 -20 -20 -20 -20 -20 -20 -20 -20 -20 -20 -20 -20 -17 -14 -19 28 19 23 21 10 11 5 -4 7 9 4 5 -10 -20 -19
-20 -20 -20 -20 -20 -20 -20 -20 -20 -20 -20 -20 -20 -20 -20 -20 -20 -20 -20 -20 -20 -20 -20 -20 -20 -20 -20 -19 29 31 14 7 14 13 6 7 10 6 5 6 -13 -20 -20 1
-20 -20 -20 -20 -20 -20 -20 -20 -20 -20 -20 -20 -20 -20 -20 -20 -20 -20 -20 -20 -20 -20 -20 -20 -17 -20 -17 10 13 14 17 13 12 11 9 6 4 2 -3 -14 -10 -20 -20 -13
-20 -20 -20 -20 -20 -20 -20 -20 -20 -20 -20 -20 -20 -20 -20 -20 -20 -20 -20 -20 -20 -20 -20 -19 -3 13 17 15 13 12 15 15 11 9 4 -4 -2 0 -13 -20 -20 -8 -20 -20

GFSCGP_prec_radar_012.txt.gz
Reflectivity
-20 -20 -1 1 -0 4 -10 -20 -20 -20 -20 -20 -20 -20 -20 -20 -20 -2 17 5 -20 -20 -20 -20 -20 -20 -20 -20 -20 -20 -20 -20 -20 -20 -20 -20 -20 -20 -20 -20 -20 -20 -20 -20
-20 -10 -11 2 -4 -18 -10 -8 4 -20 -20 -20 -20 -9 -20 -20 -20 -20 -20 -20 -20 -20 -20 -20 -20 -20 -20 -20 -20 -20 -20 -20 -20 -20 -20 -20 -20 -20 -20 -20 -20 -20 -20 -20
8 -7 10 -19 -3 -20 -12 10 -5 -11 -20 -20 -20 -1 -0 -20 -20 -20 -20 -20 -20 -20 -20 -20 -20 -20 -20 -20 -19 -20 11 -20 -20 -20 -20 -20 -20 -20 -20 -20 -20 -20 -20 -20
21 -11 -20 -20 -20 -20 15 -8 -20 -8 9 -19 4 -3 20 12 -17 -20 -20 -20 -20 -20 -20 -20 -20 -20 -20 4 9 -20 -9 -20 -20 -20 -20 -20 -20 -20 -20 -20 -20 -20 -20 -20
-5 -19 -15 -16 12 6 6 -20 -20 -20 -13 -20 -4 -20 -20 0 1 -20 -20 -20 -20 -20 -20 -20 -20 -20 -20 6 -17 -16 -20 -20 -20 -20 -20 -20 -20 -20 -20 -20 -20 -20 -20 -20
10 1 24 15 -9 -8 -20 -20 -20 -20 -20 5 16 16 -2 20 3 14 1 -20 -20 -20 -20 -20 -20 -20 -20 2 -19 -20 -20 -20 -20 -20 -20 -20 -20 -20 -20 -20 -20 -20 -20 -20
-9 -20 -15 -20 -20 -20 -20 -20 -20 -14 -20 -20 3 7 -17 -2 6 12 38 -1 -20 -20 -20 -20 -20 -20 -10 -10 -20 -20 -20 -20 -20 -20 -20 -20 -20 -20 -20 -20 -20 -20 -20 -20
12 -20 -20 -20 -20 -7 -4 -20 -16 -2 -2 -8 5 -19 21 -20 -20 -20 -10 -20 -20 -20 -20 -20 -20 -20 -20 -20 -20 -20 -20 -20 -20 -20 -20 -20 -20 -20 -20 -20 -20 -20 -14 -20
-20 11 29 -20 -20 -20 -20 -20 -20 -1 1 -6 -20 -20 -20 -20 -20 -20 -20 -20 -20 -20 -20 -20 -20 -20 -20 -20 -20 -20 -20 -20 -20 -20 -20 -20 -20 -20 -20 -20 -20 -20 -20 -20
29 20 9 -17 -20 -20 -20 -20 -20 -20 -20 -20 -20 -14 0 -14 -20 -20 -20 -20 -20 -20 -20 -20 -20 -20 -20 -20 -20 -20 -20 -20 -20 -20 -20 -20 -20 -20 -20 -20 -20 -20 -20 -20
-5 23 9 -20 -20 -20 -20 -20 -20 -20 -20 -0 -20 -20 -20 -20 -20 -20 -20 -20 -20 -20 -20 -20 -20 -20 -20 -20 -20 -20 -20 -20 -20 -20 -20 -20 -20 -20 -18 -20 -20 -20 -20 -20
-20 -20 -20 -20 -20 -20 -20 -20 -20 -20 -20 -20 -20 -20 -20 -20 -20 -20 -20 -20 -20 -20 -20 -20 -20 -20 -20 -20 -20 -20 -20 -20 -20 -20 -20 -20 -20 -18 12 -20 -20 -20 -20 -20
-20 -20 -20 -20 -20 -20 -20 -20 -20 -20 -20 -20 -20 -20 -20 -20 -20 -20 -20 -20 -20 -20 -20 -20 -20 -20 -20 -20 -20 -20 -20 -20 -20 -20 -20 -20 -20 -17 9 12 -20 -20 -20 -20
-20 -20 -20 -20 -20 -15 -16 -20 -20 -20 -20 -20 -20 -20 -20 -20 -20 -20 -20 -20 -20 -20 -20 -20 -20 -20 -20 -20 -20 -20 -20 -20 -20 -20 -20 -20 -20 -20 -12 -17 -20 -20 -20 -20
-20 -20 -20 -20 -14 -14 -20 -20 -20 -20 -20 -20 -20 -20 -20 -20 -20 -20 -20 -20 -20 -20 -20 -20 -20 -20 -20 -20 -20 -20 -20 -20 -20 -20 -20 1 3 -19 -12 -6 -20 4 -8 -20
-20 -20 -20 -20 -20 -20 -20 -20 -20 -20 -20 -20 -20 -20 -20 -20 -20 -20 -20 -20 -20 -20 -20 -20 -20 13 -20 -20 -20 -20 -20 -20 -20 -20 -17 1 -9 -10 -20 -19 11 -6 -20 -20
-20 -20 -20 -20 -20 -20 -20 -20 -20 -20 -20 -20 -20 -20 -20 -20 -20 -20 -20 -20 -20 -20 -20 -20 -20 -20 -20 -20 -20 -20 -20 -20 -20 -20 -14 1 -20 -16 16 4 6 9 11 -13
-20 -20 -20 -20 -20 -20 -20 -20 -20 -20 -20 -20 -20 -20 -20 -20 -20 -20 -20 -20 -20 -20 -20 -20 -20 -20 -20 -20 -20 -20 -20 -20 -20 -20 -5 -20 13 5 18 5 14 -15 -11 -11
-20 -20 -20 -20 -20 -20 -20 -20 -20 -20 -20 -20 -20 -20 -20 -20 -20 -20 -20 -20 -20 -20 -20 -20 -20 -20 -20 -20 -20 -20 -20 -20 -20 -20 -20 -1 23 2 6 3 11 12 -8 -19
-20 -20 -20 -20 -20 -20 -20 -20 -20 -20 -20 -20 -20 -20 -20 -20 -20 -20 -20 -20 -20 -20 -20 -20 -20 -20 -20 -20 -20 -20 -20 3 7 14 14 22 5 22 18 27 16 9 -2 -10
-20 -20 -20 -20 -20 -20 -20 -20 -20 -20 -20 -20 -20 -20 -20 -20 -20 -20 -20 -20 -20 -20 -20 -20 -20 -20 -20 -20 -20 -14 15 -10 -20 13 -4 11 22 26 19 20 16 6 1 5
-20 -20 -20 -20 -20 -20 -20 -20 -20 -20 -20 -20 -20 -20 -20 -20 -20 -20 -20 -20 -20 -20 -20 -20 -20 -20 -20 -20 -20 -19 -20 -15 -14 -10 18 10 16 27 17 8 5 7 11 -14
-20 -19 -20 -20 -20 -20 -20 -20 -20 -20 -20 -20 -20 -20 -20 -20 -20 -20 -20 -20 -20 -20 -20 -20 -20 -20 -20 -20 -20 -20 -4 14 24 12 11 15 15 10 4 3 8 8 -16 -20
-20 -20 -20 -20 -20 -20 -20 -20 -20 -20 -20 -20 -20 -20 -20 -20 -20 -20 -20 -20 -20 -20 -20 -20 -20 -20 -20 -20 -18 -16 15 26 24 19 17 10 1 2 4 -5 -10 -15 -16 -20
-20 -20 -20 -20 -20 -20 -20 -20 -20 -20 -20 -20 -20 -20 -20 -20 -20 -20 -20 -20 -20 -20 -20 -20 -20 -20 -20 -17 -1 11 8 3 9 6 2 7 -2 -19 -13 -18 -20 -20 -20 -20
-20 -20 -20 -20 -20 -20 -20 -20 -20 -20 -20 -20 -20 -20 -20 -20 -20 -20 -20 -20 -20 -20 -19 -20 -20 -20 -20 -20 -20 -20 -20 -20 -14 9 -0 -15 -20 -19 -20 -20 -20 -20 -20 -20

GFSCGP_prec_radar_015.txt.gz
Reflectivity
-20 -20 -20 -20 -20 -0 -15 -7 -20 -20 -20 -20 -20 -20 -20 -20 -20 -18 -20 -6 12 -20 -20 -20 -20 -20 -20 -20 -20 -20 -20 -20 -20 -20 -20 -20 -20 -20 -20 -20 -20 -20 -20 -20
-20 -20 -20 -20 3 -20 -20 -16 -4 -20 -20 -20 -20 -20 -20 -20 -20 -20 -20 12 4 -3 -20 -20 -20 -20 -20 -20 -20 -20 -20 -20 -20 -20 -20 -20 -20 -20 -20 -20 -20 -20 -20 -20
-20 -20 -20 -8 -7 -20 -11 -20 -9 -20 -20 -20 -20 -20 -1 -20 -20 -20 -20 -20 -20 -20 -20 -20 -20 -20 -20 -20 -20 -20 -20 -20 -20 -20 -20 -20 -20 -20 -20 -20 -20 -20 -20 -20
-20 -20 -20 -14 -20 -20 -20 -20 -16 -20 -20 -20 -20 -20 -20 -20 -20 -20 -20 -20 -20 -20 -20 -20 -1 -20 -20 -20 -20 -20 -20 -20 -20 -20 -20 -20 -20 -20 -20 -20 -20 -20 -20 -20
-8 -16 4 -8 -20 -20 -20 -20 -20 -20 -20 -20 9 -7 -20 -4 4 -20 -20 -20 -20 -20 -20 -20 -19 -20 -19 -20 -15 -20 -20 -20 -20 -20 -20 -20 -20 -20 -20 -20 -20 -20 -20 -20
-20 -20 -20 -18 -20 -20 -20 -20 -20 -20 -20 -20 -19 -20 -20 -18 -5 -18 -16 -12 -19 -20 -20 -20 -20 -20 -20 -20 19 -9 -3 -20 -20 -20 -20 -20 -20 -20 -20 -20 -20 -20 -20 -20
-20 -20 25 2 -20 -20 -20 -20 -20 -20 -20 -20 -20 -20 17 -20 -20 -20 -20 -18 -12 -20 -20 -20 -20 -20 -20 -20 3 -4 -11 -20 -20 -20 -20 -20 -20 -20 -20 -20 -20 -20 -20 -20
-20 -6 -20 -18 -20 -20 -20 -20 -20 -20 -20 -20 -20 -20 3 -20 -20 -20 -20 -20 -20 -20 -20 -20 -20 -20 -20 -20 -20 -20 -20 -20 -20 -20 -20 -20 -20 -20 -20 -20 -20 -20 -20 -20
-20 -12 -20 -20 -20 -20 -20 -20 -20 -20 -20 -1 -12 12 -18 -20 -20 -20 -20 -20 -20 -20 -20 -16 -16 -17 -20 -20 -20 -20 -20 -20 -20 -20 -20 -20 -20 -20 -20 -20 -20 -20 -20 5
-20 -20 -20 5 -11 -20 -20 -20 -20 -20 -20 -20 -20 -20 -20 -20 -20 -20 -20 -20 -20 -20 -20 -20 -20 -20 -20 -20 -20 -20 -20 -20 -20 -20 -20 -20 -20 -20 -20 -20 -20 -20 -16 -6
-20 -20 5 12 11 -20 -20 -20 -20 -20 -20 -20 -20 -20 -20 -20 -20 -20 -20 -20 -20 -20 -20 -20 -20 -20 -20 -20 -20 -20 -20 -20 -20 -20 -20 -20 -20 -20 -20 -20 -20 -19 2 -20
-20 -20 -14 18 -20 -20 -20 -20 -20 -20 -20 -20 -20 -20 -20 -20 -20 -20 -20 -20 -20 -20 -20 -20 -20 -20 -20 -20 -20 -20 -20 -20 -20 -20 -20 -20 -20 -20 -20 -20 -20 -17 -16 -20
-20 -20 -20 -20 10 -20 -19 -20 -20 -20 -20 -20 -20 -20 -20 -20 -20 -20 -20 -20 -20 -20 -20 -20 -20 -20 -20 -20 -20 -20 -20 -20 -20 -20 -20 -20 -20 -20 -20 -20 -7 -14 -19 -20
-20 -20 -20 -20 -20 -20 -20 -20 -20 -20 -20 -20 -20 -20 -20 -20 -20 -20 -20 -20 -20 -20 -20 -20 -20 -20 -20 -20 -20 -20 -20 -20 -20 -20 -20 -20 -20 -20 -15 -19 -2 -19 -20 -19
-20 -20 -20 -20 -20 -20 -20 -20 -20 -20 -20 -20 -20 -20 -20 -20 -20 -20 -20 -20 -20 -20 -20 -20 -20 -20 -20 -20 -20 -20 9 -20 -20 -20 -20 -20 -20 -20 -20 -7 -3 -3 -20 -17
-20 -20 -20 -20 -20 -20 -20 -20 -20 -20 -20 -20 -20 -20 -20 -20 -20 -20 -20 -20 -20 -20 -20 -20 -20 -20 -20 14 12 17 -3 -20 -20 -20 -20 -20 -20 -20 -20 -7 -5 -18 4 -1
-20 -20 -20 -20 -20 -20 -20 -20 -20 -20 -20 -20 -20 -20 -20 -20 -20 -20 -20 -20 -20 -20 -20 -20 -20 -20 -20 -20 4 -20 -20 -20 -20 -20 -20 -20 -20 -20 -20 -20 7 16 7 -2
-20 -20 -20 -20 -20 -20 -20 -20 -20 -20 -20 -20 -20 -20 -20 -20 -20 -20 -20 -20 -20 -20 -20 -20 -20 -20 -20 -20 -20 -20 -20 -20 -20 -20 -20 -20 -20 -20 -20 6 18 19 5 2
-7 1 -20 -20 -20 -20 -20 -20 -20 -20 -20 -20 -20 -20 -20 -20 -20 -20 -20 -20 -20 -20 -20 -20 -20 -20 -20 -20 -20 -20 -20 -20 -20 -20 -20 -20 14 3 21 14 17 11 9 -20
-20 -20 -20 -20 -20 -20 -20 -20 -20 -20 -20 -20 -20 -20 -20 -20 -20 -20 -20 -20 -20 -20 -20 -20 -20 -20 -20 -20 -20 -20 -20 6 -6 -20 -20 -19 -20 18 29 20 21 1 -20 -20
-20 -20 -20 -20 -20 -20 -20 -20 -20 -20 -20 -20 -20 -20 -20 -20 -20 -20 -20 -20 -20 -20 -20 -20 -20 -20 -20 -20 -20 -20 -16 -12 4 -6 -4 13 22 25 21 11 3 5 -3 3
-20 -20 -20 -20 -20 -20 -20 -20 -20 -20 -20 -20 -20 -20 -20 -20 -20 -20 -20 -20 -20 -20 -20 -20 -20 -20 -20 -20 -20 7 6 12 -5 -2 15 25 23 14 0 3 -0 1 2 -19
-20 -20 -20 -20 -20 -20 -20 -20 -20 -20 -20 -20 -20 -20 -20 -20 -20 -20 -20 -20 -20 -20 -20 -20 -20 -20 -20 -20 -20 -20 -18 -13 8 14 29 23 -3 -4 7 0 -17 -15 -20 -20
-20 -20 -20 -20 -20 -20 -20 -20 -20 -20 -20 -20 -20 -20 -20 -20 -20 -20 -20 -20 -20 -20 -20 -20 -20 -20 -20 -20 -20 -20 -20 -19 6 4 -20 -20 -20 -20 -20 -20 -20 -20 -20 -20
-20 -20 -20 -20 -20 -20 -20 -20 -20 -20 -20 -20 -20 -20 -20 -20 -20 -20 -20 -20 -20 -20 -20 -20 -20 -20 -20 -20 -20 -20 -20 -20 -20 -20 -20 -20 -20 -20 -20 -20 -20 -20 -20 -20
-20 -20 -20 -20 -20 -20 -20 -20 -20 -20 -20 -20 -20 -20 -20 -20 -20 -20 -20 -20 -20 -20 -20 -20 -20 -20 -20 -20 -20 -20 -20 -20 -20 -20 -20 -20 -20 -20 -20 -20 -20 -20 -20 -20

GFSCGP_prec_radar_018.txt.gz
Reflectivity
-20 -20 -20 -20 -20 -20 -20 -20 -13 -20 -20 -20 -20 -20 -20 -20 -20 -20 -20 -20 -20 -20 -20 -20 -20 -20 -20 -20 -20 -20 -20 -20 -20 -20 -20 -20 -20 -20 -20 -20 -20 -20 -20 -20
-20 -20 -20 -20 -20 -17 -20 -20 -20 -20 -20 -20 -20 -20 -20 -19 -20 -20 -20 -20 -20 -20 -20 -20 -20 -20 -20 -20 -20 -20 -20 -20 -20 -20 -20 -20 -20 -20 -20 -20 -20 -20 -20 -20
-20 -20 -20 -20 -2 -20 -20 -20 -20 -20 -20 -20 -20 -20 -20 6 -20 -20 -20 -20 -20 -20 -20 -20 -20 -20 -20 -20 -20 -20 -20 -20 -20 -20 -20 -20 -20 -20 -20 -20 -20 -20 -20 -20
-20 -20 -20 -16 -2 -20 -20 -20 -20 -20 -20 -20 -20 -20 -20 -20 0 -20 -11 -20 -20 -20 -20 -20 -20 -20 -20 -20 -20 -20 -20 -3 -20 -20 -20 -20 -20 -20 -20 -20 -20 -20 -20 -20
-20 -20 -20 -14 -18 -20 -20 -20 -20 -20 -20 -20 -20 -20 -20 -20 -20 -20 -20 -20 -20 -20 -20 -20 -20 -20 -20 -20 -20 -20 -19 -17 19 -20 -20 -20 -20 -20 -20 -20 -20 -20 -20 -20
-20 -20 -20 -20 -20 -20 -20 -20 -20 -20 -20 -20 -20 -20 -20 -20 -8 -20 -20 -20 -20 -20 12 -8 25 -20 -20 -20 -20 -8 -17 -17 -14 -19 -20 -20 -20 -20 -20 -20 -20 -20 -20 -20
-20 -20 -20 -20 -20 -20 -20 -20 -20 -20 -20 -20 -20 -20 -20 -20 -20 -20 -20 -20 -20 -20 -20 -12 -20 -20 -20 -20 4 -20 -20 -20 -18 -19 -11 -20 -20 -20 -20 -20 -20 -20 -20 -20
-20 -20 -20 -20 -20 -20 -20 -20 -20 -20 -20 -20 -20 -20 -20 -20 -20 -20 -20 -20 -20 -20 -20 -20 -20 -20 -20 -20 -20 -20 -20 -12 19 2 5 7 -16 -20 -20 -20 -20 -20 -20 -20
-20 -20 -20 -20 -20 -20 -20 -20 -20 -20 -20 -20 -20 -20 -20 -20 -20 -20 -20 -20 -20 -20 -20 -20 -20 -20 -20 -20 -20 -20 -20 -20 -20 7 15 -5 -16 -20 -20 -20 -20 -20 -20 4
-20 -19 -20 -20 -20 -20 -20 -20 -20 -20 -20 -20 -20 -20 -20 -20 -20 -20 -20 -20 -20 -20 -20 -20 -20 -20 4 -20 -20 -20 -20 -20 3 18 6 11 -1 -20 -20 -20 -20 -20 1 13
-20 -20 -17 -20 -20 -1 -20 -20 -20 -20 -20 -20 -20 -20 -20 -20 -20 -20 -20 -20 -20 -20 -20 -20 -20 -20 -20 -20 -20 -20 -20 -6 6 3 15 -13 -20 -19 -6 9 9 29 7 -20
-20 -20 -20 -20 -20 -8 7 -20 -20 -20 -20 -20 -20 -20 -20 -20 -20 -20 -20 -20 -20 -20 -20 -20 -20 -20 -20 -20 -20 -20 -19 -18 25 -20 -20 -20 -20 -20 -20 -20 -20 -20 -20 -20
-20 -20 -20 -20 -20 -20 -20 -20 -20 -20 -20 -20 -20 -20 -20 -20 -20 -20 -20 -20 -20 -20 -20 -20 -20 -20 -20 -20 -20 -20 -20 -20 -20 -20 -16 -20 -20 -5 -20 -20 -20 -20 -20 -20
-5 -20 -20 -20 -20 -20 -20 -20 -20 -20 -20 -20 -20 -20 -20 -20 -20 -20 -20 -20 -20 -20 -20 -20 -4 -20 -20 -20 -20 -20 -20 -12 -17 -20 -20 -20 -20 -20 -20 -20 -20 -20 -20 -20
-1 -20 -20 -20 -20 -20 -20 -20 -20 -20 -20 -20 -20 -20 -20 -20 -20 -20 -20 -20 -20 -20 -20 -20 2 -7 -20 -20 -2 -20 -1 -20 2 10 -15 -20 -20 -20 -20 -20 -20 -20 -20 -20
-20 -20 -20 -20 -20 -20 -20 -20 -20 -20 -20 -20 -20 -20 -20 -20 -20 -20 -20 -20 -20 -20 -20 -20 -20 -20 -20 -20 -20 7 -13 8 -19 -19 -20 -20 -20 -20 -20 -20 -20 -20 -20 -9
-20 -20 -20 -20 -20 -20 -20 -20 -20 -20 -20 -20 -20 -20 -20 -20 -20 -20 -20 -20 -20 -20 -20 -20 -20 -20 -20 -20 -20 -20 -20 -20 -20 -20 -20 -20 -20 -20 -20 -20 -20 -20 -12 23
-20 -20 -20 -20 -20 -20 -20 -20 -20 -20 -20 -20 -20 -20 -20 -20 -20 -20 -20 -20 -20 -20 -20 -20 -20 -20 -20 -20 -20 -20 -20 -20 -20 -20 -20 -20 -20 -20 -20 -20 -20 17 29 7
-20 2 -20 -20 -20 -20 -20 -20 -20 -20 -20 -20 -20 -20 -20 -20 -20 -20 -20 -20 -20 -20 -20 -20 -20 -20 -20 -20 -20 -20 -20 -20 -20 -20 -20 -20 -20 -11 10 -20 14 32 16 14
-20 21 22 -20 -20 -20 -20 -20 -20 -20 -20 -20 -20 -20 -20 -20 -20 -20 -20 -20 -20 -20 -20 -20 -20 -20 -20 -20 -20 -20 -20 -20 -20 -20 -18 -16 17 20 14 33 30 21 12 -14
-20 -20 -20 -20 -20 -20 -20 -20 -20 -20 -20 -20 -20 -20 -20 -20 -20 -20 -20 -20 -20 -20 -20 -20 -20 -20 -20 -20 -20 -20 -20 -20 -16 -3 24 5 26 5 31 17 10 -11 -20 -20
-20 -20 -20 -20 -20 -20 -20 -20 -20 -20 -20 -20 -20 -20 -20 -20 -20 -20 -20 -20 -20 -20 -20 -20 -20 -20 -20 -20 -20 -20 -20 -3 -7 -18 9 24 23 28 28 6 -20 -20 -20 -20
-20 -20 -20 -20 -20 -20 -20 -20 -20 -20 -20 -20 -20 -20 -20 -20 -20 -20 -20 -20 -20 -20 -20 -20 -20 -20 -20 -20 -20 -20 -20 -20 -20 -6 12 22 14 -17 -20 -20 -20 -20 -20 -20
-20 -20 -20 -20 -20 -20 -20 -20 -20 -20 -20 -20 -20 -20 -20 -20 -20 -20 -20 -20 -20 -20 -20 -20 -20 -20 -20 -20 -20 -20 -20 -20 -20 -20 -20 -20 -20 -20 -20 -20 -20 -20 -20 -20
-20 -20 -20 -20 -20 -20 -20 -20 -20 -20 -20 -20 -20 -20 -20 -20 -20 -20 -20 -20 -20 -20 -20 -20 -20 -20 -20 -20 -20 -20 -20 -20 -20 -20 -20 -20 -20 -20 -20 -20 -20 -20 -20 -20
-20 -20 -20 -20 -20 -20 -20 -20 -20 -20 -20 -20 -20 -20 -20 -20 -20 -20 -20 -20 -20 -20 -20 -20 -20 -20 -20 -20 -20 -20 -20 -20 -20 -20 -20 -20 -20 -20 -20 -20 -20 -20 -20 -20

GFSCGP_prec_radar_021.txt.gz
Reflectivity
-20 -20 -20 -20 -20 -20 -20 -20 -20 -20 -19 -20 -20 -20 -20 -20 -20 -20 -20 -20 -20 -20 -20 -20 -20 -20 -20 -20 -20 -20 -20 -20 -20 -20 -20 -20 -20 -20 -20 -20 -20 -20 -20 -20
-20 -20 -20 -20 -20 -20 -20 -20 -20 -20 -20 -20 -20 -20 -20 -20 -20 -20 -20 -20 -20 -20 -20 -20 -20 -20 -20 -20 -20 -20 -20 -20 -20 -20 -20 -20 -20 -20 -20 -20 -20 -20 -20 -20
-20 -20 -20 -20 -20 -20 -19 -20 -20 -20 -20 -20 -20 -20 -20 -19 -20 -20 -20 -20 -20 -20 -20 -20 -20 -20 -20 -20 -20 -20 -20 -20 -20 -20 -20 -20 -20 -20 -20 -20 -20 -20 -20 -20
-20 -20 -20 -20 -20 -14 -20 -20 -20 -20 -20 -20 -20 -20 -20 -20 -20 -20 -20 -20 -20 -20 -20 -20 -20 -20 -20 -20 -20 -20 -20 -20 -20 -20 -20 -20 -20 -20 -20 -20 -20 -20 -20 -20
-20 -20 -20 -20 -20 -20 -20 -20 -20 -20 -20 -20 -20 -20 -20 -20 -20 -20 -20 -20 -20 -20 -20 -20 -20 -20 -20 -20 -20 -20 -20 -20 -20 -20 -20 -20 -20 -20 -20 -20 -20 -20 -20 -20
-20 -20 -20 -20 -11 -20 -20 -20 -20 -20 -20 -20 -20 -20 -20 -20 -20 -20 -20 -20 -20 -20 -20 -20 -20 -20 -20 -20 -20 -20 -20 -20 -2 -20 -20 -20 14 16 -13 -20 -20 -20 -20 -20
-20 -20 -20 -20 -20 -20 -20 -20 -20 -20 -20 -20 -20 -20 -20 -20 -20 -20 -20 -20 -20 -20 -20 -20 -20 -20 -20 -20 1 -17 -20 20 -18 -20 -20 -13 -20 -20 21 -11 -20 -20 -20 -20
-20 -20 -20 -20 -20 -20 -20 -20 -20 -20 -20 -20 -20 -20 -20 -20 -20 -20 -20 -20 -20 -20 -20 -20 -20 -16 -20 -15 -14 -20 -20 -5 -20 -20 -20 -20 19 -3 -10 -20 -20 -20 -20 -20
-20 -20 -20 -20 -20 -20 -20 -20 -20 -20 -20 -20 -20 -20 -20 -20 -20 -20 -20 -20 -20 -20 -20 -20 -20 -20 -20 -16 -20 -16 -10 -14 -20 -13 27 -1 3 -15 -20 -20 -20 -9 -17 -18
-20 -20 -20 -20 -20 -20 -15 -20 -20 -20 -20 -20 -20 -20 -20 -20 -20 -20 -20 -20 -20 -20 -20 -20 -20 -20 -20 -20 -6 -20 -7 -20 -20 -20 -20 9 22 -4 -20 -20 -20 -9 -1 5
-20 -20 -20 -20 -20 -20 -20 -20 -20 -20 -20 -20 -20 -20 -20 -20 -20 -20 -20 -20 -20 -20 -20 -20 -20 -20 -20 -20 -20 -20 -20 -20 -20 24 13 4 -17 -9 -9 -20 -20 -20 -20 -18
-20 -20 -20 -20 -20 -20 -20 -20 -20 -20 -20 -20 -20 -20 -20 -20 -20 -20 -20 -20 -20 -20 -20 -20 -20 -20 -20 -20 -20 -20 24 -20 19 19 -19 19 17 15 -2 -20 -3 -14 -18 -20
-20 -20 -20 -20 -20 -20 -20 -20 -20 -20 -20 -20 -20 -20 -20 -20 -20 -20 -20 -20 -20 -20 -20 -20 -20 -20 -20 -20 -20 -20 10 19 -4 22 22 -4 -20 -20 -20 6 2 -20 -20 -20
-20 -20 -20 -20 -20 -20 -20 -20 -20 -20 -20 -20 -20 -20 -20 -20 -20 -20 -20 -20 -20 -20 -20 -20 -20 -20 -20 -20 -5 24 16 16 -19 21 -20 -10 -20 -20 -7 -20 -20 -20 -20 -20
-20 -20 -20 -20 -20 -20 -20 -20 -20 -20 -20 -20 -20 -20 -20 -20 -20 -20 -20 -20 -20 -20 -20 -20 -20 -20 -11 12 6 -20 -20 18 -8 -10 -9 -20 -20 -20 -20 -19 -14 -19 -20 -19
-20 -20 -20 -20 -20 -20 -20 -20 -20 -20 -20 -20 -20 -20 -20 -20 -20 -20 -20 -20 -20 -20 -20 -20 -20 -20 -20 -20 -20 -20 -20 20 6 -20 -20 -20 -20 -20 -20 -16 -19 -17 -18 -15
-20 -20 -20 -20 -20 -20 -20 -20 -20 -20 -20 -20 -20 -20 -20 -20 -20 -20 -20 -20 -20 -20 -20 -20 -20 -20 -20 -20 -20 -20 -20 -20 -20 -20 -20 -17 4 -14 -20 -20 -20 -20 -17 -6
-20 -20 -20 -20 -20 -20 -20 -20 -20 -20 -20 -20 -20 -20 -20 -20 -20 -20 -20 -20 -20 -20 -20 -20 -20 -20 -20 -20 -20 -20 -20 -20 -20 -20 -20 -6 -1 -20 -20 -20 -20 -20 11 34
-20 -20 -20 -20 -20 -20 -20 -20 -20 -20 -20 -20 -20 -20 -20 -20 -20 -20 -20 -20 -20 -20 -20 -20 -20 -20 -20 -20 -20 -20 -20 -20 -20 -20 -19 -9 4 -20 -20 4 24 15 35 20
-20 -20 -20 -20 -20 -20 -20 -20 -20 -20 -20 -20 -20 -20 -20 -20 -20 -20 -20 -20 -20 -20 -20 -20 -20 -20 -20 -20 -20 -20 -20 -20 -20 -20 -19 -11 -20 -11 8 28 24 20 20 8
-20 -20 -20 -20 -20 -20 -20 -20 -20 -20 -20 -20 -20 -20 -20 -20 -20 -20 -20 -20 -20 -20 -20 -20 -20 -20 -20 -20 -20 -20 -20 -20 -20 -20 -20 -10 7 28 21 20 27 25 6 -20
-20 -20 -20 -20 -20 -20 -20 -20 -20 -20 -20 -20 -20 -20 -20 -20 -20 -20 -20 -20 -20 -20 -20 -20 -20 -20 -20 -20 -20 -20 -20 -20 -20 -20 -20 -17 21 27 18 15 11 -6 -20 -20
-20 -20 -20 -20 -20 -20 -20 -20 -20 -20 -20 -20 -20 -20 -20 -20 -20 -20 -20 -20 -20 -20 -20 -20 -20 -20 -20 -20 -20 -20 -20 -20 -20 -20 -20 -19 -12 -9 -18 -20 -20 -20 -20 -20
-20 -20 -20 -20 -20 -20 -20 -20 -20 -20 -20 -20 -20 -20 -20 -20 -20 -20 -20 -20 -20 -20 -20 -20 -20 -20 -20 -20 -20 -20 -20 -20 -20 -20 -20 -20 -20 -20 -20 -20 -20 -20 -20 -20
-20 -20 -20 -20 -20 -20 -20 -20 -20 -20 -20 -20 -20 -20 -20 -20 -20 -20 -20 -20 -20 -20 -20 -20 -20 -20 -20 -20 -20 -20 -20 -20 -20 -20 -20 -20 -20 -20 -20 -20 -20 -20 -20 -20
-20 -20 -20 -20 -20 -20 -20 -20 -20 -20 -20 -20 -20 -20 -20 -20 -20 -20 -20 -20 -20 -20 -20 -20 -20 -20 -20 -20 -20 -20 -20 -20 -20 -20 -20 -20 -20 -20 -20 -20 -20 -20 -20 -20

GFSCGP_prec_radar_024.txt.gz
Reflectivity
-20 -20 -20 -20 -20 -20 -20 -20 -20 -20 -20 -20 -20 -20 -20 -20 -20 -20 -20 -20 -20 -20 -20 -20 -20 -20 -20 -20 -20 -20 -20 -20 -20 -20 -20 -20 -20 -20 -20 -20 -20 -20 -20 -20
-20 -20 -20 -20 -20 -20 -20 -20 -20 -20 -20 -20 -20 -20 -20 -20 -20 -20 -20 -20 -20 -20 -20 -20 -20 -20 -20 -20 -20 -20 -20 -20 -20 -20 -20 -20 -20 -20 -20 -20 -20 -20 -20 -20
-20 -20 -20 -20 -20 -20 -20 -20 -20 -20 -20 -20 -20 -20 -20 -20 -20 -20 -20 -20 -20 -20 -20 -20 -20 -20 -20 -20 -20 -20 -20 -20 -20 -20 -20 -20 -2 -20 -20 -20 -20 -20 -20 -20
-20 -20 -20 -20 -20 -20 -19 -20 -20 -20 -20 -20 -20 -20 -20 -20 -20 -20 -20 -20 -20 -20 -20 -20 -20 -20 -20 -20 -20 -20 -20 -20 -20 -20 -20 -20 -20 -20 -20 -20 -20 -20 -20 -20
-20 -20 -20 -20 -20 -20 -19 -20 -20 -20 -20 -20 -20 -20 -20 -20 -20 -20 -20 -20 -20 -20 -20 -20 -20 -20 -20 -20 -20 -20 -20 -20 -20 -20 -20 -20 -20 -20 -20 -20 -20 -20 -20 -20
-20 -20 -20 -20 -20 -20 -20 -20 -20 -20 -20 -20 -20 -20 -20 -20 -20 -20 -20 -20 -20 -20 -20 -20 -20 -20 -20 -20 -20 -20 -20 -20 -20 -20 -11 -12 -18 6 -20 -6 14 -20 -20 -20
-20 -20 -20 -20 -20 -20 -20 -20 -20 -20 -20 -20 -20 -20 -20 -20 -20 -20 -20 -20 -20 -20 -20 -20 -20 -20 -20 -20 -20 -20 -20 -20 -20 -15 -7 13 -20 -20 -20 -20 -1 9 -5 -6
-20 -20 -20 -20 -20 -20 -20 -20 -20 -20 -20 -20 -20 -20 -20 -20 -20 -20 -20 -20 -20 -20 -20 -20 -20 -20 -20 -20 -20 -20 -20 5 -19 -10 32 28 20 11 -19 -17 10 7 -20 5
-20 -20 -20 -20 -20 -20 -20 -20 -20 -20 -20 -20 -20 -20 -20 -20 -20 -20 -20 -20 -20 -20 -20 -20 -20 -20 -20 -14 -15 -20 -20 -20 -20 18 21 11 17 21 -14 22 21 -20 -20 -20
-20 -20 -20 -20 -20 -20 -20 -20 -20 -20 -20 -20 -20 -20 -20 -20 -20 -20 -20 -20 -20 -20 -20 -20 -20 -20 -20 -20 -20 -20 -20 -20 -20 20 19 7 21 22 22 19 3 -9 -20 -14
-20 -20 -20 -20 -20 -20 -20 -20 -20 -20 -20 -20 -20 -20 -20 -20 -20 -20 -20 -20 -20 -20 -20 -20 -20 -20 -20 -20 -20 -20 -20 -20 23 -20 29 27 -9 23 22 23 16 -16 -17 6
-20 -20 -20 -20 -20 -20 -20 -20 -20 -20 -20 -20 -20 -20 -20 -20 -20 -20 -20 -20 -20 -20 -20 -20 -20 -20 -20 -20 -20 -20 -20 -20 -10 -14 -6 23 21 20 15 7 21 3 -14 -20
-20 -20 -20 -20 -20 -20 -20 -20 -20 -20 -20 -20 -20 -20 -20 -20 -20 -20 -20 -20 -20 -20 -20 -20 -20 -20 -20 -20 -20 -10 -11 -20 -20 -20 22 -20 20 16 16 23 5 -9 -20 -10
-20 -20 -20 -20 -20 -20 -20 -20 -20 -20 -20 -20 -20 -20 -20 -20 -20 -20 -20 -20 -20 -20 -20 -20 -20 -20 -20 -20 -20 -20 -13 1 -20 -18 -20 -7 23 13 5 -5 10 -20 -20 -16
-20 -20 -20 -20 -20 -20 -20 -20 -20 -20 -20 -20 -20 -20 -20 -20 -20 -20 -20 -20 -20 -20 -20 -20 -20 -20 -20 -20 0 -20 -20 -20 -20 -13 -17 -3 -19 1 -2 -20 -20 -20 -20 -20
-20 -20 -20 -20 -20 -20 -20 -20 -20 -20 -20 -20 -20 -20 -20 -20 -20 -20 -20 -20 -20 -20 -20 -20 -20 -20 -20 -20 -20 -20 -20 -20 -20 -20 -20 -20 12 -19 2 -20 -20 -7 -19 -19
-20 -20 -20 -20 -16 -20 -20 -20 -20 -20 -20 -20 -20 -20 -20 -20 -20 -20 -20 -20 -20 -20 -20 -20 -20 -20 -20 -20 -20 -20 -20 -20 -20 -20 -20 -20 -20 -20 5 -20 -20 -11 12 18
-20 -20 -20 -20 -20 -20 -20 -20 -20 -20 -20 -20 -20 -20 -20 -20 -20 -20 -20 -20 -20 -20 -20 -20 -20 -20 -20 -20 -20 -20 -20 -20 -20 -20 -20 -20 -20 -8 -13 -10 -14 13 4 17
-20 -20 -20 -20 -20 -20 -20 -20 -20 -20 -20 -20 -20 -20 -20 -20 -20 -20 -20 -20 -20 -20 -20 -20 -20 -20 -20 -20 -20 -20 -20 -20 -20 -20 -20 -20 -20 -2 -9 -2 11 8 26 40
-20 -20 -20 -20 -20 -20 -20 -20 -20 -20 -20 -20 -20 -20 -20 -20 -20 -20 -20 -20 -20 -20 -20 -20 -20 -20 -20 -20 -20 -20 -20 -20 -20 -20 -20 -20 -14 -1 -10 5 28 26 21 20
-20 -20 -20 -20 -20 -20 -20 -20 -20 -20 -20 -20 -20 -20 -20 -20 -20 -20 -20 -20 -20 -20 -20 -20 -20 -20 -20 -20 -20 -20 -20 -20 -20 -20 -20 -20 -20 -20 -20 -7 2 12 19 8
-20 -20 -20 -20 -20 -20 -20 -20 -20 -20 -20 -20 -20 -20 -20 -20 -20 -20 -20 -20 -20 -20 -20 -20 -20 -20 -20 -20 -20 -20 -20 -20 -20 -20 -20 -20 -20 -15 -11 -13 -12 -20 -20 -20
-20 -20 -20 -20 -20 -20 -20 -20 -20 -20 -20 -20 -20 -20 -20 -20 -20 -20 -20 -20 -20 -20 -20 -20 -20 -20 -20 -20 -20 -20 -20 -20 -20 -20 -20 -20 -20 -20 -20 -20 -20 -20 -20 -20
-20 -20 -20 -20 -20 -20 -20 -20 -20 -20 -20 -20 -20 -20 -20 -20 -20 -20 -20 -20 -20 -20 -20 -20 -20 -20 -20 -20 -20 -20 -20 -20 -20 -20 -20 -20 -20 -20 -20 -20 -20 -20 -20 -20
-20 -20 -20 -20 -20 -20 -20 -20 -20 -20 -20 -20 -20 -20 -20 -20 -20 -20 -20 -20 -20 -20 -20 -20 -20 -20 -20 -20 -20 -20 -20 -20 -20 -20 -20 -20 -20 -20 -20 -20 -20 -20 -20 -20
-20 -20 -20 -20 -20 -20 -20 -20 -20 -20 -20 -20 -20 -20 -20 -20 -20 -20 -20 -20 -20 -20 -20 -20 -20 -20 -20 -20 -20 -20 -20 -20 -20 -20 -20 -20 -20 -20 -20 -20 -20 -20 -20 -20

GFSCGP_prec_radar_027.txt.gz
Reflectivity
-20 -20 -20 -20 -20 -20 -20 -20 -20 -20 -20 -20 -20 -20 -20 -20 -20 -20 -20 -20 -20 -20 -20 -20 -20 -20 -20 -20 -20 -20 -20 -20 -20 -20 -20 -20 -20 -20 -20 -20 -20 -20 -20 -20
-20 -20 -20 -20 -20 -20 -20 -20 -20 -20 -20 -20 -20 -20 -20 -20 -20 -20 -20 -20 -20 -20 -20 -20 -20 -20 -20 -20 -20 -20 -20 -20 -20 -20 -20 -20 -20 -20 18 13 -20 -20 -20 -20
-20 -20 -20 -20 -20 -20 -20 -20 -20 -20 -20 -20 -20 -20 -20 -20 -20 -20 -20 -20 -20 -20 -20 -20 -20 -20 -20 -20 -20 -20 -20 -20 -20 -20 -20 -20 -20 -20 -20 -12 -20 -20 -20 -20
-20 -20 -20 -20 -20 -20 -20 -20 -20 -20 -20 -20 -20 -20 -20 -20 -20 -20 -20 -20 -20 -20 -20 -20 -20 -20 -20 -20 -20 -20 -20 -20 -20 -20 -20 -20 -20 -20 11 -20 -20 -20 -20 -20
-20 -20 -20 -20 -20 -20 -20 -20 -20 -20 -20 -20 -20 -20 -20 -20 -20 -20 -20 -20 -20 -20 -20 -20 -20 -20 -20 -20 -20 -20 -20 -20 -20 -20 -20 -20 -20 -20 -10 -20 -20 -20 -20 -20
-20 -20 -20 -20 -20 -20 -20 -20 -20 -20 -20 -20 -20 -20 -20 -20 -20 -20 -20 -20 -20 -20 -20 -20 -20 -20 -20 -20 -20 -20 -20 -20 -20 -20 -20 -16 -20 -19 -20 2 -20 -20 -20 -18
-20 -20 -20 -20 -20 -20 -20 -20 -20 -20 -20 -20 -20 -20 -20 -20 -20 -20 -20 -20 -20 -20 -20 -20 -20 -20 -20 -20 -20 -20 -20 -20 -20 -20 -20 4 -9 4 15 -10 -18 -0 -20 12
-20 -20 -20 -20 -20 -20 -20 -20 -20 -20 -20 -20 -20 -20 -20 -20 -20 -20 -20 -20 -20 -20 -20 -20 -20 -20 -20 -20 -20 -20 -20 -20 -20 -20 -20 -20 -18 23 23 24 24 21 16 15
-20 -20 -20 -20 -20 -20 -20 -20 -20 -20 -20 -20 -20 -20 -20 -20 -20 -20 -20 -20 -20 -20 -20 -20 -20 -20 -20 -20 -20 -20 -20 -20 -20 -20 -20 -20 -20 -19 25 22 10 17 20 17
-20 -20 -20 -20 -20 -20 -20 -20 -20 -20 -20 -20 -20 -20 -20 -20 -20 -20 -20 -20 -20 -20 -20 -20 -20 -20 -20 -20 -20 -6 -17 -20 -20 -20 -20 -20 27 11 26 21 5 3 9 -2
-20 -20 -20 -20 -20 -20 -20 -20 -20 -20 -20 -20 -20 -20 -20 -20 -20 -20 -20 -20 -20 -20 -20 -20 -20 -20 -20 -20 -20 -3 -19 -12 -20 -20 -20 -14 26 26 -20 10 16 17 12 29
-20 -20 -20 -20 -20 -20 -20 -20 -20 -20 -20 -20 -20 -20 -20 -20 -20 -20 -20 -20 -20 -20 -20 -20 -20 -20 -20 -20 -20 -20 -20 -20 -20 -12 -7 27 26 23 21 26 23 15 31 30
-20 -20 -20 -20 -20 -20 -20 -20 -20 -20 -20 -20 -20 -20 -20 -20 -20 -20 -20 -20 -20 -20 -20 -20 -20 -20 -20 -20 -20 -20 -20 -20 -20 -12 -15 -20 -20 9 12 11 21 20 -20 -20
-20 -20 -20 -20 -20 -20 -20 -20 -20 -20 -20 -20 -20 -20 -20 -20 -20 -20 -20 -20 -20 -20 -20 -20 -20 -20 -20 -20 -20 -20 -20 -20 -20 -20 -20 -20 20 23 6 14 -3 -20 3 -11
-20 -20 -20 -20 -20 -20 -20 -20 -20 -20 -20 -20 -20 -20 -20 -20 -20 -20 -20 -20 -20 -20 -20 -20 -20 -20 -20 -20 -20 -20 -20 -20 -20 -20 -20 -20 -20 -20 -20 -20 -20 1 -4 -3
-20 -20 -20 -20 -20 -20 -20 -20 -20 -20 -20 -20 -20 -20 -20 -20 -20 -20 -20 -20 -20 -20 -20 -20 -20 -20 -20 -20 -20 -20 -20 -20 -20 -20 -20 -20 -20 -20 -20 -20 -20 -12 19 3
-20 -20 -20 -20 -20 -20 -20 -20 -20 -20 -20 -20 -20 -20 -20 -20 -20 -20 -20 -20 -20 -20 -20 -20 -20 -20 -20 -20 -20 -20 -20 -20 -20 -20 -20 -20 -20 -20 -20 -20 -6 12 18 8
-20 -20 -20 -20 -20 -20 -20 -20 -20 -20 -20 -20 -20 -20 -20 -20 -20 -20 -20 -20 -20 -20 -20 -20 -20 -20 -20 -20 -20 -20 -20 -20 -20 -20 -20 -20 -20 -20 -20 -20 -20 -11 -15 7
-20 -20 -20 -20 -20 -20 -20 -20 -20 -20 -20 -20 -20 -20 -20 -20 -20 -20 -20 -20 -20 -20 -20 -20 -20 -20 -20 -20 -20 -20 -20 -20 -20 -20 -20 -20 -20 -20 -20 -20 -17 19 -3 2
-20 -20 -20 -20 -20 -20 -20 -20 -20 -20 -20 -20 -20 -20 -20 -20 -20 -20 -20 -20 -20 -20 -20 -20 -20 -20 -20 -20 -20 -20 -20 -20 -20 -20 -20 -20 -20 -20 -20 -20 -20 -20 -20 -12
-20 -20 -20 -20 -20 -20 -20 -20 -20 -20 -20 -20 -20 -20 -20 -20 -20 -20 -20 -20 -20 -20 -20 -20 -20 -20 -20 -20 -20 -20 -20 -20 -20 -20 -20 -20 -20 -20 -20 -20 -13 -6 4 -2
-20 -20 -20 -20 -20 -20 -20 -20 -20 -20 -20 -20 -20 -20 -20 -20 -20 -20 -20 -20 -20 -20 -20 -20 -20 -20 -20 -20 -20 -20 -20 -20 -20 -20 -20 -20 -20 -20 -18 -18 -20 -20 -20 -20
-20 -20 -20 -20 -20 -20 -20 -20 -20 -20 -20 -20 -20 -20 -20 -20 -20 -20 -20 -20 -20 -20 -20 -20 -20 -20 -20 -20 -20 -20 -20 -20 -20 -20 -20 -20 -20 -20 -20 -20 -20 -20 -20 -20
-20 -20 -20 -20 -20 -20 -20 -20 -20 -20 -20 -20 -20 -20 -20 -20 -20 -20 -20 -20 -20 -20 -20 -20 -20 -20 -20 -20 -20 -20 -20 -20 -20 -20 -20 -20 -20 -20 -20 -20 -20 -20 -20 -20
-5 -20 -20 -20 -20 -20 -20 -20 -20 -20 -20 -20 -20 -20 -20 -20 -20 -20 -20 -20 -20 -20 -20 -20 -20 -20 -20 -20 -20 -20 -20 -20 -20 -20 -20 -20 -20 -20 -20 -20 -20 -20 -20 -20
-20 -20 -20 -20 -20 -20 -20 -20 -20 -20 -20 -20 -20 -20 -20 -20 -20 -20 -20 -20 -20 -20 -20 -20 -20 -20 -20 -20 -20 -20 -20 -20 -20 -20 -20 -20 -20 -20 -20 -20 -20 -20 -20 -20

GFSCGP_prec_radar_030.txt.gz
Reflectivity
-20 -20 -20 -20 -20 -20 -20 -20 -20 -20 -20 -20 -20 -20 -20 -20 -20 -20 -20 -20 -20 -20 -20 -20 -20 -20 -20 -20 -20 -20 -20 -20 -2 0 -20 -20 -20 27 -20 -20 -20 -20 -20 -20
-20 -20 -20 -20 -20 -20 -20 -20 -20 -20 -20 -20 -20 -20 -20 -20 -20 -20 -20 -20 -20 -20 -20 -20 -20 -20 -20 -20 -20 -20 -20 -20 -20 -20 -20 -20 -20 -20 -20 -20 -20 -20 -20 -20
-20 -20 -20 -20 -20 -20 -20 -20 -20 -20 -20 -20 -20 -20 -20 -20 -20 -20 -20 -20 -20 -20 -20 -20 -20 -20 -20 -20 -20 -20 -20 -20 -20 -20 -20 -20 -20 -20 -20 -20 -20 -20 -20 -20
-20 -20 -20 -20 -20 -20 -20 -20 -20 -20 -20 -12 -20 1 -20 -20 -20 -20 -20 -20 -20 -20 -20 -20 -20 -20 -20 -20 -20 -20 -20 -20 -20 -20 -20 -20 -20 -20 -20 -10 -18 -20 -20 -20
-20 -20 -20 -20 -20 -20 -20 -20 -20 -20 -20 -20 -20 -20 -20 -20 -20 -20 -20 -20 -20 -20 -20 -20 -20 -20 -20 -20 -20 -20 -20 -20 -20 -20 -20 -20 -20 -20 -20 -20 -20 -20 -20 -20
-20 -20 -20 -20 -20 -20 -20 -20 -20 -20 -20 -20 -20 -20 -20 -20 -20 -20 -20 -20 -20 -20 -20 -20 -20 -20 -20 -20 -20 -20 -20 -20 -20 -20 -20 -20 -20 -20 -20 -20 -18 -20 -1 -7
-20 -20 -20 -20 -20 -20 -20 -20 -20 -20 -20 -20 -20 -20 -20 -20 -20 -20 -20 -20 -20 -20 -20 -20 -20 -20 -20 -20 -20 -20 -20 -20 -20 -20 -20 -20 -20 -17 10 18 13 21 24 14
-20 -20 -20 -20 -20 -20 -20 -20 -20 -17 -20 -20 -20 -20 -20 -20 -20 -20 -20 -20 -20 -20 -20 -20 -20 -20 -20 -20 -20 -20 -20 -20 -20 -20 -20 -20 -20 -20 12 -3 24 27 26 20
-20 -20 -20 -20 -20 -20 -20 -20 -20 -20 -20 -20 -20 -20 -20 -20 -20 -20 -20 -20 -20 -20 -20 -20 -20 -20 -20 -20 -20 -20 -20 -13 2 -20 -20 -20 -12 -15 -1 21 11 11 15 7
-20 -20 -20 -20 -20 -20 -20 -20 -20 -20 -19 -20 -20 -20 -20 -20 -20 -20 -20 -20 -20 -20 -20 -20 -20 -20 -20 -20 -20 -20 -20 -20 -6 -17 -20 -20 -20 -20 21 26 24 25 13 17
-20 -20 -20 -20 -20 -20 -20 -20 -20 -20 -20 -20 -20 -20 -20 -20 -20 -20 -20 -20 -20 -20 -20 -20 -20 -20 -20 -20 -20 -20 -20 -20 -18 -20 -20 -20 -18 1 10 18 20 22 16 6
-20 -20 -20 -20 -20 -20 -8 -9 -20 -20 -20 -20 -20 -20 -20 -20 -20 -20 -20 -20 -20 -20 -20 -20 -20 -20 -20 -20 -20 -20 -20 -20 -20 -20 -20 -20 -18 29 -11 -19 -9 -20 19 13
-20 -20 -20 -20 -20 -20 -20 -20 -20 -20 -20 -20 -20 -20 -20 -20 -20 -20 -20 -20 -20 -20 -20 -20 -20 -20 -20 -20 -20 -20 -20 -20 -20 -20 -20 -20 -17 -15 -17 -20 21 -20 -20 -20
-20 -20 -20 -20 -20 -20 -20 -20 -20 -20 -20 -20 -20 -20 -20 -20 -20 -20 -20 -20 -20 -20 -20 -20 -20 -20 -20 -20 -20 -20 -20 -20 -2 2 -20 -20 -20 -20 -9 -20 -20 -20 -20 -20
-20 -20 -20 -20 -20 -20 -20 -20 -20 -20 -20 -20 -20 -20 -20 -20 -20 -20 -20 -20 -20 -20 -20 -20 -20 -20 -20 -20 -20 -20 -20 -20 16 -20 -20 -20 -20 -20 -20 -20 -20 -20 -20 -20
-20 -20 -20 -20 -20 -20 -20 -20 -20 -20 -20 -20 -20 -20 -20 -20 -20 -20 -20 -20 -20 -20 -20 -20 -20 -20 -20 -20 -20 -20 -20 -20 -20 -20 -20 -20 -20 -20 -20 -20 -20 -20 -20 -10
-20 -20 -20 -20 -20 -20 -20 -20 -20 -20 -20 -20 -20 -20 -20 -20 -20 -20 -20 -20 -20 -20 -20 -20 -20 -20 -20 -20 -20 -20 -20 -20 -20 -20 -20 -20 -20 -20 -20 -20 -20 -20 -20 -18
-20 -20 -20 -20 -20 -20 -20 -20 -20 -20 -20 -20 -20 -20 -20 -20 -20 -20 -20 -20 -20 -20 -20 -20 -20 -20 -20 -20 -20 -20 -20 -20 -20 -20 -20 -20 -20 -20 -20 -20 -20 -20 -20 -20
-20 -20 -20 -20 -20 -20 -20 -20 -20 -20 -20 -20 -20 -20 -20 -20 -20 -20 -20 -20 -20 -20 -20 -20 -20 -20 -20 -20 -20 -20 -20 -20 -20 -20 -20 -20 -20 -20 -20 -20 -20 -20 -20 -20
-20 -20 -20 -20 -20 -20 -20 -20 -20 -20 -20 -20 -20 -20 -20 -20 -20 -20 -20 -20 -20 -20 -20 -20 -20 -20 -20 -20 -20 -20 -20 -20 -20 -20 -20 -20 -20 -20 -20 -20 -19 -1 -18 -5
-20 -20 -20 -20 -20 -20 -20 -20 -20 -20 -20 -20 -20 -20 -20 -20 -20 -20 -20 -20 -20 -20 -20 -20 -20 -20 -20 -20 -20 -20 -20 -20 -20 -20 -20 -20 -20 -20 -20 -16 -20 -20 -20 -18
-20 -20 -20 -20 -20 -20 -20 -20 -20 -20 -20 -20 -20 -20 -20 -20 -20 -20 -20 -20 -20 -20 -20 -20 -20 -20 -20 -20 -20 -20 -20 -20 -20 -20 -20 -20 -20 -20 -20 -20 -20 -20 -20 -20
-3 -18 -20 -20 -20 -20 -20 -20 -20 -20 -20 -20 -20 -20 -20 -20 -20 -20 -20 -20 -20 -20 -20 -20 -20 -20 -20 -20 -20 -20 -20 -20 -20 -20 -20 -20 -20 -20 -20 -20 -20 -20 -20 -20
-20 8 -18 -20 -20 -20 -20 -20 -20 -20 -20 -20 -20 -20 -20 -20 -20 -20 -20 -20 -20 -20 -20 -20 -20 -20 -20 -20 -20 -20 -20 -20 -20 -20 -20 -20 -20 -20 -20 -20 -20 -20 -20 -20
-14 9 -18 -20 -20 -20 -16 -20 -20 -20 -20 -20 -20 -20 -20 -20 -20 -20 -20 -20 -20 -20 -20 -20 -20 -20 -20 -20 -20 -20 -20 -20 -20 -20 -20 -20 -20 -20 -20 -20 -20 -20 -20 -20
-20 -20 -20 -20 -20 -14 -20 -20 -20 -20 -20 -20 -20 -20 -20 -20 -20 -20 -20 -20 -20 -20 -20 -20 -20 -20 -20 -20 -20 -20 -20 -20 -20 -20 -20 -20 -20 -20 -20 -20 -20 -20 -20 -20

GFSCGP_prec_radar_033.txt.gz
Reflectivity
-20 -20 -20 -20 -20 -20 -20 -20 -5 7 10 -20 -20 -12 23 -20 -20 -20 -20 3 -20 -20 -20 -19 -20 -20 -20 -20 -20 -20 -20 -20 17 19 -20 -20 -20 -20 -20 -20 -20 -20 -20 -20
-20 -20 -20 -20 -20 -20 -20 -20 -20 3 -20 -20 -20 -14 14 -13 -20 -20 -20 -20 -20 -20 -20 -20 -20 -20 -20 -20 -20 -20 -20 -20 -20 -20 -20 -20 -20 -20 -20 -20 -19 -20 -20 -20
-20 -20 -20 -20 -20 -20 -20 -20 -7 -20 10 -20 -20 -20 -20 -20 -20 -20 -20 -20 -20 -20 -20 -20 -20 -20 -20 -20 -20 -20 -20 -20 -20 -20 -20 -20 -20 -20 -20 -20 -20 -20 -20 -20
-11 -20 -20 -20 -20 -20 -20 -20 6 -20 -20 10 -11 9 0 -20 -20 -20 -20 -20 -20 -20 -20 -20 -20 -20 -20 -20 -20 -20 -20 -20 -20 -20 -20 -20 -20 -20 -20 -20 -20 -20 -20 -20
-20 -20 -20 -20 -20 -20 -20 8 -20 -20 -20 -13 -20 -20 -20 -20 -20 -20 -20 -20 -20 -20 -20 -20 -20 -20 -20 -20 -20 -20 -20 -20 -20 -20 -20 -20 -20 -20 -20 -20 -20 -20 -20 -20
-20 -20 -20 -20 -20 -20 -20 -20 -20 -20 -4 -7 -9 -19 13 5 -20 -9 11 -20 -20 -20 -20 -20 -20 -20 -20 -20 -20 -20 -20 -20 -20 -20 -20 -20 -20 -20 -20 -8 -20 -17 -8 -4
3 -20 -20 -20 -20 -20 -20 -20 -20 -1 -20 -20 -1 -20 -10 21 -12 -20 -10 -20 -20 -20 -20 -20 -20 -20 -20 -20 -20 -20 -20 -20 -20 -20 -20 -20 -20 -20 -20 -20 -8 -7 -20 -5
-19 -20 -20 -20 -20 -20 -20 -20 -20 11 20 10 -18 -20 -20 -20 -18 -20 -20 -20 -20 -20 -20 -20 -20 -20 -20 -20 -20 -20 -20 -20 -20 15 -9 -20 -20 -20 -20 -20 -18 20 -9 8
-1 -19 -20 -20 -20 -20 -20 -20 -20 -17 -17 -19 7 -13 -20 -20 -20 -20 -20 -20 -20 -20 -20 -20 -20 -20 -20 -20 -20 -20 -20 -20 -20 -20 -15 25 -17 -20 -20 -20 -20 -13 -2 14
6 -18 -20 -20 -20 -20 -20 -20 -20 -16 15 -7 -20 -17 17 -19 -20 -20 -20 -20 -20 -20 -20 -20 -20 -20 -20 -20 -20 -20 -20 -20 -20 -20 -17 25 -18 -20 -17 -20 -15 -14 -14 -20
-2 5 -18 -20 -20 -20 -20 -20 -20 -12 -20 -20 -20 -14 4 -4 -20 -20 -20 -20 -20 -20 -20 -20 -20 -20 -20 -20 -20 -20 -20 -20 -20 -20 -20 -20 -20 11 -16 -15 -20 -20 -20 -20
1 -14 -18 -20 -20 -20 -8 -9 -20 -20 -13 -20 -20 -12 9 -20 -20 -20 -20 -20 -20 -20 -20 -20 -20 -20 -20 -20 -20 -20 -20 -20 -20 -20 -20 -20 29 -18 -13 30 -14 -12 23 -20
1 -6 -20 -20 -20 -20 -20 -20 -20 -20 0 -9 23 -20 2 -20 -20 -20 -20 -20 -20 -20 -20 -20 -20 -20 -20 -20 -20 -20 -20 -20 -20 -20 -20 -17 -18 29 16 2 18 22 -12 -9
2 -20 -20 -20 -20 -20 -20 -20 -20 -20 13 -20 -5 -20 6 17 -17 -20 -20 -20 -20 -20 -20 -20 -20 -20 -20 -20 -20 -20 -20 -20 -20 -20 -20 -20 -20 1 9 18 -9 -20 -20 -12
-20 -20 -20 -7 -20 -20 -20 -20 -20 -20 -20 -20 -20 -20 -20 -18 -9 -20 -20 -20 -20 -20 -20 -20 -20 -20 -20 -20 -20 -20 -20 -20 -20 -20 -20 -17 -17 -20 -14 6 1 -20 -20 -20
-20 -20 -20 -8 -20 -20 -20 -20 -20 -20 -20 -20 -20 -20 -20 -5 -7 -20 -20 -20 -20 -20 -20 -20 -20 -20 -20 -20 -20 -20 -20 -20 23 22 -20 -20 -20 -20 -20 -20 -20 -20 -20 -20
-20 -20 -7 -12 -20 -20 -20 -20 -20 -20 -20 -20 -20 -20 -20 -20 -20 -20 -20 -20 -20 -20 -20 -20 -20 -20 -20 -20 -20 -9 8 -5 -20 -20 -20 -20 -20 -20 -20 -20 -20 -20 -20 -20
-20 -20 -0 4 -19 7 -20 -20 -20 -20 -20 -20 -20 -20 -20 -20 -20 -20 -20 -20 -20 -20 -20 -20 -20 -20 -20 -20 -20 -20 -20 -20 -20 -20 -20 -20 -20 -20 -20 -20 -20 -20 -20 -20
-20 1 -3 18 -20 -20 -20 -20 -20 -20 -20 -20 -20 -20 -20 -20 -20 -20 -20 -20 -20 -20 -20 -20 -20 -20 -20 -20 -20 -20 -20 -20 -20 -20 -20 -20 -20 -20 -20 -20 -20 -20 -20 -20
-11 -5 20 1 -20 -20 -20 -20 -20 -20 -20 -20 -20 -20 -20 -20 -20 -20 -20 -20 -20 -20 -20 -20 -20 -20 -20 -20 -20 -20 -20 -20 -20 -20 -20 -20 -20 -20 -20 -20 -20 -18 -19 -20
-6 -12 -20 23 -3 -20 -20 -20 -20 -20 -20 -20 -20 -20 -20 -20 -20 -20 -20 -20 -20 -20 -20 -20 -20 -20 -20 -20 -20 -20 -20 -20 -20 -20 -20 -20 -20 -20 -20 -20 -20 -20 -20 -20
14 -6 -19 18 12 -20 -19 -20 -20 -20 -20 -20 -20 -20 -20 -20 -20 -20 -20 -20 -20 -20 -20 -20 -20 -20 -20 -20 -20 -20 -20 -20 -20 -20 -20 -20 -20 -20 -20 -20 -20 -20 -20 -20
20 28 25 -18 -20 -15 -11 -20 -20 -20 -20 -20 -20 -20 -20 -20 -20 -20 -20 -20 -20 -20 -20 -20 -20 -20 -20 -20 -20 -20 -20 -20 -20 -20 -20 -20 -20 -20 -20 -20 -20 -20 -20 -20
3 19 -2 -12 -20 -20 -20 -20 -20 -20 -20 -20 -20 -20 -20 -20 -20 -20 -20 -20 -20 -20 -20 -20 -20 -20 -20 -20 -20 -20 -20 -20 -20 -20 -20 -20 -20 -20 -20 -20 -20 -20 -20 -20
-14 -1 1 -20 -20 -20 -20 -20 -20 -20 -20 -20 -20 -20 -20 -20 -20 -20 -20 -20 -20 -20 -20 -20 -20 -20 -20 -20 -20 -20 -20 -20 -20 -20 -20 -20 -20 -20 -20 -20 -20 -20 -20 -20
-16 -17 -17 -20 4 14 -19 15 -3 -20 -20 -20 -20 -20 -20 -20 -20 -20 -20 -20 -20 -20 -20 -20 -20 -20 -20 -20 -20 -20 -20 -20 -20 -20 -20 -20 -20 -20 -20 -20 -20 -20 -20 -20

GFSCGP_prec_radar_036.txt.gz
Reflectivity
-20 -20 -20 -20 -20 -20 -20 -20 -9 -18 -20 -20 -20 17 -20 29 -8 -20 -20 -20 -20 -20 -20 -20 -20 -20 -20 -20 -0 -20 -18 -8 -17 -20 -20 13 -20 -20 -20 -20 -20 -20 14 -5
-20 -20 -20 -20 -20 -20 -20 -20 -20 -4 -20 -20 -20 6 -20 1 -7 -20 -20 -20 -17 -20 -20 -20 -20 -20 -20 -20 -20 -19 -20 -20 -20 -20 -20 -20 -20 -20 -20 -20 -20 28 35 -11
-20 -20 -20 -20 -20 -20 -20 -20 -20 -1 -9 -20 -20 -20 -7 -0 -20 -20 -20 -20 -20 -20 -20 -20 -20 -20 -20 -20 -20 -20 -20 -20 -20 -20 -20 -20 -20 -20 -20 -20 -20 -20 -1 -20
-20 -20 -20 -20 -20 -20 -20 -20 -20 -20 -20 -20 -20 -20 -17 14 -18 -20 -20 -20 -20 -20 -20 -20 -20 -20 -20 -20 -20 -20 -20 -20 -20 -20 -20 -20 -20 -20 -20 -20 -20 -20 -20 -20
-20 -20 -3 -20 -20 -20 -20 -20 -20 -20 -16 -20 -20 -20 -20 -20 -20 -20 -20 -20 -20 -20 -20 -20 -20 -20 -20 -20 -20 -20 -20 -20 -20 -20 -20 2 -20 -20 -20 -20 -20 -20 -20 -20
-20 -20 -20 -20 -20 -20 -20 -20 -20 -20 -20 -20 -20 -9 -20 -20 -20 12 -1 -0 -16 -20 -20 -20 -20 -20 -20 -20 -20 -20 -20 -20 -20 -20 -20 -20 10 -20 -20 -20 -20 -20 -20 -20
-20 -20 -20 -20 -20 -20 -20 -20 -20 -20 -20 -20 -11 10 -20 -20 -8 13 -15 -9 31 -19 -20 -20 -20 -20 -20 -20 -20 -20 -20 -20 -20 -20 -20 -20 -20 -20 -20 -20 -18 -3 -20 -20
-20 -20 -20 -20 -6 -20 -20 -20 -20 7 16 -14 12 -18 -20 -20 -20 -15 -20 -20 -20 -20 -20 -20 -20 -20 -20 -20 -20 -20 -20 -20 -20 -20 -20 -20 6 -20 -3 -4 32 6 28 -2
-20 -20 -20 -20 -20 -20 -19 -20 -20 -20 9 -11 27 7 -13 -20 -20 -20 -20 -20 -20 -20 -20 -20 -13 -20 -20 -20 -20 -20 -20 -20 -20 -20 -20 -20 -20 -20 19 37 34 -18 25 -5
-20 -20 -15 -12 -20 -20 -16 -18 10 -9 -0 9 -20 -20 1 8 -11 -20 -20 -20 -20 -20 -20 -20 1 -20 -20 -20 -20 -20 -20 -18 -20 -20 -20 -20 -20 -19 -1 40 19 2 29 -2
-20 -20 -20 -2 1 1 -7 -20 -20 8 -20 -20 -20 -20 -20 9 11 -20 -20 -20 -20 -20 -20 -20 -20 -19 -17 -20 -6 32 24 34 -20 -20 -20 -9 15 8 33 -7 -16 25 2 15
-20 -20 -20 -20 5 3 -19 -20 -20 -20 3 -14 -20 -20 -20 6 15 -13 -20 -20 -20 -20 -20 -20 -20 -20 -20 -20 -20 -20 -20 -20 -20 -20 36 13 -4 -2 -19 37 -7 -16 24 -5
-20 -20 -20 -20 3 4 -19 -19 -5 -20 -4 -18 -20 -20 -17 2 -9 -20 -20 -20 -20 -20 -20 -20 -20 -20 -20 -20 -20 -20 -20 -20 -19 -20 -14 -7 -5 -20 8 -13 -18 -2 26 13
7 -16 -20 -20 -20 9 8 -11 -18 -15 -11 -13 -20 -20 -19 8 -6 -19 -12 3 -19 -20 -20 -20 -20 -20 -20 -20 -20 -20 -20 -5 -18 -20 -20 -20 -20 -11 -19 -15 20 4 1 -14
15 9 -20 -20 -20 -18 0 -20 -20 -20 16 11 -20 13 -20 -11 -19 16 29 3 4 -20 -20 -20 -20 -20 -20 -20 -20 -20 -20 3 -16 -17 -20 -20 -20 -20 -20 2 -20 0 -15 -15
9 -20 -20 -20 -17 -20 -20 7 -9 -20 -20 -3 -2 -20 -20 -20 16 -10 -20 1 -17 -20 -20 -20 -20 -20 -20 -20 -20 -20 -20 -20 17 -20 -20 -20 22 -20 -20 -20 -20 -20 -20 -20
-20 -20 -3 -12 -20 -20 -19 -20 -20 -20 -20 -20 -20 -20 -20 -20 -20 -20 -20 -20 -20 -20 -20 -20 -20 -20 -20 -20 -20 -20 -20 -20 -20 -20 -20 -20 -20 -20 -20 -20 -20 -20 -20 -20
-20 -20 -20 15 -20 -20 -20 -20 -18 -20 -20 -20 -20 -20 -20 -20 -20 -20 -7 -2 -20 -20 -20 -20 -20 -20 -20 -20 -20 -20 -20 -20 -20 -20 -20 -20 -20 -20 -20 -20 -20 -20 -20 -20
-18 -20 7 9 -20 -20 -20 -19 -8 -20 -20 -20 -20 -20 -20 -20 -20 -20 -20 -20 -20 -20 -20 -20 -20 -20 -20 -20 -20 -20 -20 -20 -20 -20 -20 -20 -20 -20 -20 -20 -20 -20 -20 -20
29 -16 20 8 -16 -20 -20 -5 -1 -20 -20 -20 -13 -20 -20 -20 -20 -20 -20 -20 -20 -20 -20 -20 -20 -20 -20 -20 -20 -20 -20 -20 -20 -20 -20 -20 -20 -20 -20 -20 -20 -20 -20 -20
30 -14 17 7 -4 -18 -20 10 -8 8 -11 -20 -9 -20 -17 0 -15 -20 -20 -20 -20 -20 -20 -20 -20 -20 -20 -20 -20 -20 -20 -20 -20 -20 -20 -20 -20 -20 -20 -20 -20 -20 -20 -20
24 35 17 20 8 -20 1 9 -1 -20 -13 7 -20 5 -18 -20 -20 -20 -20 -20 -20 -20 -20 -20 -20 -20 -20 -20 -20 -20 -20 -20 -20 -20 -20 -20 -20 -20 -20 -20 -20 -20 -20 -20
-1 9 27 -16 0 -20 17 13 -5 -17 -20 -20 -20 -20 -20 -20 -20 -20 -20 -20 -20 -20 -20 -20 -20 -20 -20 -20 -20 -20 -20 -20 -20 -20 -20 -20 -20 -20 -20 -20 -20 -20 -20 -20
-6 23 -17 12 -18 29 16 13 -20 -3 -20 -20 -20 -20 -20 -20 -20 -20 -20 -20 -20 -20 -20 -20 -20 -20 -20 -20 -20 -20 -20 -20 -20 -20 -20 -20 -20 -20 -20 -20 -20 -20 -20 -20
1 25 21 1 -16 2 16 21 16 -5 -20 -20 -20 -20 -20 -20 -20 -20 -20 -20 -20 -20 -20 -20 -20 -20 -20 -20 -20 -20 -20 -20 -20 -20 -20 -20 -20 -20 -20 -20 -20 -20 -20 -20
2 -2 -10 -6 19 21 24 29 11 -19 -20 -20 -20 -20 -20 -20 -20 -20 -20 -20 -20 -20 -20 -20 -20 -20 -20 -20 -20 -20 -20 -20 -20 -20 -20 -20 -20 -20 -20 -20 -20 -20 -20 -20

GFSCGP_prec_radar_039.txt.gz
Reflectivity
-20 -20 -20 -20 -20 -20 -20 -20 -20 -20 -20 10 -20 -20 -20 -20 -0 -20 -20 -20 -20 -20 -20 -20 -20 -20 -20 -20 -20 -20 -20 -20 -20 -20 -20 -20 -20 -20 -20 -20 -16 -15 -20 -20
-20 -20 -20 -20 -20 -20 -20 -20 -20 -20 -2 -20 -20 -20 -20 -20 -20 -18 -20 -20 -20 -20 -20 -20 -20 -20 -20 -20 -20 -20 -20 -20 -20 -20 -20 -20 -20 -20 -20 -20 -20 -20 -19 7
-20 -20 -20 -20 -20 -20 -20 -20 -20 -20 -20 -20 -20 -19 -20 -20 -20 -20 -20 -20 -20 -20 -20 -20 -20 -20 -20 -20 -20 -20 -20 -20 -20 -20 -20 -20 -20 -20 -20 -20 -20 -20 -20 -20
-20 -20 -20 -20 -20 -20 -20 -20 -20 -20 -20 -20 11 1 -20 -20 -16 -20 -20 -20 -20 -20 -20 -20 -20 -20 -20 -20 -20 -20 -20 -20 -20 -20 -20 -20 -20 -20 -20 -20 -20 -20 -20 -20
-20 -20 -20 -20 -20 -20 -20 -20 -20 -20 -20 -20 -20 -3 -15 -20 -20 -20 -20 -20 -20 -20 -20 -20 -20 -20 -20 -20 -20 -20 -20 -20 -20 -20 -20 -20 -20 -20 -20 -20 -20 -20 -20 -20
-20 -20 -20 -20 -20 -20 -20 -20 -20 -20 -20 -20 -20 -20 5 -20 -20 -20 27 -20 -20 -20 -20 -20 -20 -20 -20 -20 -20 -20 -20 -20 -20 -20 -20 -20 -20 -20 -20 -20 -20 -20 5 -4
-20 -20 -20 -20 -20 -20 -20 -20 -20 -20 -20 -20 -20 -20 -20 -12 -20 4 -20 -20 -20 -20 -20 -20 -20 -20 -20 -20 -20 -20 -20 -20 -20 -20 -20 -20 -20 -20 -20 -20 -20 -20 -20 30
-20 -20 -20 -20 -20 -20 -20 -20 -20 -20 -20 -20 -20 -20 -20 -2 0 -20 -20 -20 -20 -20 -20 -20 -20 -20 -20 -20 -20 -20 -20 -20 -20 -20 -20 -20 -20 -20 -20 -20 -20 -11 27 34
-20 -20 -20 -20 -20 -20 -20 -20 -20 -20 -20 -20 -20 -20 -20 -19 -20 -20 -20 -20 -20 -20 -20 -20 -20 -20 -20 -20 -20 -20 -20 -20 -20 -20 -20 -20 -20 -20 -20 -20 -20 30 -4 19
-20 -20 -20 -20 -20 -20 -20 -20 -20 -20 -20 -20 -20 -20 -20 6 -20 -13 -20 -20 -20 -20 -20 -20 -20 -20 -20 -20 -20 -20 -20 -20 -16 -15 -15 -20 -20 -20 -20 -20 7 -2 -6 12
-20 -20 -20 -20 -20 -20 -20 -20 -20 -20 1 -20 -20 -20 -20 -17 24 -11 -20 -20 -20 -20 -20 -20 -17 -20 -20 -20 -20 -20 -19 24 30 16 -1 2 -19 -20 -8 24 33 31 33 28
-20 -20 -20 -20 -20 -20 -20 -20 -20 -20 -20 -20 -13 4 -20 -12 -2 -20 11 -20 -20 -20 -20 -20 -20 -20 -20 -19 14 15 0 -19 6 30 -8 -19 21 32 49 33 42 46 25 12
-17 -20 -20 -20 -20 -20 -20 -20 -20 -20 -20 -20 -20 -20 -20 -20 -16 -19 -20 4 -20 -20 -20 -20 -20 -20 -20 -20 -20 -20 -20 -14 27 2 25 31 33 28 28 12 34 -7 5 -20
8 10 -20 -20 -20 -20 -20 -20 -20 -20 -20 -20 -20 -20 -20 -20 -20 -20 -20 -20 -20 -20 -20 -20 -20 -20 -20 -20 -20 -20 -20 7 -13 -3 17 4 -10 -20 -20 -20 -17 -14 -7 -14
12 25 -6 -20 -20 -20 -1 -20 -20 -20 -20 -20 -20 -20 -20 -20 -11 13 16 -20 4 -6 -8 -20 -20 -20 -20 -20 -20 -20 -20 0 -20 -20 -20 -20 -20 -20 -20 -4 15 -20 2 25
9 18 -12 -20 -20 -20 -20 -20 -20 -20 -20 -20 -20 -20 -20 -20 -20 13 -20 -20 -17 -20 -20 -20 -20 -20 -20 -20 -20 -20 -20 -20 -20 -20 -20 -20 -20 -20 -2 -20 -20 11 -20 -20
21 -15 -20 -13 -13 -19 1 -20 -20 -20 -20 -20 -20 -20 -20 -20 -9 -15 -20 -17 -20 -20 -20 -20 -20 -20 -20 -20 -20 -20 -20 -20 -20 -20 -20 -20 -20 -20 -20 -20 -20 -20 -20 -20
39 28 -20 -20 -6 17 17 1 -20 -20 -20 -20 -20 -20 -20 -16 -13 20 12 14 -13 -20 -20 -20 -20 -20 -20 -20 -20 -20 -20 -20 -20 -20 -20 -20 -20 -20 -20 -20 -20 -20 -20 -20
19 41 16 3 -13 16 -19 -20 -20 -20 -20 -20 -20 -20 -20 -20 -20 -15 -20 -20 -20 -20 -20 -20 -20 -20 -20 -20 -20 -20 -20 -20 -20 -20 -20 -20 -20 -20 -20 -20 -20 -20 -20 -20
19 42 24 0 9 -20 -20 -20 -20 -20 -20 -20 -20 -20 -20 -20 -20 -20 -20 -20 -20 -20 -20 -20 -20 -20 -20 -20 -20 -20 -20 -20 -20 -20 -20 -20 -20 -20 -20 -20 -20 -20 -20 -20
6 10 24 7 14 -20 -20 -20 -16 -13 -19 -20 3 -20 -20 -20 -20 -20 -20 -20 -20 -20 -20 -20 -20 -20 -20 -20 -20 -20 -20 -20 -20 -20 -20 -20 -20 -20 -20 -20 -20 -20 -20 -20
-9 16 25 40 -1 -20 -5 -20 8 5 -8 1 -8 -20 -20 -20 -20 -20 -20 -20 -20 -20 -20 -20 -20 -20 -20 -20 -20 -20 -20 -20 -20 -20 -20 -20 -20 -20 -20 -20 -20 -20 -20 -20
-20 0 19 20 25 18 -4 -7 -10 3 4 -11 -16 -20 -20 -20 -20 -20 -20 -20 -20 -20 -20 -20 -20 -20 -20 -20 -20 -20 -20 -20 -20 -20 -20 -20 -20 -20 -20 -20 -20 -20 -20 -20
-20 -11 16 -2 -15 1 11 -8 -13 -11 7 20 28 19 -2 -20 -20 -20 -20 -20 -20 -20 -20 -20 -20 -20 -20 -20 -20 -20 -20 -20 -20 -20 -20 -20 -20 -20 -20 -20 -20 -20 -20 -20
-20 5 12 -6 12 22 -20 -20 -18 17 2 -20 -20 23 -20 -14 -20 -20 -20 -20 -20 -20 -20 -20 -20 -20 -20 -20 -20 -20 -20 -20 -20 -20 -20 -20 -20 -20 -20 -20 -20 -20 -20 -20
-20 -6 -12 3 17 16 -19 4 31 7 22 -15 -13 13 -11 -20 -17 -20 -20 -20 -20 -20 -20 -20 -20 -20 -20 -20 -20 -20 -20 -20 -20 -20 -20 -20 -20 -20 -20 -20 -20 -20 -14 -18

GFSCGP_prec_radar_042.txt.gz
Reflectivity
-20 -20 -20 -20 -20 -20 -20 -20 -20 -20 -20 -20 -20 -20 -20 -20 -20 -20 -20 -20 -20 -20 -20 -20 -20 -20 -20 -20 -20 -20 -15 -20 -13 -20 -20 -20 -20 -20 -20 -20 -20 -20 -20 -20
-20 -20 -20 -20 -20 -20 -20 -20 -20 -20 -20 -20 -20 -20 -20 -20 -20 -20 -20 -20 -20 -20 -20 -20 -20 -20 -20 -20 -20 -20 -20 -20 -20 -20 -20 -20 -20 -20 -20 -20 -20 -20 -20 -20
-20 -20 -20 -20 -20 -20 -20 -20 -20 -20 -20 -20 -20 -20 -20 -20 -20 -20 -20 -20 -20 -20 -20 -20 -20 -20 -20 -20 -20 -20 -20 -20 -20 -20 -20 -20 -20 -20 -20 -20 -20 -20 -20 -20
-20 -20 -20 -20 -20 -20 -20 -20 -20 -20 -20 -20 -20 -20 -20 -20 -20 -20 -20 -20 -20 -20 -20 -20 -20 -20 -20 -20 -20 -20 -20 -20 -20 -20 -20 -20 -20 -20 -20 -20 -20 -20 -20 -20
-20 -20 -20 -20 -20 -20 -20 -20 -20 -20 -20 -20 -20 -20 -20 -20 -20 -20 -20 -20 -20 -20 -20 -20 -20 -20 -20 -20 -20 -20 -20 -20 -20 -20 -20 -20 -20 -20 -20 -20 -20 -20 -20 -20
-20 -20 -20 -20 -20 -20 -20 -20 -20 -20 -20 -20 -20 -20 -20 -20 -20 -20 -20 -20 -20 -20 -20 -20 -20 -20 -20 -20 -20 -20 -20 -20 -20 -20 -20 -20 -20 -20 -20 -20 -20 -20 -20 -20
-20 -20 -20 -20 -20 -20 -20 -20 -20 -20 -20 -20 -20 -20 -20 -20 -20 -20 -20 -20 -20 -20 -20 -20 -20 -20 -20 -20 -20 -20 -20 -20 -20 -20 -20 -20 -20 -20 -20 -20 -20 -20 -20 -20
-20 -20 -20 -20 -20 -12 -20 -20 -20 -20 -20 -20 -20 -20 -20 -20 -20 -20 -20 -20 -20 -20 -20 -20 -20 -20 -20 -20 -20 -20 -20 -20 -20 -20 -20 -20 -20 -20 -20 -20 -20 -12 -20 -14
-20 -20 -20 -20 -20 -20 -20 -20 -20 -20 -20 -20 -20 -20 -20 -20 -20 -20 -20 -20 -20 -20 -20 -20 -20 -20 -20 -20 -20 -20 -20 -20 -20 -20 -20 -20 -20 -20 -20 -20 -20 -5 -20 -2
-20 -20 -20 -20 -20 -20 -20 -20 -20 -20 -20 -20 -20 -20 -20 -20 -20 -20 -20 -20 -20 -20 -20 -20 -20 -20 -20 -20 -20 -20 -20 -20 -20 -20 -20 -8 -20 -20 -20 -20 -20 27 -5 -4
-20 -20 -20 -20 -20 -20 -20 -20 -20 -20 -20 -20 -20 -20 -20 -20 -20 -20 -20 -11 -20 -20 -20 -20 -20 -20 -20 -20 -20 -20 -20 -20 20 3 18 13 24 25 2 -20 14 26 18 29
-20 -20 -20 -20 -20 -20 -20 -20 -20 -20 -20 -20 -20 -20 -20 -20 -20 -20 -20 -19 -19 -5 -20 -20 -20 -20 -20 -20 -20 -20 -19 7 -15 -17 27 23 26 30 27 29 38 30 42 39
-15 -20 -20 -20 -20 -20 -20 -20 -20 -20 -20 -20 -20 -12 -19 -20 -20 -20 -20 -20 -0 -19 -20 -20 -20 -20 -20 -20 -20 -20 -20 -20 13 -16 -11 28 30 40 19 30 29 5 18 42
-8 9 -20 -20 -20 -20 -20 -20 -20 -20 -20 -20 -20 -20 -17 -20 -20 -20 -20 -20 -20 -20 -20 -20 -20 -20 -20 -20 -20 -20 -20 -20 -20 -20 -3 -7 6 2 2 -4 9 22 -15 -3
5 22 -14 -20 -20 -20 -20 -20 -20 -20 -20 -20 -20 -20 -20 -20 -20 -20 -20 -20 -20 -20 -20 -20 -20 -20 -20 -20 -20 -20 -20 -20 -20 -20 -20 -20 -20 18 -19 -17 -17 -20 -20 -1
13 -3 24 -20 -20 -20 -20 -20 -20 -20 -20 -20 -20 -20 -20 -20 -20 -20 -20 -20 -20 -20 -20 -20 -20 -20 -20 -20 -20 -20 -20 -20 -20 -20 11 -20 -20 -20 -20 -20 -20 6 17 14
10 6 9 -12 -20 -19 -16 -20 -20 -20 -20 -20 -20 -20 -20 -20 -20 -20 -20 -20 -20 -20 -20 -20 -20 -20 -20 -20 -20 -20 -20 -20 -20 -20 -20 -1 -20 -20 -20 28 -17 -7 6 -2
-20 -10 31 22 -20 7 13 -20 -20 -20 -20 -12 -20 -20 -20 -20 -20 -20 -20 -20 -20 -20 -20 -20 -20 -20 -20 -20 -20 -20 -20 -20 -20 -18 -4 6 -20 5 4 -20 -20 -20 -20 -20
-20 -4 11 12 14 24 -20 -20 -20 -20 -20 -20 -20 -20 -20 -20 -20 -20 -20 -20 -20 -20 -20 -20 -20 -20 -20 -20 -20 -20 -20 -20 -13 19 21 19 20 -12 27 -20 -20 -20 -20 -20
-20 2 5 14 11 27 3 -20 -20 -18 -20 -20 -20 11 10 -20 -20 -20 -20 -20 -20 -20 -20 -20 -20 -20 -20 -20 -20 -20 -20 -20 -20 -20 -20 -5 -14 -20 -20 -20 -20 -20 -20 -20
7 -3 -7 13 17 -9 29 6 -20 11 8 1 8 10 -14 -20 -20 -20 -20 -20 -20 -20 -20 -20 -20 -20 -20 -20 -20 -20 -20 -20 -20 -20 -20 -20 -20 -20 -20 -20 -20 -20 -20 -20
-20 -15 -12 12 12 -14 21 24 4 -1 -20 11 12 2 -18 -20 -20 -20 -20 -20 -20 -20 -20 -20 -20 -20 -20 -20 -20 -20 -20 -20 -20 -20 -20 -20 -20 -20 -20 -20 -20 -20 -20 -20
-20 -20 -4 13 8 0 -7 29 -19 -20 -20 -4 -20 -20 -20 -20 -20 -20 -20 -20 -20 -20 -20 -20 -20 -20 -20 -20 -20 -20 -20 -20 -20 -20 -20 -20 -20 -20 -20 -20 -20 -20 -20 -20
-20 -19 -20 2 9 -9 -20 10 9 7 -12 -20 -20 -20 -20 -20 -20 -16 -20 -20 -20 -20 -20 -20 -20 -20 -20 -20 -20 -20 -20 -20 -20 -20 -20 -20 -20 -20 -20 -20 -20 -20 -20 -20
-1 -13 -20 -11 1 -15 -18 -1 31 6 -20 -20 -15 -20 -20 -20 -7 -20 14 -15 -20 -18 -20 -20 -20 -20 -20 -20 -20 -20 -20 -20 -20 -20 -20 -20 -20 -20 -20 -20 -20 -20 -20 -20
-20 -14 20 -15 0 -4 -20 -3 18 2 -20 -20 -20 -20 -20 -18 6 -4 -12 -10 -20 -20 -20 -20 -20 -20 -20 -20 -20 -20 -20 -20 -20 -20 -20 -20 -20 -20 -20 -20 -20 -20 -20 -20

GFSCGP_prec_radar_045.txt.gz
Reflectivity
-20 -20 -20 -20 -20 -20 -20 -20 -20 -20 -20 -20 -20 -20 -20 -20 -20 -20 -20 -20 -20 -20 -20 -20 -20 -7 -20 -18 7 14 -1 9 26 22 8 13 9 8 2 -9 -9 12 -20 -20
-20 -20 -20 -20 -20 -20 -20 -20 -20 -20 -20 -20 -20 -20 -20 -20 -20 -20 -20 -20 -20 -20 -20 -20 -20 -20 -20 -20 -20 -17 21 -20 -20 -5 -11 -1 11 -17 -20 -15 -4 -17 -20 -20
-20 -20 -20 -20 -20 -20 -20 -20 -20 -20 -20 -20 -20 -20 -20 -20 -20 -20 -20 -20 -20 -20 -20 -20 -20 -20 -20 -20 -20 -20 -18 9 -1 -14 -20 -20 -20 -20 -20 -20 -20 -20 -20 -20
-20 -20 -20 -20 -20 -20 -20 -20 -20 -20 -20 -20 -20 -20 -20 -20 -20 -20 -20 -20 -20 -20 -20 -20 -20 -20 -20 -20 -20 -20 -20 -20 -20 -20 -20 -20 -20 -20 -20 -20 -20 -20 -20 -20
-20 -20 -20 -20 -20 -20 -20 -20 -20 -20 -20 -20 -20 -20 -20 -20 -20 -20 -20 -20 -20 -20 -20 -20 -20 -20 -20 -20 -20 -20 -20 -20 -20 -20 -20 -20 -20 -20 -20 -20 -20 -20 -20 -20
-20 -20 -20 -20 -20 -20 -20 -20 -20 -20 -20 -20 -20 -20 -20 -20 -20 -20 -20 -20 -20 -20 -20 -20 -20 -20 -20 -20 -20 -20 -20 -20 -20 -20 -20 -20 -20 -20 -20 -20 -20 -20 -20 -20
-20 -20 -20 -20 -20 -20 -20 -20 -20 -20 -20 -20 -20 -20 -20 -20 -20 -20 -20 -20 -20 -20 -20 -20 -20 -20 -20 -20 -20 -20 -20 -20 -20 -20 -20 -20 -20 -20 -20 -20 -20 -20 -20 -20
-20 -20 -20 -20 -20 -20 -20 -20 -20 -20 -20 -20 -20 -20 -20 -20 -20 -20 -20 -20 -20 -20 -20 -20 -20 -20 -20 -20 -20 -20 -20 -20 -20 -20 -20 -20 -20 -20 -20 -20 -20 -17 -15 -16
-20 -20 -20 -20 -20 -20 -20 -20 -20 -20 -20 -20 -20 -20 -20 -20 -20 -20 -20 -20 -20 -20 -20 -20 -20 -20 -20 -20 -20 -20 -20 -20 -20 -20 -20 -20 -20 -20 -20 -20 -20 -20 -20 -5
-20 -20 -20 -20 -20 -20 -20 -20 -20 -20 -20 -20 -20 -20 -20 -20 -20 -20 -20 -20 -20 -20 -20 -20 -20 -20 -20 -20 -20 -15 -20 -20 -20 -20 -20 -20 -20 -20 -7 -19 -20 -20 -20 -20
-20 -20 -20 -20 -20 -20 -20 -20 -20 -20 -20 -20 -20 -20 -20 -20 -20 -20 -20 -20 -20 -20 -20 -20 -20 -20 -20 -20 -20 -20 19 -18 -20 -13 11 5 -2 9 -1 -7 12 -1 -20 -20
-20 -20 -20 -20 -20 -20 -20 -20 -20 -20 -20 -20 -20 -20 -20 -20 -20 -20 -20 -20 -20 -20 -20 -20 -20 -20 -20 -20 -20 -20 -20 -20 -20 23 -12 -2 18 28 29 38 28 21 35 38
-10 -18 -20 -20 -20 -20 -20 -20 -20 -20 -20 -20 -20 -20 -19 -20 -20 -20 -20 -20 -20 -20 -20 -20 -20 -20 -20 -20 -20 -20 -20 -20 -20 -20 -20 19 21 22 10 10 11 14 -5 4
-20 -10 -5 9 -20 -20 -20 -20 -20 -20 -20 -20 -20 -20 -20 -20 -20 -20 -20 -20 -20 -20 -20 -20 -20 -20 -20 -20 -20 -20 -20 -20 -20 -20 -20 2 -17 -2 18 30 -18 -20 4 -19
-20 -20 -20 -20 -7 -20 -20 -20 -20 -20 -20 -20 -20 -20 -20 -20 -20 -20 -20 -20 -20 -20 -20 -20 -20 -20 -20 -20 -20 -20 -20 -20 -20 -20 -20 -20 -20 -20 -16 -7 -19 -20 6 10
12 -5 -6 -20 -19 -3 -20 -20 -20 -20 -20 -20 -20 -20 -20 -20 -20 -20 -20 -20 -20 -20 -20 -20 -20 -20 -20 -20 -20 -20 -20 -20 -20 -20 -20 -20 -20 -20 -20 -20 -20 -20 -20 -13
-10 -10 -4 3 -20 -7 -20 -20 -20 -20 -20 -20 -20 -20 -14 -20 -20 -20 -20 -20 -20 -20 -20 -20 -20 -20 -20 -20 -20 -20 -20 -20 -20 -20 -20 -20 -20 21 -20 -20 -18 -20 3 7
-20 -20 -19 -19 -17 4 -0 -20 -20 -20 -20 -16 -20 -18 13 -15 -20 -20 -20 -20 -20 -20 -20 -20 -20 -20 -20 -20 -20 -20 -20 -20 -20 -20 -20 -20 -18 -20 -20 -20 -18 -1 26 -5
-20 -20 -20 -20 -20 -10 3 -19 1 -5 -20 -20 8 -4 -16 -13 -19 -20 -20 -20 -20 -20 -20 -20 -20 -20 -20 -20 -20 -20 -20 -20 -20 -20 -20 -20 12 19 5 -16 -18 16 -20 -20
-18 -20 -20 -12 -20 -20 -20 -20 13 11 -9 -20 -20 -9 -20 -20 -20 -20 -20 -20 -20 -20 -20 -20 -20 -20 -20 -20 -20 -20 -20 -20 -20 -20 -20 -20 -20 -20 -20 -20 -20 11 -20 -20
-7 -13 -16 -3 -20 -20 -20 0 -1 -17 -5 -20 -20 -20 -20 -20 -20 -20 -19 -20 -20 -20 -20 -20 -20 -20 -20 -20 -20 -20 -20 -20 -20 -18 9 -20 -20 -20 -20 -20 -20 -20 -20 -20
-20 -15 -20 -13 -4 -20 -17 0 -13 -0 16 -20 -20 -20 -20 -20 -20 -20 -20 -20 -20 -20 -20 -20 -20 -20 -20 -20 -20 -20 -20 -20 -20 -19 -20 -20 -20 -20 -20 -20 -20 -20 -20 -20
-20 -20 -20 -20 -20 -20 -1 7 -10 14 26 -18 -20 -20 -20 -20 -20 -20 -20 -20 -20 -20 -20 -20 -20 -20 -20 -20 -20 -20 23 -20 -20 -20 -20 -20 -20 -20 -20 -20 -20 -20 -20 -20
-20 -20 -20 -20 -20 -20 1 6 4 7 5 22 5 -20 -20 -20 -20 -20 -20 -20 -20 -20 -20 -20 -15 -17 -20 -20 -20 -20 21 -20 -20 -20 -20 -20 -20 -20 -20 -20 -20 -20 -20 -20
-20 -20 -20 -20 -20 -16 2 -2 10 6 12 33 4 -15 -11 1 0 -20 -20 -20 -20 -20 -20 -0 5 -20 -20 -20 -20 -20 -20 -20 -20 -20 -20 -20 -20 -20 -20 -20 -20 -20 -20 -15
-20 -16 -9 -20 -20 -18 -17 4 7 8 -20 13 23 -11 -10 -20 -20 -17 -11 3 -20 -10 11 -20 -20 -20 -20 -20 -20 -20 -20 -20 -20 -20 -20 -20 -20 -20 -20 -20 -19 -1 -20 -20

GFSCGP_prec_radar_048.txt.gz
Reflectivity
-20 -20 -20 -18 -20 -20 -20 -20 -20 -20 -20 -20 -20 -20 -20 -20 -20 -20 -20 -20 -20 -20 -20 -20 -20 -20 -20 -20 1 -3 13 -5 24 24 20 15 5 -12 -20 7 -20 -4 10 5
-20 -20 -20 -20 -20 -20 -20 -20 -20 -20 -20 -20 -20 -20 -20 -20 -20 -20 -20 -20 -20 -20 -20 -20 -20 -20 -20 -20 -20 -20 0 8 15 26 25 27 12 18 13 19 27 18 -8 10
-20 -20 -20 -20 -20 -20 -20 -20 -20 -20 -20 -20 -20 -20 -20 -20 -20 -20 -20 -20 -20 -20 -20 -20 -20 -20 -20 -20 -20 -20 -20 -17 12 21 25 17 20 15 9 16 -3 -20 -20 -11
-20 -20 -20 -20 -20 -20 -20 -20 -20 -20 -20 -20 -20 -20 -20 -20 -20 -20 -20 -20 -20 -20 -20 -20 -20 -20 -20 -20 -20 -20 -20 -20 -18 -13 -18 -20 -20 -13 -8 -10 -20 -20 -20 -20
-20 -20 -20 -20 -20 -20 -20 -20 -20 -20 -20 -20 -20 -20 -20 -20 -20 -20 -20 -20 -20 -20 -20 -20 -20 -20 -20 -20 -20 -20 -20 -20 -20 -20 -20 -20 -20 -20 -20 -20 -20 -20 -20 -20
-20 -20 -20 -20 -20 -20 -20 -20 -20 -20 -20 -20 -20 -20 -20 -20 -20 -20 -20 -20 -20 -20 -20 -20 -20 -20 -20 -20 -20 -20 -20 -20 -20 -20 -20 -20 -20 -20 -20 -20 -20 -20 -20 -20
-20 -20 -19 -20 -20 -20 -20 -20 -20 -20 -20 -20 -20 -20 -20 -20 -20 -20 -20 -20 -20 -20 -20 -20 -20 -20 -20 -20 -20 -20 -20 -20 -20 -20 -20 -20 -20 -20 -20 -20 -20 -20 -20 -20
-20 -20 -20 -20 -20 -20 -20 -20 -20 -20 -20 -20 -20 -20 -20 -20 -20 -20 -20 -20 -20 -20 -20 -20 -20 -20 -20 -20 -20 -20 -20 -20 -20 -20 -20 -20 -20 -20 -20 -20 -20 -20 -20 -20
-20 -20 -20 -20 -20 -20 -20 -20 -20 -20 -20 -20 -20 -20 -20 -20 -20 -20 -20 -20 -20 -20 -20 -20 -20 -20 -20 -20 -20 -20 -20 -20 -20 -20 -20 -20 -20 -20 -20 -20 -20 -20 -20 -20
-20 -20 -15 -14 -20 -20 -20 -20 -20 -20 -20 -20 -20 -20 -20 -20 -20 -20 -20 -20 -20 -20 -20 -20 -20 -20 -20 -20 -20 -20 -20 -20 -20 -20 -20 -20 -20 -20 -20 -20 -20 -20 -20 -20
-20 -20 -9 -3 -20 -20 -20 -20 -20 -20 -20 -20 -20 -20 -20 -20 -20 -20 -20 -20 -20 -20 -20 -20 -20 -20 -20 -20 -20 -20 -20 -20 -20 -20 -20 -20 -20 -20 -20 -6 2 22 15 -19
-20 -20 -20 -20 -20 -20 -20 -20 -20 -20 -20 -20 -20 -20 -20 -20 -20 -20 -20 -20 -20 -20 -20 -20 -20 -20 -20 -20 -20 -20 -20 -20 -20 -20 -20 1 12 5 -4 -18 -19 18 -11 -19
-20 -20 -20 -20 -20 -20 -20 -20 -20 -20 -20 -20 -20 -20 -20 -20 -20 -20 -20 -20 -20 -20 -20 -20 -20 -20 -20 -20 -20 -20 -20 -20 -20 -20 -20 -20 -20 -12 -14 -18 -20 -16 -12 -12
-20 -20 -20 -20 -20 -20 -20 -20 -20 -20 -20 -20 -20 -20 -20 -20 -20 -20 -20 -20 -20 -20 -20 -20 -20 -20 -20 -20 -20 -20 -20 -20 -20 -20 -20 -20 -20 -20 -20 -7 -19 -20 -12 -20
-20 -20 -20 -20 -20 -20 -20 -20 -20 -20 -20 -20 -20 -20 -20 -20 -20 -20 -20 -20 -20 -20 -20 -20 -20 -20 -20 -20 -20 -20 -20 -20 -20 -20 -20 -20 -20 -20 -20 -20 17 -5 -6 -5
-20 -20 -20 -20 -20 -20 -20 -20 -20 -20 -20 -20 -20 -20 -20 -20 -20 -20 -20 -20 -20 -20 -20 -20 -20 -20 -20 -20 -20 -20 -20 -20 -20 -20 -20 -20 -20 -20 -20 -20 16 -20 22 -20
-20 -20 -20 -20 -20 -20 -20 -20 -20 -20 -20 -20 -20 -20 -20 -20 -20 -20 -20 -20 -20 -20 -20 -20 -20 -20 -20 -20 -20 -20 -20 -20 -20 -20 -20 -20 -20 -20 -20 -20 -20 -19 -20 25
-20 -20 -20 -20 -20 -12 -20 -20 -9 -20 -20 -20 -20 -20 -20 -20 -20 -20 -20 -20 -20 -20 -20 -20 -20 -20 -20 -20 -20 -20 -20 -20 -20 -20 -20 -20 -20 -20 -20 -20 -20 -20 -14 23
-20 -20 -20 -20 -13 -20 -20 -20 -20 -19 -20 -20 -20 -20 -20 -20 -20 -20 -20 -20 -20 -20 -20 -20 -20 -20 -20 -20 -20 -20 -20 -20 -20 -20 -20 -20 -20 -20 -14 4 -2 -18 -18 14
-20 -20 -18 -20 -20 -20 -20 -20 -20 -20 -20 -20 -20 -20 -20 -20 -20 -20 -20 -19 -20 -18 -20 -20 -20 -20 -20 -14 -19 -20 -20 -20 -20 -20 -20 -20 -20 -20 -3 10 15 15 13 18
4 0 1 -2 5 -20 -20 -20 -20 -20 -20 -20 -20 -20 -20 -20 -20 -20 -20 -20 -20 -12 8 -5 -20 -20 -20 -20 -20 -20 -20 -20 -20 -20 -20 -7 -0 12 -20 -20 -16 -5 4 6
3 -19 -13 6 -9 -20 -20 -20 -20 -20 -20 -20 -20 -20 -20 -20 -20 -20 -20 -20 -20 -20 -20 -15 -20 -20 -20 -20 -20 -20 -20 -20 -20 -20 8 -8 -20 -20 -14 -2 10 19 19 9
-2 -20 -20 -20 -20 -20 -20 -20 -20 -20 -20 -20 -20 -20 -20 -20 -20 -20 -20 -20 -20 -20 -20 -20 -20 -20 -20 -20 -20 -20 -20 -20 -20 -17 -20 -20 -2 11 14 6 20 17 4 -12
-20 -20 -20 -20 -20 -20 -20 -20 -20 -20 -20 -20 -20 -20 6 -20 -5 -20 -20 -20 -20 -20 -20 -20 -20 -20 -20 -20 -4 -11 22 -20 -20 -20 18 -20 -20 -18 -19 2 -13 -20 -20 -20
-20 -20 -20 -20 -20 -20 -20 -20 -20 -20 -3 -17 -2 -7 -9 15 -20 -20 -7 -5 -13 -20 -20 -20 -20 -20 -20 -20 -20 -20 -8 -5 -16 -20 -20 -20 -20 -20 -20 -20 -20 -20 -20 -20
-20 -20 -20 -20 -20 -20 -20 -20 -20 -20 -18 -14 -11 5 30 35 24 -9 -20 0 -20 -20 -16 -20 -20 -20 -20 -14 -20 -20 -20 -20 -20 -20 -20 -20 -20 -20 -20 -20 -20 -17 1 7

GFSCGP_prec_radar_051.txt.gz
Reflectivity
-20 -20 -20 -20 -20 -7 -20 -20 -20 -20 -20 -20 -20 -20 -20 -20 -20 -20 -20 -20 -20 -20 -20 -20 -20 -20 -16 -20 -20 -6 27 18 26 24 23 20 12 8 17 11 -5 -6 -15 -20
-20 -20 -20 -20 -20 -20 -20 -20 -20 -20 -20 -20 -20 -20 -20 -20 -20 -20 -20 -20 -20 -20 -20 -20 -20 -20 -20 -20 -20 -20 -19 19 20 28 28 14 11 17 23 -18 -19 -20 -20 -20
-20 -20 -20 -20 -20 -20 -20 -20 -20 -20 -20 -20 -20 -20 -20 -20 -20 -20 -20 -20 -20 -20 -20 -20 -20 -20 -20 -20 -20 -20 -20 -2 12 -9 21 23 22 21 22 0 -20 -16 -19 -18
-20 -20 -20 -20 -20 -20 -20 -20 -20 -20 -20 -20 -20 -20 -20 -20 -20 -20 -20 -20 -20 -20 -20 -20 -20 -20 -20 -20 -20 -20 2 -19 10 -7 22 9 -3 -19 -15 -4 8 -20 -20 -20
-20 -20 -20 -20 -20 -20 -20 -20 -20 -20 -20 -20 -20 -20 -20 -20 -20 -20 -20 -20 -20 -20 -20 -20 -20 -20 -20 -20 -20 -20 -20 -20 -20 -8 -7 -3 -7 -20 -20 -20 -14 6 5 -20
-20 -20 -20 -20 -20 -20 -20 -20 -20 -20 -20 -20 -20 -20 -20 -20 -20 -20 -20 -20 -20 -20 -20 -20 -20 -20 -20 -20 -20 -20 -20 -20 -20 -20 -20 -20 -20 -20 -20 -20 -20 -8 -11 -20
-20 -20 -20 -20 -20 -20 -20 -20 -20 -20 -20 -20 -20 -20 -20 -20 -20 -20 -20 -20 -20 -20 -20 -20 -20 -20 -20 -20 -20 -20 -20 -20 -20 -20 -20 -20 -20 -20 -20 -20 -20 -20 -20 -20
8 12 6 -4 -20 -16 -20 -20 -20 -20 -20 -20 -20 -20 -20 -20 -20 -20 -20 -20 -20 -20 -20 -20 -20 -20 -20 -20 -20 -20 -20 -20 -20 -20 -20 -20 -20 -20 -20 -20 -20 -20 -20 -20
-10 -18 -20 -18 9 15 10 -20 -14 -20 -20 -20 -20 -20 -20 -20 -20 -20 -20 -20 -20 -20 -20 -20 -20 -20 -20 -20 -20 -20 -20 -20 -20 -20 -20 -20 -20 -20 -20 -20 -20 -20 -20 -20
-19 -3 6 -20 -20 -20 -20 -20 -20 -20 -20 -20 -20 -20 -20 -20 -20 -20 -20 -20 -20 -20 -20 -20 -20 -20 -20 -20 -20 -20 -20 -20 -20 -20 -20 -20 -20 -20 -20 -20 -20 -20 -20 -20
-20 -20 -20 -20 -20 -20 -20 -20 -20 -20 -20 -20 -20 -20 -20 -20 -20 -20 -20 -20 -20 -20 -20 -20 -20 -20 -20 -20 -20 -20 -20 -20 -20 -20 -20 -20 -20 -20 -20 -20 -20 -20 -16 -16
-20 -20 -20 -20 -15 -20 -20 -20 -20 -20 -20 -20 -20 -20 -20 -20 -20 -20 -20 -20 -20 -20 -20 -20 -20 -20 -20 -20 -20 -20 -20 -20 -20 -20 -20 -20 -20 -20 -20 -20 -20 -20 -20 -20
-20 -20 -20 -9 2 -6 -17 -20 -20 -20 -20 -20 -20 -20 -20 -20 -20 -20 -20 -20 -20 -20 -20 -20 -20 -20 -20 -20 -20 -20 -20 -20 -20 -20 -20 -20 -11 -20 -14 -20 -20 -20 -20 -20
-18 -16 -20 -20 -19 -20 -20 -20 -20 -20 -20 -20 -20 -20 -20 -20 -20 -20 -20 -20 -20 -20 -20 -20 -20 -20 -20 -20 -20 -20 -20 -20 -20 -20 -20 -20 -20 -20 -20 -13 -20 -20 -20 -20
-20 -20 -20 -20 -20 -20 -20 -20 -20 -20 -20 -20 -20 -20 -20 -20 -20 -20 -20 -20 -20 -20 -20 -20 -20 -20 -20 -20 -20 -20 -20 -20 -20 -20 -20 -20 -20 -20 -20 -20 -20 -20 -20 -20
-20 -20 -20 -20 -20 -20 -20 -20 -20 -20 -20 -20 -20 -20 -20 -20 -20 -20 -20 -20 -20 -20 -20 -20 -20 -20 -20 -20 -20 -20 -20 -20 -20 -20 -20 -20 -20 -20 -20 -20 -20 -20 -20 -20
-20 -20 -20 -20 -20 -20 -20 -20 -20 -20 -20 -20 -20 -20 -20 -20 -20 -20 -20 -20 -20 -20 -20 -20 -20 -20 -20 -20 -20 -20 -20 -20 -20 -20 -20 -20 -20 -20 -20 -20 -20 -20 -20 -18
-20 -20 -20 -20 -20 -20 -20 -20 -20 -20 -20 -20 -20 -20 -20 -20 -20 -20 -20 -20 -20 -20 -20 -20 -20 -20 -20 -20 -20 -20 -20 -20 -20 -20 -20 -20 -20 -20 -20 -20 -20 -10 1 -10
-20 -20 6 -2 -20 -20 -20 -20 -20 -20 -20 -20 -20 -20 -20 -20 -20 -20 -20 -20 -20 -20 -20 -19 -4 -20 -20 -20 -20 -20 -20 -20 -20 -20 -20 -20 -20 -20 -20 -20 -20 -20 -20 -20
-20 -20 -5 -13 -20 -20 -20 -20 -20 -20 -20 -20 -20 -20 -20 -20 -20 -20 -20 -20 -20 -20 -20 -20 -20 -20 -20 -20 -20 -20 -20 -20 -20 -20 -20 -20 -20 -20 -20 -20 -19 -20 -18 3
-4 -11 10 14 -20 -20 -20 -20 -20 -20 -20 -20 -20 -20 -20 -20 -20 -20 -20 -20 -20 -20 -20 -20 -20 -20 -20 -20 -20 -20 -20 -20 -20 -20 -20 -20 -20 -20 -20 -19 -0 -2 -4 5
-20 -9 4 8 2 -20 -20 -20 -20 -20 -20 -20 -20 -20 -20 -20 -20 -20 -20 -20 -20 -20 -20 -20 -20 -20 -20 -20 -0 -20 -19 -20 -20 -20 -20 -20 8 29 22 -20 -20 -20 -20 -6
13 -19 -20 -20 -20 -20 -20 -20 -20 -20 -20 -20 -20 -20 -20 -20 -20 -20 0 -20 -20 -20 -20 -20 -20 -20 -20 -20 -20 -20 -2 -12 -17 -20 -20 -9 28 22 -20 -15 -20 -17 -8 12
-20 -20 -20 -20 -20 -20 -20 -20 -20 -20 -20 -20 -20 -20 -20 -20 -20 -20 24 -20 -20 11 -20 -20 -20 -20 -20 -20 -20 -20 -20 2 12 -12 -14 -13 -19 -5 12 11 0 10 17 17
-20 -20 -20 -20 -20 -20 -20 -20 -20 -20 -20 -20 -20 -20 -20 -20 -13 14 34 -10 9 11 13 -20 -11 -20 -20 -20 -20 -20 -2 -0 -9 -20 -20 -20 -16 1 -19 -13 2 6 14 18
-20 -20 -20 -20 -20 -20 -20 -20 -20 -20 -20 -20 -20 -20 -20 1 29 19 27 32 21 30 -0 -20 -20 -20 -8 23 20 8 1 14 9 -20 -20 -15 7 -1 -18 -19 -13 5 -3 -18

GFSCGP_prec_radar_054.txt.gz
Reflectivity
-20 -20 -20 -20 -20 -20 -20 -20 -20 -20 -20 -20 -20 -20 -20 -20 -20 -20 -20 -20 -20 -20 -20 -20 -20 -20 -20 0 5 2 0 7 2 11 20 15 11 13 14 25 30 14 -2 4
-20 -20 -20 -20 -20 -20 -20 -20 -20 -20 -20 -20 -20 -20 -20 -20 -20 -20 -20 -20 -20 -20 -20 -20 -20 -20 -9 2 3 6 -5 11 11 -3 12 8 -4 11 14 19 19 11 8 3
-20 -20 -19 -20 -20 -20 -20 -20 -20 -20 -20 -20 -20 -20 -20 -20 -20 -20 -20 -20 -20 -20 -20 -20 -20 -20 -18 -7 6 0 9 -8 -7 22 16 17 21 21 18 1 -5 14 18 5
-20 -2 -19 -20 -20 -20 -20 -20 -20 -20 -20 -20 -20 -20 -20 -20 -20 -20 -20 -20 -20 -20 -20 -20 -20 -20 -20 -20 -8 3 3 -13 -1 3 10 12 19 28 6 15 -3 13 -15 -19
-19 14 7 -20 -20 -20 -20 -20 -20 -20 -20 -20 -20 -20 -20 -20 -20 -20 -20 -20 -20 -20 -20 -20 -20 -20 -20 -20 -20 0 6 9 -4 3 -14 -9 15 12 20 7 15 -12 -18 -13
-20 8 13 -20 -17 -15 -20 -20 -20 -20 -20 -20 -20 -20 -20 -20 -20 -20 -20 -20 -20 -20 -20 -20 -20 -20 -20 -20 -20 -20 -1 9 -10 -20 -20 -20 -5 -5 -15 4 10 7 -12 -20
-19 -9 -12 -20 -20 -20 -20 -20 -20 -20 -20 -20 -20 -20 -20 -20 -20 -20 -20 -20 -20 -20 -20 -20 -20 -20 -20 -20 -20 -20 -20 -15 6 -6 -18 -20 -20 -20 -20 -20 -20 -20 -19 -18
-12 -20 -1 -20 -20 -20 -10 -20 -20 -20 -20 -20 -20 -20 -20 -20 -20 -20 -20 -20 -20 -20 -20 -20 -20 -20 -20 -20 -20 -20 -20 -20 -17 -7 -19 3 2 -20 -20 -20 -20 -20 -20 -20
-8 -20 -8 15 11 2 -20 -20 -20 -20 -20 -20 -20 -20 -20 -20 -20 -20 -20 -20 -20 -20 -20 -20 -20 -20 -20 -20 -20 -20 -20 -20 -20 -20 2 1 -5 -20 -20 -20 -20 -20 -20 -20
3 -4 -11 2 -5 8 -14 -19 -20 -20 -20 -20 -20 -20 -20 -20 -20 -20 -20 -20 -20 -20 -20 -20 -20 -20 -20 -20 -20 -20 -20 -20 -20 -20 -20 -20 -20 -20 -20 -20 -20 -20 -20 -20
-20 0 -6 -20 -20 -20 -20 -20 -20 -20 -20 -20 -20 -20 -20 -20 -20 -20 -20 -20 -20 -20 -20 -20 -20 -20 -20 -20 -20 -20 -20 -20 -20 -20 -20 -20 -20 -20 -20 -20 -20 -20 -20 -20
-3 -19 -20 -13 -20 -20 -20 -20 -20 -20 -20 -20 -20 -20 -20 -20 -20 -20 -20 -20 -20 -20 -20 -20 -20 -20 -20 -20 -20 -20 -20 -20 -20 -20 -20 -20 -20 -20 -20 -20 -20 -20 -20 -20
-20 -19 -12 -20 -20 -20 -20 -20 -20 -20 -20 -20 -13 -20 -20 -20 -18 -12 -20 -20 -20 -20 -20 -20 -20 -20 -20 -20 -20 -20 -20 -20 -20 -20 -20 -20 -20 -20 -20 -20 -20 -20 -20 -20
-20 -8 -20 -20 -20 -20 -20 -20 -20 -20 -20 -20 -20 -20 -20 -20 -20 -20 -20 -20 -20 -20 -20 -20 -20 -20 -20 -20 -20 -20 -20 -20 -20 -20 -20 -20 -20 -20 -20 7 -20 -20 -20 -20
12 3 -20 -20 -20 -20 -20 -20 -20 -20 -20 -20 -20 -20 -20 -20 -20 -20 -20 -20 -20 -20 -20 -20 -20 -20 -20 -20 -20 -20 -20 -20 -20 -20 -20 -20 -20 -20 -20 -20 16 -20 -20 -20
-19 -7 -1 -20 -20 -20 -20 -20 -20 -20 -20 -20 -20 -20 -20 -20 -20 -20 -20 -20 -20 -20 -20 -20 -20 -20 -20 -20 -20 -20 -20 -20 -20 -20 -20 -20 -20 -20 -20 -20 -20 -20 -20 -20
-20 -16 -20 -20 -20 -20 -20 -20 -20 -20 -20 -20 -20 -20 -20 -20 -20 -20 -20 -20 -20 -20 -20 -20 -20 -20 -20 -20 -20 -20 -20 -20 -20 -20 -20 -20 -20 -20 -20 -20 -20 -20 -20 -20
-20 9 13 -20 -20 -20 -20 -20 -20 -20 -20 -20 -20 -20 -20 -20 -20 -20 -20 -20 -20 -20 -20 -20 -20 -20 -20 -20 -20 -20 -20 -20 -20 -20 -20 -20 -20 -20 -20 -20 -20 -20 -20 -20
-20 -1 9 5 -3 -20 -20 -20 -20 -20 -20 -20 -20 -20 -20 -20 -20 -20 -20 -20 -20 -20 -20 -20 -20 -20 -20 -20 -17 -20 -20 -20 -20 -20 -20 -20 -20 -20 -20 -20 -20 -20 -20 -20
-20 -15 14 10 -18 -20 -20 -20 -20 -20 -20 -20 -20 -20 -20 -20 -20 -20 -20 -20 -20 -20 -20 -20 -20 -20 -20 -20 -20 -20 -20 -20 -20 -20 -20 -20 -20 -20 -20 -20 -20 -20 -20 -20
11 10 9 1 14 -2 -20 -20 -20 -20 -20 -20 -20 -20 -20 -20 -20 -20 -20 -20 -20 -20 -20 -20 -20 -20 -20 -20 -20 -20 -18 -20 -20 -20 -20 -20 -20 -19 -20 -20 -20 -20 -16 -20
-7 5 9 4 8 2 -20 -20 -17 6 -20 -20 -20 -20 -20 -20 -20 -20 -20 -20 -20 -20 -20 -20 -20 -20 -20 -20 -20 -20 -20 -20 -20 -9 -19 -20 -20 -20 -20 -20 -20 -11 19 10
17 -19 -18 -20 -7 -20 -20 -16 -20 -20 -20 -20 -20 -20 -20 -20 -20 -20 -20 -20 -20 -20 -20 -20 -20 -20 -20 -20 -20 -20 -20 -20 -20 -20 -20 -20 -20 -20 -20 -19 26 -12 9 16
-20 -20 3 7 -20 -20 -20 -20 -20 -20 -20 -20 -20 -20 -20 -20 -20 -20 -20 -20 -20 -20 -15 -3 -20 -20 -20 -20 -20 -11 -18 -11 -16 -20 -20 -20 -15 -4 21 20 15 -11 -18 -11
-20 -13 -17 -20 -20 -20 -20 -20 -20 -20 -20 -20 -20 -20 -20 -20 -20 -20 -20 -20 -20 -18 4 -4 -19 -7 20 15 11 -7 3 15 17 14 14 14 23 8 13 11 1 -4 1 18
-20 -20 3 3 -20 -20 -20 -20 -20 -20 -20 -20 -20 -20 -20 -20 -20 -20 -20 -20 -20 -8 39 32 15 21 13 18 26 25 24 21 23 27 25 19 5 -1 -10 -19 -0 14 21 26

GFSCGP_prec_radar_057.txt.gz
Reflectivity
-8 -13 -20 -19 -15 -20 -20 -20 -20 -20 -20 -20 -20 -20 -20 -20 -20 -20 -20 -20 -20 -20 -20 -20 -20 -20 -20 -13 10 11 -9 2 10 6 12 22 26 30 18 27 6 19 17 14
20 -18 -19 11 -6 -20 -20 -20 -20 -20 -20 -20 -20 -20 -20 -20 -20 -20 -20 -20 -20 -20 -20 -20 -20 -20 -20 -16 8 11 -20 -0 -1 3 7 3 11 24 22 20 20 24 16 16
8 -15 8 12 -16 -20 -20 -20 -20 -20 -20 -20 -20 -20 -20 -20 -20 -20 -20 -20 -20 -20 -20 -20 -20 -20 -20 -20 2 -1 -20 -1 -1 5 17 9 0 20 18 20 17 18 18 -15
13 -19 13 5 -20 -20 -20 -20 -20 -20 -20 -20 -20 -20 -20 -20 -20 -20 -20 -20 -20 -20 -20 -20 -20 -20 -20 -20 -20 2 -3 -20 8 1 -4 -2 1 11 -6 8 -1 5 -4 -20
13 -8 -14 -10 -20 -20 -20 12 -20 -20 -20 -20 -20 -20 -20 -20 -20 -20 -20 -20 -20 -20 -20 -20 -20 -20 -20 -20 -20 -0 4 -12 -14 5 -3 7 6 -20 -10 -16 5 5 -20 -17
2 4 1 -20 2 -20 -20 -16 -20 -20 -20 -20 -20 -20 -20 -20 -20 -20 -20 -20 -20 -20 -20 -20 -20 -20 -20 -20 -20 -6 9 -16 -20 1 4 -1 -20 -20 -20 -20 3 -7 -20 1
-2 -8 -20 -10 13 1 -20 -20 -20 -20 -20 -20 -20 -20 -20 -20 -20 -20 -20 -20 -20 -20 -20 -20 -20 -20 -20 -20 -20 -20 -15 9 -17 -20 -20 -6 4 -20 -19 -20 -20 -19 -20 -20
3 5 -20 -13 -8 12 -20 -20 -20 -20 -20 -20 -20 -20 -20 -20 -20 -20 -20 -20 -20 -20 -20 -20 -20 -20 -20 -20 -20 -20 -20 -20 -10 1 -20 5 1 -7 -3 -20 -20 -20 -20 -20
3 -20 13 1 3 15 6 -20 -20 7 1 -15 -20 -20 -20 -20 -20 -20 -20 -20 -20 -20 -20 -20 -20 -20 -20 -20 -20 -20 -20 -20 -20 6 1 -20 -20 -20 -20 -20 -20 -20 -20 -20
-7 -20 -13 8 -14 -20 6 5 -20 -15 -20 -5 -8 10 -8 -20 -20 -20 -20 -20 -20 -20 -20 -20 -20 -20 -20 -20 -20 -20 -20 -20 -20 -20 -3 2 -17 -20 -20 -20 -20 -20 -20 -20
-14 4 9 -2 8 -20 -1 5 -14 -10 -12 -17 -10 -12 12 11 -20 -20 -20 -20 -17 -20 -20 -20 -20 -20 -20 -20 -20 -20 -20 -20 -20 -20 -20 -14 1 -2 -16 2 -4 -20 -20 -20
-6 -15 -5 4 5 7 8 6 -4 5 9 -20 -2 11 -20 -20 -20 -15 -11 -20 -20 -20 -20 -20 -20 -20 -20 -20 -20 -20 -20 -20 -20 -20 -20 -20 -20 -19 -19 -20 -5 -17 -20 -20
0 -20 -9 13 -2 -6 4 9 6 4 -2 15 18 -11 15 3 -20 4 -5 -20 -20 -20 -20 -20 -20 -20 -20 -20 -20 -20 -20 -20 -20 -20 -20 -20 -20 -20 -20 -20 -20 -18 -20 -20
-20 -20 -20 -3 14 2 -20 1 1 -1 -2 -12 18 14 17 -3 -11 3 -13 -20 -20 -20 -20 -20 -20 -20 -20 -20 -20 -20 -20 -20 -20 -20 -20 -20 -20 -20 -20 -20 -20 -20 -20 -20
12 14 -9 -2 -8 -10 13 -4 -6 -3 -5 16 -3 12 -20 -20 -18 -20 -20 -20 -18 -20 -20 -20 -20 -20 -20 -20 -20 -20 -20 -20 -20 -20 -20 -20 -20 -20 -20 -20 -20 -20 -20 -20
20 8 -20 -6 -20 -20 -17 -9 -20 -20 -20 -20 -20 -20 -20 -20 -20 -20 -20 -20 -20 -20 -20 -20 -20 -20 -20 -20 -20 -20 -20 -20 -20 -20 -20 -20 -20 -20 -20 -20 -20 -20 -20 -20
-1 6 18 2 -20 -20 -20 -20 -20 -3 -18 -20 -20 -20 -20 -20 -20 -20 -20 -20 -20 -20 -4 -16 -20 -20 -20 -20 -20 -20 -20 -20 -20 -20 -20 -20 -20 -20 -20 -20 -20 -20 -20 -20
-20 -0 16 19 -2 9 -3 -20 -20 -20 -20 -20 -20 -20 -20 -20 -20 -20 -20 -20 -20 -20 -20 -20 -20 -20 -20 -20 -20 -20 -20 -20 -20 -20 -20 -20 -20 -20 -20 -20 -20 -20 -20 -20
-20 -20 10 -20 -18 -20 -18 -20 -20 -20 -20 -20 -20 -20 -20 -20 -20 -20 -20 -20 -20 -20 -20 -20 -20 -20 -20 -20 -20 -20 -20 -20 -20 -20 -20 -20 -20 -20 -20 -20 -20 -20 -20 -20
-19 -20 7 20 -3 -11 -20 -20 -20 -20 -20 -20 -20 -20 -20 -20 -20 -20 -20 -20 -20 -20 -20 -20 -20 -20 -20 -20 -20 -20 -20 -20 -20 -20 -20 -20 -20 -20 -20 -20 -20 -20 -20 -20
6 3 -5 1 7 -20 -20 -20 -20 -20 23 -20 -20 -20 -20 -20 -20 -14 -20 -20 -20 -20 -20 -20 -20 -20 -20 -20 -20 -20 -20 -20 -20 -20 -20 -20 -20 -20 -20 -20 -20 -20 -20 -20
3 10 9 6 18 12 -20 -20 -14 -20 -20 -20 -20 -20 -20 -20 -20 -20 -20 -20 -20 -20 -20 -20 -20 -20 -20 -20 -20 -20 -20 -20 -20 -20 -20 -20 -20 -20 -20 -20 -20 15 17 -9
14 -17 19 -17 -18 -20 -20 -20 -20 -20 -20 -20 -20 -20 -20 -20 -20 -20 -20 -20 -20 -20 -20 -20 -20 -20 -20 -20 -19 -18 -19 -20 -20 -20 -20 -20 -20 -20 -20 -20 -20 -20 -20 -20
-15 22 19 23 -18 27 -15 -7 -20 -20 -20 -20 -20 -20 -20 -20 -20 -20 -20 -20 -20 -20 -20 -20 -20 -20 -20 -20 -15 -0 -2 -2 12 -20 -10 -0 4 1 -4 -15 -6 -2 12 21
0 12 -20 -20 -6 5 -18 -4 -20 -20 -20 -20 -20 -20 -20 -20 -20 -20 -20 -20 -20 -20 -20 -20 -20 -20 -20 -20 0 15 8 6 23 21 14 10 11 11 17 14 21 23 21 26
-20 -19 12 15 7 -13 5 -8 -20 -20 -20 -20 -20 -20 -20 -20 -20 -20 -20 -20 -20 -20 -9 -20 -20 -20 2 10 16 8 19 25 30 24 25 23 18 26 26 19 12 23 26 21

GFSCGP_prec_radar_060.txt.gz
Reflectivity
4 11 -8 2 -3 8 2 -7 3 11 -19 3 -20 -20 -20 -20 -20 -20 -20 -20 -20 -20 -20 -20 -20 -20 -20 -20 -6 -20 -2 -3 -15 -20 -1 -3 18 28 30 29 16 16 4 -20
-3 13 -12 10 7 12 -3 -20 -20 11 8 -20 -20 -20 -20 -20 -20 -20 -20 -20 -20 -20 -20 -20 -20 -20 -20 -20 -17 -2 -19 -9 -16 -20 -0 7 -4 12 24 17 5 -3 -12 6
-8 -20 16 10 1 -4 -20 -20 -18 -20 -20 -20 -20 -20 -20 -20 -20 -20 -20 -20 -20 -20 -20 -20 -20 -20 -20 -20 -20 4 -20 -16 -19 -20 2 6 9 5 18 18 23 1 3 12
23 7 7 2 -8 -0 -20 -20 -20 -20 -20 -20 -20 -20 -20 -20 -20 -20 -20 -20 -20 -20 -20 -20 -20 -20 -20 -20 -20 1 1 -20 -20 -20 -2 -19 -18 -17 -20 -3 14 15 1 -19
24 19 27 8 10 18 -20 9 -20 -3 -19 -20 -20 -20 -20 -20 -20 -20 -20 -20 -20 -20 -20 -20 -20 -20 -20 -20 -20 -20 10 -20 -20 -19 -15 -2 -6 -20 -20 -20 0 3 14 -2
-1 0 16 1 20 14 -13 8 -20 -20 -20 -20 -20 -20 -20 -20 -17 -20 -20 -20 -20 -20 -20 -20 -20 -20 -20 -20 -20 -20 -7 11 -17 -20 -20 -20 -18 -20 -20 -16 -9 -4 -12 -18
12 3 4 1 9 -9 5 -1 -20 -20 -20 -20 -20 -20 -20 -20 -15 -20 -20 -20 -20 -20 -20 -20 -20 -20 -20 -20 -20 -20 -8 9 16 -20 -20 -20 -7 -20 -20 -20 -20 -20 -20 -20
4 -6 8 -1 1 4 5 11 -20 4 -20 -20 -20 -20 -20 -20 -20 -20 -20 -20 -20 -20 -20 -20 -20 -20 -20 -20 -20 -20 -20 -13 9 -13 -20 -20 -20 -20 -20 -20 -20 -20 -20 -20
-20 2 19 16 9 -7 10 12 -16 18 -8 -18 -20 -20 -20 -20 -20 -20 -20 -20 -20 -20 -20 -20 -20 -20 -20 -20 -20 -20 -20 -20 -3 -5 -20 -20 -5 -20 -20 -20 -20 -20 -20 -20
-20 -20 6 -4 -18 -14 -7 5 21 14 0 -18 -20 10 -20 -20 -20 -20 -20 -20 -20 -20 -20 -20 -20 -20 -20 -20 -20 -20 -20 -20 -20 -20 -15 -20 -20 -20 -20 -20 -20 -20 -20 -20
-20 -20 -3 6 -12 -17 -2 11 16 -2 4 -9 4 6 11 17 -20 -20 -20 -20 -20 -20 -20 -20 -7 -20 -20 -20 -20 -20 -20 -20 -20 -20 -20 -15 -8 -17 -12 -20 -20 -20 -20 -20
-20 -20 -20 -12 -7 13 8 14 6 3 -8 -4 -10 13 21 4 -1 -20 -20 -20 -20 -20 -19 -20 -20 -20 -20 -20 -20 -20 -20 -20 -20 -20 -20 -20 -6 10 -20 -20 -20 -20 -20 -20
-20 -18 -17 -20 10 17 -1 5 11 -13 23 31 17 -14 16 -6 -17 9 -20 -20 -9 -20 -7 -20 -9 -19 -20 -20 -20 -20 -20 -20 -20 -20 -20 -20 -20 -20 -20 -20 -20 -20 -20 -20
-20 -9 -20 -20 14 31 19 3 13 5 31 25 30 20 31 13 16 -13 -9 -20 -20 -20 -20 -20 -20 -20 -20 -20 -20 -20 -20 -19 -0 -20 -20 -20 -20 -20 -20 -20 -20 -20 -20 -20
-0 7 -10 -20 -17 14 7 -3 16 9 16 24 -0 16 23 19 17 8 -20 -20 -20 -13 -20 -20 -20 -20 -20 -20 -20 -20 -20 -20 -20 30 -20 -20 -20 -20 -20 -20 -20 -20 -20 -20
11 15 -16 -20 -20 -20 -20 -18 33 14 15 15 12 5 14 31 8 2 6 -20 1 -20 -20 -20 -20 -20 -20 -20 -20 -20 -20 -20 -20 -20 -20 -20 -20 -20 -20 -20 -20 -20 -20 -20
-1 12 21 -15 -11 -20 -20 -16 7 27 15 -4 2 3 22 5 -6 -10 -17 12 5 -20 -20 -20 -20 -20 -20 -20 -20 -20 -20 -20 -20 -20 -20 -20 -20 -20 -20 -20 -20 -20 -20 -20
-20 -1 22 10 22 -8 -20 -20 -11 -8 -20 -6 2 -3 -20 -20 -20 -20 -20 -20 -20 -19 -20 -20 -20 -20 -20 -20 -20 -20 -20 -20 -20 -20 -20 -20 -20 -20 -20 -20 -20 -20 -20 -20
-20 -20 19 16 13 22 10 -13 -20 -20 -20 5 9 10 -18 -20 -20 -17 -20 -20 -20 -20 -20 -20 -20 -20 -20 -20 -20 -20 -20 -20 -20 -20 -20 -20 -20 -20 -20 -20 -20 -20 -20 -20
-20 -19 16 14 10 -15 -6 12 -12 -10 4 13 -20 -20 -20 -20 -20 11 10 -10 -20 -20 -20 -20 -20 -18 -20 -20 -20 -20 -20 -20 -20 -20 -20 -20 -20 -20 -20 -20 -20 -20 -20 -20
-6 17 -1 13 1 11 -2 10 -20 -20 -1 -20 -20 -20 -20 -20 -16 -20 -14 -20 -20 -20 -20 -20 -20 -20 -20 -20 -20 -20 -20 -20 -20 -20 -20 -20 -20 -20 -20 -20 -20 -20 -20 -20
-20 12 11 8 11 10 -20 -16 -18 -6 -20 -20 14 2 -20 -20 -20 -20 -20 -20 -20 -20 -20 -20 -20 -20 -20 -20 -20 -20 -20 -20 -20 -20 -20 -20 -20 -20 -20 -20 -20 0 -20 -20
28 -17 13 -20 -20 -20 -20 -20 -20 -20 -20 -5 13 -2 -20 -20 -20 -20 -20 -20 -20 -20 -20 -20 -20 -20 -20 -20 -20 -20 -20 -20 -20 -20 -20 -20 -20 -20 -20 -20 -17 -20 -20 -9
22 19 6 -8 -19 -18 17 26 -20 -2 -20 -20 -16 -20 -20 -20 -20 -20 -20 -20 -20 -20 -20 -20 -20 -20 -20 -20 -20 -20 -20 -20 -20 -17 17 18 12 -2 -20 -9 21 19 -3 7
27 33 -1 3 26 25 19 39 -20 -20 -20 -20 -20 -20 -20 -20 -20 -20 -20 -20 -20 -20 -20 -20 -20 -20 -20 -20 -20 -20 -20 -20 -20 -7 14 16 17 14 16 18 16 11 20 19
22 40 29 23 38 33 39 29 -14 -20 -20 -20 -20 -20 -20 -20 -20 -20 -20 -20 -20 -20 -20 -20 -20 -20 -20 -20 -20 -20 -7 -5 -11 6 11 17 11 18 20 21 16 27 26 27

GFSCGP_prec_radar_063.txt.gz
Reflectivity
-20 -20 -20 -20 -1 4 8 -20 -10 1 -0 18 1 -20 -15 -20 -20 -20 -20 -20 -20 -20 -20 -20 -20 -20 -20 -20 -20 -20 -6 9 4 2 2 -2 4 25 20 19 23 18 -17 -14
-20 -20 -20 -20 11 12 16 -0 -13 -8 -17 16 -2 -18 -19 -20 -20 -20 -20 -20 -20 -20 -20 -20 -20 -20 -20 -20 -20 -20 6 -2 -19 5 2 2 -18 -12 -7 6 28 10 11 -20
-16 -20 15 11 -4 -20 -18 -14 -19 -18 8 14 3 -1 -20 -20 -20 -20 -20 -20 -20 -20 -20 -20 -20 -20 -20 -20 -20 -20 -20 -1 -4 -6 -16 3 1 15 21 6 26 14 -10 -7
-9 -13 1 -9 -20 -20 -20 -19 5 -18 17 -20 -2 -19 -20 -18 -20 -20 -20 -20 -20 -20 -20 -20 -20 -20 -20 -20 -20 -20 -0 2 -20 -4 -19 -11 -3 2 7 10 11 17 20 -17
-20 -20 2 -19 -20 9 -20 11 15 -8 -18 -12 -20 -20 -20 -20 -20 -20 -20 -20 -20 -20 -20 -20 -20 -20 -20 -20 -20 -20 -16 2 -20 -20 11 14 -20 -20 -20 -20 4 8 -18 -18
-20 -20 4 -20 10 2 2 18 -3 -18 4 -20 -20 -20 -20 -20 -18 -20 -1 -20 -20 -20 -20 -20 -20 -20 -20 -20 -20 -20 -20 -5 -2 -20 -20 -20 -20 -20 -20 -20 -10 -20 -20 -15
-3 -19 -20 -6 17 15 -4 30 5 -15 -12 -16 -20 -20 -20 -20 -20 -20 -20 -20 -20 -20 -20 -20 -20 -20 -20 -20 -20 -20 -20 -19 3 -20 -20 -20 -20 -20 -20 -20 -20 -20 -20 -20
-20 -17 -14 2 -18 -14 -11 23 -1 4 -20 -20 -18 -20 -20 -20 -20 -19 8 -20 -20 -20 -20 -20 -20 -20 -20 -20 -20 -20 -20 -20 -20 -10 -14 -20 -20 -20 -20 -20 -20 -20 -20 -20
-20 -20 -18 8 -10 12 7 0 3 18 19 -20 -20 -20 -20 -20 8 -18 -20 -20 -20 -20 -20 -20 -20 -20 -20 -20 -20 -20 -20 -20 -20 -18 -9 -20 -20 -20 -20 -20 -20 -20 -20 -20
-20 -20 -19 -10 19 5 12 7 24 31 -5 -12 -6 -20 18 -20 -10 -19 -20 -17 -20 -20 -20 -20 -20 -20 -20 -20 -20 -20 -20 -20 -20 -20 -3 -20 -20 -4 -20 -20 -20 -20 -20 -20
-20 -20 -20 -10 -8 7 4 25 27 27 -17 -15 -19 8 -5 -18 8 -17 -20 -20 -20 -20 -20 -20 -20 -20 -20 -20 -20 -20 -20 -20 -20 -20 -20 -6 -20 -5 3 -19 -20 -20 -20 -20
-20 -19 -20 -15 -20 16 28 15 17 30 8 -20 -4 -20 -9 14 13 11 8 -20 -20 -20 -20 -20 -20 -11 -20 -20 -20 -20 -20 -20 -20 -20 -20 -20 -6 -8 -20 -20 -20 -20 -20 -20
-20 -20 -19 -20 -18 -3 -1 5 17 -3 4 10 8 14 17 18 34 24 13 -1 -18 -20 -20 -20 -20 -20 9 18 14 -20 -20 -20 -20 -20 -20 -20 -20 -20 -20 -20 -20 -20 -20 -20
-20 -20 -5 -20 -3 7 -18 7 11 10 22 -2 -2 8 31 21 27 17 21 6 11 -20 -20 -20 -20 -20 -20 -20 3 4 -14 -20 -20 -20 -20 -20 -20 -20 -20 -20 5 0 -20 -20
-20 -20 -19 -20 -20 -10 29 18 8 21 -4 13 5 26 12 28 1 13 17 16 -20 -20 -20 -20 -20 -20 -20 -20 3 -20 -9 -11 26 -18 -20 -20 -20 -20 -20 -20 -20 -5 -15 -20
-20 -20 -20 -20 -3 4 11 13 15 22 4 9 14 26 38 24 32 14 -1 -20 -20 -20 -20 -20 -14 -20 -20 -20 -20 -20 -20 -20 -20 -17 26 30 -20 -20 -20 -20 -20 -20 -20 -20
-19 13 -20 -19 -20 -20 -20 -19 -1 -8 7 15 34 25 15 26 31 24 -11 -20 -20 -20 -20 -20 -20 -20 -20 -20 -20 -20 -20 -20 -20 -20 -17 -6 -20 -20 -20 -20 -20 -20 -20 -20
-20 -20 0 -20 -20 -16 -20 -20 -20 -5 32 28 27 17 26 22 18 8 -20 -20 -20 -20 -20 -20 -20 -20 -20 -20 -20 -20 -20 -20 -20 -20 -20 -20 -20 -20 -20 -20 -20 -20 -20 -20
-20 -20 -8 -20 3 -11 -20 -2 -20 -3 16 24 16 5 -9 24 -12 -20 -20 -20 -20 -20 -20 -20 -20 -20 -20 -20 -20 -20 -20 -20 -20 -20 -20 -20 -20 -20 -20 -20 10 -20 -20 -20
-20 -20 -20 12 -18 7 -20 -14 -20 -20 -16 -13 -20 -15 -7 -20 -20 -20 -20 -20 -20 -20 -19 -18 -20 -20 -20 -20 -20 -20 -20 -20 -20 -20 -20 -20 -20 -20 -20 -20 -20 17 -20 -20
-10 -17 -18 -20 0 -11 -8 6 13 8 -19 -20 -20 -20 -20 -20 -10 -5 -9 -20 -20 -19 -16 -12 -19 -20 -20 -20 -20 -20 -20 -20 -20 -20 -20 -20 -20 -20 -20 -20 -20 -20 -20 -20
26 -14 10 5 7 -20 10 7 6 -16 -20 -20 -20 -20 -20 -20 -20 -20 -20 -20 -20 -20 -20 -20 -20 -20 -20 -20 -20 -20 -20 -20 -20 -20 -20 -20 -20 -20 -20 -20 -20 -20 -20 -15
21 16 12 -20 -20 -15 22 -8 -20 -20 -20 -20 -20 -20 -20 -20 -20 -20 -20 -20 -20 -20 -20 -20 -20 -20 -20 -20 -20 -20 -20 -20 -20 -20 -20 -20 -20 -20 -20 -17 -20 -20 20 13
-20 2 15 20 -7 -20 -6 17 6 -20 -20 7 -20 -19 -6 -3 2 -5 -20 -20 -20 -20 -20 -20 -20 -20 -20 -20 -20 -20 -20 -20 -20 -20 -20 -20 -20 -20 -20 -15 -4 5 -2 -14
-5 8 12 18 29 11 3 35 18 27 2 -20 -7 -16 -10 -20 -20 -20 -20 -20 -20 -20 -20 -20 -20 -20 -20 -20 -20 -20 -14 -20 -20 -20 -20 -20 -18 -15 -9 5 8 7 16 20
10 33 39 30 26 24 24 24 22 33 27 -8 -20 -20 -20 -20 -20 -20 -20 -20 -20 -20 -20 -20 -20 -20 -20 -20 -20 -20 -18 -7 -2 -20 -20 -20 -18 -16 -2 3 13 20 17 18

GFSCGP_prec_radar_066.txt.gz
Reflectivity
-20 -20 -20 -20 -20 -20 -20 -20 -20 -10 -17 -10 -20 -20 -3 -20 -20 -20 -20 -20 -20 -20 -20 -20 -20 -20 -20 -20 -20 -20 -20 -20 -20 -1 -6 14 -18 12 12 -3 -19 3 15 3
-20 -20 -20 -20 -20 -20 -20 -20 -20 7 -12 -5 -20 -16 -0 -20 -20 -20 -20 -20 -20 -20 -20 -20 -20 -20 -20 -20 -20 -20 -20 -16 -10 -20 -13 -20 3 -20 0 20 28 11 28 23
-20 -20 -20 -20 -20 -20 -20 -20 -6 7 -15 10 -20 -20 -20 -20 -20 -20 -20 -20 -20 -20 -20 -20 -20 -20 -20 -20 -20 -20 -20 -15 10 -7 -20 -20 -20 11 15 22 31 4 24 -1
-20 -20 -20 -20 -20 -20 -20 -18 9 2 -20 -20 -20 -20 -20 -20 -20 -20 -20 -20 -20 -20 -20 -20 -20 -20 -20 -20 -20 -20 -20 -17 1 -0 -20 -20 -20 -4 -9 -1 25 30 27 14
-20 -20 -20 -20 -20 13 -16 2 -20 -20 -20 -20 -16 -8 -3 -20 -20 -20 -20 -20 -20 -20 -20 -20 -20 -20 -20 -20 -20 -20 -20 -20 8 -7 -20 -20 -20 -20 -20 -15 -10 19 21 25
-20 -20 -20 -20 -19 12 -20 -20 -20 -20 -20 -20 -17 -8 -20 -20 -20 -20 -20 -20 -20 -20 -20 -20 -20 -20 -20 -20 -20 -20 -20 -20 -12 11 5 -20 -20 -20 -20 -12 0 10 21 20
-20 -20 -20 -20 -3 -4 9 -20 -2 -20 -20 -20 -20 -16 -20 -20 -20 -20 -20 -20 -20 -20 -20 -20 -20 -20 -20 -20 -20 -20 -20 -20 -20 -19 14 9 -20 -20 -20 -20 -20 -3 -5 6
-20 -20 -20 -20 -19 5 2 2 -5 -5 -16 -20 -2 -16 -20 12 -13 -20 -20 -20 -20 -20 -20 -20 -20 -20 -20 -20 -20 -20 -20 -20 -20 -20 -19 -13 -13 -20 -20 -20 -20 -20 -20 -20
-20 -20 -20 -20 23 18 27 26 5 12 -18 -20 -13 -20 16 -10 -2 -20 -20 -20 -20 -20 -20 -20 -20 -20 -20 -20 -20 -20 -20 -20 -20 -20 -20 -20 -20 -20 -20 -20 -20 -20 -20 -20
-20 -20 -20 -20 6 -2 5 24 26 26 15 -20 -14 3 18 -2 -17 -20 -20 -20 -20 -20 -20 -20 -20 -20 -20 -20 -20 -20 -20 -20 -20 -20 -20 -20 -20 -20 -20 -20 -20 -20 -20 -20
-20 -20 -20 -20 -20 13 11 35 21 11 -14 -20 -13 24 9 3 1 -20 -20 -20 -20 -20 -20 -20 -20 -20 -20 -20 -20 -20 -20 -20 -20 -20 -20 -20 -20 -20 -20 -20 -20 -20 -20 -20
-20 -19 -20 -20 -20 -11 9 2 15 13 10 13 27 30 13 7 -8 -2 -20 -20 -20 -20 -20 -20 -20 -20 -20 -20 11 -20 -20 -20 -20 21 -20 -20 -20 -20 -20 -20 8 -20 -20 -20
-20 -20 -20 -20 -20 -2 -19 -17 -18 -1 25 11 1 12 38 19 11 -17 12 -3 -20 -20 -20 -20 -20 -20 -20 -20 -10 -10 -10 -20 -20 -20 -20 -20 -20 -20 -20 -20 -20 -20 1 -19
-20 -20 -20 -6 -6 10 12 16 -13 24 30 18 -19 5 18 38 23 -19 -19 9 9 -18 -20 -20 11 -20 -20 -20 -20 -20 0 9 0 2 -20 -20 -20 -20 -13 -20 -20 -20 -20 -20
-20 -20 -20 -20 -20 -20 -20 24 16 -3 -3 4 -20 -12 18 38 37 24 -8 -20 10 20 1 -20 -20 -20 -20 -20 -20 -9 -20 -20 -18 -19 -19 -13 21 -20 -20 7 -11 -20 -20 -20
-20 -20 -20 -20 -20 -20 -20 11 9 31 18 15 -20 -20 9 32 37 34 22 12 -9 12 -20 4 12 -20 -20 -20 -20 -20 -20 -20 -20 -20 -20 -20 -20 26 -20 -15 26 -20 -20 -20
8 17 -20 -20 -20 -20 -20 -20 7 17 26 18 17 1 27 25 33 8 20 25 29 24 17 23 14 -3 1 -17 -20 -20 -20 -20 -20 -20 -20 -20 -20 -20 -20 -13 13 -17 -7 -17
-20 -20 -20 -20 -20 -20 -20 -20 -19 -1 19 -2 5 33 33 23 28 34 -6 -6 20 18 9 17 13 -10 -13 -20 -2 -20 -20 -20 -20 -20 -20 -20 -20 -20 -20 -20 1 13 -8 -0
-20 -20 -20 -20 -20 -20 -20 16 -2 14 -14 -20 29 29 25 26 21 13 17 -8 -11 4 5 11 10 9 2 -20 -20 -20 -20 -20 -20 -20 -20 -20 -20 -20 -20 -20 -20 -20 -15 20
-20 -20 -20 -18 -20 -18 -20 0 9 -20 0 -15 3 16 -20 -20 -20 -20 -19 -8 5 1 8 -7 -20 -20 -20 -20 -20 -20 -20 -20 -20 -20 -20 -20 -20 -20 -20 -20 -20 -20 -20 -20
-20 -20 -20 -20 -18 -20 -20 -20 4 2 29 16 -6 13 1 -20 -20 -20 -13 11 8 7 -4 -18 -20 -20 -20 -20 -20 -20 -20 -20 -20 -20 -20 -20 -20 -20 -20 -20 -20 -20 -20 -20
-20 -20 -20 -7 3 5 -20 -20 -10 27 21 29 17 4 15 -11 -20 -18 -9 -20 -20 -20 -20 -20 -20 -20 -20 -20 -20 -20 -20 -20 -20 -20 -20 -20 -20 -20 -20 -20 -20 -20 -20 -20
26 12 9 -20 -20 4 -20 -20 -20 5 28 16 34 24 20 14 1 -20 -20 -20 -20 -20 -20 -20 -20 -20 -20 -20 -20 -4 -9 -20 -20 -20 -20 -20 -20 -20 -20 -20 -20 -20 -1 11
23 15 26 15 -14 -17 -20 21 -20 -20 -3 -17 -2 -19 -20 -20 -20 -20 -20 -20 -20 -20 -20 -20 -20 -20 -20 -20 -20 -20 -18 -20 -20 -20 -20 -20 -20 -20 -20 -20 -20 -20 -20 1
9 -20 5 31 4 -3 3 13 11 -6 4 -2 -20 -20 -20 -20 -20 -20 -20 -20 -20 -20 -20 -20 -20 -20 -20 -20 -20 -20 -19 -20 -20 -20 -20 -20 -20 -20 -20 -18 4 0 8 -3
18 -4 16 19 28 36 27 6 16 35 19 -14 -20 -20 -20 -20 -18 -20 -20 -20 -20 -20 -20 -20 -20 -20 -20 -20 -20 -20 -20 -20 -20 -20 -20 -20 -20 -20 -20 -20 -20 -17 3 7

GFSCGP_prec_radar_069.txt.gz
Reflectivity
-20 -20 -20 -20 -20 -20 -20 -20 -20 -20 -20 -11 -20 -20 -20 -20 -19 -20 -20 -20 -20 -20 -20 -20 -20 -20 -20 -20 -20 -20 5 1 -1 -20 -16 11 6 -20 2 -20 -5 19 33 28
-20 -20 -20 -20 -20 -20 -20 -20 -20 -20 -12 -6 -20 -20 -20 -20 -20 -20 -20 -20 -20 -20 -20 -20 -20 -20 -20 -20 -20 -20 -19 4 -16 -15 -20 -9 -19 -20 -20 -20 -20 -18 -6 17
-20 -20 -20 -20 -20 -20 -20 -20 -20 -20 10 -6 -20 -20 -20 -20 -20 -20 -20 -20 -20 -20 -20 -20 -20 -20 -20 -20 -20 -20 -20 -20 11 -6 -7 -20 20 -20 -20 -20 4 -14 -17 11
-20 -20 -20 -20 -20 -20 -20 -20 -20 -20 -20 -20 -20 -20 -20 -20 -20 -20 -20 -20 -20 -20 -20 -20 -20 -20 -20 -20 -20 -20 -20 -20 -20 -20 -9 -14 -20 -14 -8 -18 11 28 12 -9
-20 -20 -20 -20 -20 -20 -20 -19 5 -20 -20 -20 -20 -20 -20 -20 -20 -20 -20 -20 -20 -20 -20 -20 -20 -20 -20 -20 -20 -20 -20 -20 -20 -20 -13 6 10 3 10 11 1 -3 31 1
-20 -20 -20 -20 -20 -20 -20 2 -20 -20 -20 -20 -20 -20 -20 -20 -16 -7 -20 0 -20 -20 -20 -20 -20 -20 -20 -20 -20 -20 -20 -20 -20 -20 -20 -20 -20 -15 -4 -3 3 5 25 15
-20 -20 -20 -20 -20 -19 -20 20 9 -2 -13 -20 -20 -20 -20 -18 11 3 13 -11 -20 -20 -20 -20 -20 -20 -20 -20 -20 -20 -20 -20 -20 -20 -20 -20 -20 -20 11 3 7 -14 -5 14
-20 -20 -20 -20 -20 -20 -20 3 11 -9 -2 -20 -20 -20 -20 7 2 -20 -20 -20 -20 -20 -20 -20 -20 -20 -20 -20 -20 -20 -20 -20 -20 -20 -20 -20 -20 -20 -19 16 12 -3 -20 1
-20 -20 -20 -20 -20 -20 10 16 18 -5 -4 -20 -20 -20 -8 15 -14 -20 -20 -20 -20 -20 -20 -20 -20 -20 -20 -20 -20 -20 -20 -20 -20 -20 -20 -20 -20 -20 -20 -20 8 15 -20 -20
-20 -20 -20 -20 -20 -20 26 18 26 28 16 -18 -15 -2 -20 -12 -18 -20 -20 -20 -20 -20 -20 -20 -20 -20 -20 -20 -20 -20 -20 -20 -20 -20 -20 -20 -20 -20 -20 -20 -20 -20 -20 -20
-20 -20 -20 -20 -20 -20 23 27 34 28 8 -20 -3 21 -20 -20 -20 -20 -20 -20 -20 -20 -20 -20 -20 -20 -20 -20 -20 -20 -20 -20 -6 -20 -20 -20 -20 -20 -20 -20 -20 -20 -20 -20
-7 -3 -20 -20 -20 -20 -20 -16 28 23 20 -19 17 8 -19 -20 -20 -20 -20 -20 -20 -20 -20 -20 -20 -20 15 1 -18 -20 -20 -20 -20 -20 -20 -20 -20 -20 -20 -20 -20 -20 -20 -20
-20 -8 -20 -20 -20 -17 7 4 26 27 21 -10 9 13 21 15 -20 -20 -20 -20 -20 -20 -20 -20 -20 -20 -14 25 27 -20 0 7 12 -8 -20 -20 -20 -20 -20 -20 -20 -20 -20 -20
-20 -20 -20 -20 -0 11 -3 -18 18 28 20 -20 -16 13 32 20 -4 -20 -20 -20 12 21 19 21 20 20 24 25 29 28 6 -20 -19 -8 -5 -12 -17 -20 -16 -20 -20 -20 -20 -20
-20 -20 -20 -20 -20 -20 -20 -20 8 17 25 30 -11 -0 13 31 34 33 -15 -8 5 -20 -11 -9 7 16 13 15 17 17 -20 -20 -20 -20 -20 -20 -20 -19 15 25 -20 -20 -20 -20
-19 -20 -20 -20 -20 -20 -20 -20 -16 15 23 20 -11 -20 19 30 31 35 34 13 -13 21 -20 -20 -20 -20 -20 -20 -20 -20 -20 -20 -20 -20 -20 -20 -20 -8 10 12 -14 -6 11 27
-8 14 -20 -20 -20 -20 -20 -20 -20 -18 -20 3 22 -13 16 16 17 29 35 32 24 15 20 18 -6 18 3 -20 -20 -20 -20 -20 -20 -20 -20 -20 -20 -7 -4 11 8 15 19 1
-20 -20 -20 -20 -20 -20 -20 -20 -20 -20 -20 11 -5 10 18 14 18 36 28 33 31 28 24 -6 -0 26 2 -20 -20 -20 -20 -20 -20 -20 -20 -20 -20 -20 -20 -20 -20 13 11 12
-20 -20 -20 -20 -20 -20 -20 -20 -20 -20 -20 -20 -8 -17 -10 17 12 22 28 28 33 31 26 20 4 11 8 11 8 -19 -20 -20 -20 -20 -20 -20 -20 -20 -20 -20 -20 -20 -20 -15
-20 -20 -20 -20 -6 -20 -20 -20 -20 -20 -20 -20 -20 22 20 19 21 32 34 35 30 24 28 22 13 4 9 -20 -20 -20 -20 -20 -20 -20 -20 -20 -20 -20 -20 -20 -20 -20 -19 -20
-20 -20 -20 -20 -4 -17 -20 -20 -20 -20 -20 -20 -20 6 24 31 21 6 15 26 31 16 3 2 0 1 11 5 -5 -5 -9 -20 -20 -20 -20 -20 -20 -20 -20 -20 -20 -20 -20 -20
-20 -20 -20 -19 6 -12 -20 -20 -20 -20 -20 -20 -20 -18 0 8 7 -1 -8 -13 5 2 -14 -9 -11 -20 -20 -20 -20 -20 -20 -20 -20 -20 -20 -20 -20 -20 -20 -20 -20 -20 -20 -20
0 22 6 -20 -20 -20 -20 -20 -20 -20 -12 28 24 20 25 -1 32 23 16 16 -19 -20 -20 -20 -20 -20 -20 -20 -10 -7 -20 -20 -20 -20 -20 -20 -20 -20 -20 -20 -20 -20 -20 -20
4 36 34 31 8 -8 -20 -20 10 -20 -20 -14 -4 38 41 39 35 32 21 -20 -20 -20 -20 -20 -20 -20 -14 -20 -20 -20 -20 -20 -20 -20 -20 -20 -20 -20 -20 -20 -20 -20 -20 -20
24 -8 -20 13 30 8 11 -10 -8 11 12 21 11 -19 -11 12 -1 -14 -20 -13 -20 -20 -20 -20 -20 -20 -20 -20 -20 -20 -20 -20 -20 -20 -20 -20 -20 -20 -20 -19 -19 -18 -20 -20
12 -9 -17 -1 25 22 20 28 4 5 6 2 -14 -5 -16 -20 -14 -16 -20 -20 -20 -20 -20 -20 -20 -20 -20 -20 -20 -20 -18 -20 -20 -20 -20 -20 -20 -20 -20 -20 -20 -12 -20 -20

GFSCGP_prec_radar_075.txt.gz
Reflectivity
-16 -20 -20 12 19 8 -20 -20 -20 -20 -20 -20 -20 -20 -20 -20 -20 -20 -20 -20 -20 -20 -20 -20 -20 -20 -20 -20 -20 -20 -20 -20 3 11 -5 -8 -5 -20 -17 -7 12 -1 19 33
-18 -20 -19 -18 -10 -20 -20 -20 -20 -20 -20 -20 -20 -20 -20 -20 -20 -20 -20 -20 -20 -20 -20 -20 -20 -20 -20 -20 -20 -20 -20 -12 -7 -20 -19 4 -19 -20 -12 -20 3 3 20 35
-13 -20 -2 -5 -20 -20 -20 -20 -20 -20 -20 -20 -20 -20 -20 -20 -20 -20 -20 -20 -20 -20 -20 -20 -20 -20 -20 -20 -20 -20 -20 -14 -13 2 -20 3 -15 -20 -0 -17 8 16 32 33
-20 -15 -6 -20 -20 -20 -20 -20 -20 -20 -20 -20 -20 -20 -20 -20 -20 -20 -20 -20 -20 -20 -20 -20 -20 -20 -20 -20 -20 -20 -20 -20 -20 -20 8 -3 1 -18 14 -20 18 21 19 32
-20 -15 -9 -20 -3 -20 -20 -20 -20 -20 -18 -0 -20 -20 -20 -20 -20 -20 -20 -20 -20 -20 -20 -20 -20 -20 -20 -20 -20 -20 -20 -20 -20 -20 -17 -19 -4 5 -16 13 -3 2 20 14
-19 -20 -20 -20 -20 -20 -20 -20 -20 -20 -0 3 -20 -20 -20 -20 -20 -20 -20 -20 -20 -20 -20 -20 -20 -20 -20 -20 -20 -20 -20 -20 -6 -20 -20 -14 -5 -12 -20 -7 6 -9 13 27
-20 -20 -20 -20 -20 -20 -20 -20 -6 -6 4 -20 -20 -20 -20 -20 -19 -20 -20 -20 -20 -20 -20 -20 -20 -20 -20 -20 -20 8 -20 -20 -18 -20 -18 -11 7 9 -6 -18 -15 -20 -20 8
-20 -20 -20 -20 -20 -20 -20 -20 -19 -0 -20 -20 -20 -20 -20 -20 -20 -20 -20 -20 -20 -20 -20 -4 -18 -20 -20 -20 -20 -19 -20 -20 -11 -20 -16 -8 -19 5 10 4 10 -9 -10 3
-20 -20 -20 -20 -20 -20 -20 -2 -11 17 -20 13 -20 -20 -20 -20 -20 -20 -20 -20 -20 -20 -20 4 -11 -20 -20 -20 10 -3 -20 -20 -7 -19 -20 -20 -20 -20 -20 -19 4 -20 1 -4
-20 -20 -20 -20 -20 -20 -20 -3 18 6 -12 3 -20 -13 3 -20 -20 -20 -20 -20 -20 -20 -20 -17 -4 -20 -20 -20 0 -4 -20 -19 -18 9 -1 -20 -20 -20 -20 -20 8 -1 14 13
-20 -20 -20 -20 -20 -20 -0 -20 6 27 4 -18 7 19 21 1 -20 -20 -8 -12 6 -20 -5 -10 -20 -20 -20 -20 10 13 -1 -20 -20 -20 -18 -7 -18 -20 -20 -20 -19 -20 -20 -8
-20 17 -20 -20 -20 -20 1 3 -19 12 -8 24 -8 -11 28 26 -18 -20 -4 -14 -7 6 10 15 4 -3 -18 11 7 16 -19 -10 -20 -20 -20 -20 -19 -20 -20 -20 -20 -20 -20 -20
-6 16 8 -14 -12 -20 -20 5 32 28 24 -5 14 15 35 28 -7 9 -17 7 12 13 18 19 10 13 11 18 16 13 5 -5 -10 -8 -20 -14 -6 -20 -20 -20 -20 -20 -20 -20
-9 -20 14 17 -9 -20 -20 -20 -20 -3 15 15 26 11 20 34 28 14 7 19 0 15 22 4 -0 16 17 23 13 18 26 18 25 -8 -13 8 -20 -18 -19 -20 -20 -20 -20 -20
5 -20 20 18 -20 -20 -20 -20 -20 -20 1 -18 -20 -17 -6 12 27 37 20 15 23 25 19 18 17 15 18 17 22 27 26 20 15 8 -7 17 1 6 9 1 -6 -15 -20 -20
35 -1 27 5 -20 -20 -20 -20 -20 -20 -20 -16 -20 -20 -20 -20 0 27 32 24 17 21 18 18 22 11 3 19 21 23 12 -20 6 -9 8 -13 10 13 11 12 4 -2 -2 4
27 29 13 -20 -20 -20 -20 -20 -20 -20 -20 3 -20 -20 8 4 7 5 24 22 3 22 6 8 -10 -13 -15 -20 2 -20 -20 -14 -5 21 24 -15 -20 -18 -11 -9 2 -3 3 11
20 14 14 -7 -20 -20 -20 -20 -20 -4 -5 -20 -20 -12 -20 21 33 6 13 19 24 29 -3 11 11 -4 -20 -14 -20 -20 2 -13 8 31 6 -11 -20 -20 -20 -20 -20 -20 -20 -11
-13 12 11 -20 -20 -20 -20 -20 -20 -16 -20 -20 -20 -19 -20 -4 20 17 23 20 13 27 28 21 15 26 -1 -8 19 12 30 31 6 -19 -16 -10 -20 -20 -20 -20 -20 -20 -12 -20
-20 -20 -20 -20 -19 -20 -20 -20 -20 -20 -20 -19 -20 -20 -20 -18 18 11 16 36 35 32 22 24 10 18 22 22 14 1 7 -6 1 4 8 5 -20 -20 -20 -20 -20 -20 -20 -20
-19 -20 -20 4 4 -20 -20 -20 -20 -20 -20 -20 -20 -20 -20 -5 13 32 29 17 32 30 19 17 6 2 18 26 24 11 6 12 -19 -8 -20 -20 -20 -20 -20 -20 -20 -20 -20 -20
19 -20 -20 -2 2 -20 -20 -20 -20 -12 2 -12 -20 -15 -3 -6 12 17 28 27 29 24 11 -14 -17 -13 -19 -20 -6 9 1 14 5 -12 -5 -6 -14 -13 -12 -20 -20 -20 -20 -20
-20 -18 16 -20 -20 -20 -20 -20 -2 14 -2 6 -20 -19 27 17 30 23 19 25 24 26 -0 -20 -20 -20 -20 -20 -20 -20 -13 1 3 1 3 -0 -7 -20 -20 -20 -20 -20 -20 -20
-14 3 -1 -3 26 6 2 -18 -0 16 15 12 0 -20 -1 26 23 26 29 27 25 25 16 -17 -20 -20 -20 -20 -19 -20 -20 -20 -20 -20 -6 -1 -9 -20 -20 -20 -18 -20 -20 -20
7 4 -2 39 32 24 11 15 3 3 -8 -4 17 13 -2 10 19 15 15 17 21 23 11 -6 -20 -20 -20 -20 -20 -20 -20 -20 -20 -19 -20 -20 -20 -20 -16 1 -0 1 6 -0
0 0 13 6 9 4 2 3 2 2 6 18 1 -8 6 3 19 18 17 10 10 8 4 -13 -20 -20 -20 -20 -20 -20 -20 -20 -20 -20 -20 -20 -20 -20 -20 -20 -20 -6 -2 -1

GFSCGP_prec_radar_078.txt.gz
Reflectivity
-20 -20 -20 -8 10 -12 -20 -20 6 -1 7 9 -13 -20 -20 -20 -20 -20 -20 -20 -20 -20 -20 -20 -20 -20 -20 -20 -20 -20 -16 -11 1 7 3 6 16 3 -2 5 -3 7 26 41
-20 -20 -20 -20 -20 -20 -20 -20 -20 9 9 -3 -19 -20 -20 -20 -20 -20 -20 -20 -20 -20 -20 -20 -20 -20 -20 -20 -20 -20 -20 -13 -17 -6 -14 -5 -5 13 5 8 1 -0 14 16
-20 -20 -20 -20 -20 -20 -20 -20 -20 -20 1 -20 -20 -20 -20 -20 -20 -20 -20 -20 -20 -20 -20 -20 -20 -20 -20 -20 -20 -20 -20 -20 -7 -20 0 8 -0 7 15 13 6 -10 20 -10
-20 -20 -20 -20 -20 -20 -20 -20 -20 -20 -20 -20 -20 -20 -20 -20 -20 -20 -20 -20 -20 -20 -20 -20 -20 -20 -20 -20 -20 -20 -20 -20 -20 -20 -0 -13 -17 -4 2 -6 -19 5 2 16
-20 -20 -20 -20 -20 -20 -20 -20 -20 -20 -20 -20 -20 -20 -20 -20 -20 -20 -20 -20 -20 -20 -20 -20 -20 -20 -20 -20 -20 -20 -20 -20 -20 -20 -20 -9 4 -19 7 -3 3 7 -2 2
-20 -20 -20 -20 -20 -20 -20 -19 -20 -20 -20 -13 -20 -20 -20 -20 -20 -20 -20 -20 -20 -20 -20 -20 -20 -20 -20 -20 -20 -20 -20 -20 -20 -20 -4 -18 -18 -9 16 7 11 11 -10 15
-20 -20 -20 -20 -20 -20 -20 -20 -20 -14 3 -20 -20 -20 -20 -20 -20 -20 -20 -20 -20 -20 -20 -20 -20 -20 -20 -20 -20 -20 -20 -20 -20 -20 -16 2 7 0 -20 -8 -20 1 -3 15
-20 -20 -20 -20 -20 -20 -18 -20 -20 -13 -5 -18 -20 -20 -20 -20 -20 -20 -20 -20 -20 -20 -20 -20 -20 -20 -20 -20 -14 -20 -20 -20 -3 -20 -17 7 -20 -20 -20 1 19 17 -1 2
-20 -19 -20 -20 -20 -20 8 -1 -20 9 -17 6 -20 -20 -20 -20 -20 -20 -20 -20 -20 -20 -20 -20 -20 -20 -20 -20 -5 -13 -20 -20 -15 -20 -12 9 2 13 3 -15 -20 -20 -4 -9
-20 -20 -20 -20 -20 -20 1 -20 -8 17 10 4 -20 -20 -2 -5 -15 -20 -20 -20 -20 -20 -20 -20 -20 -20 -20 -20 -9 11 -20 -18 -20 -20 -20 -20 8 11 -20 -20 -20 3 2 11
-20 -20 9 -19 -6 -8 -16 14 -12 -4 13 12 9 18 21 -18 -20 -6 -9 -20 -20 -16 1 -20 -20 -15 -13 -20 7 6 -20 -7 -1 -20 -20 -16 -19 -3 -20 -13 -20 -20 -14 10
10 21 19 -20 -20 -20 -20 17 18 18 22 15 14 10 7 13 -20 -20 -20 -20 -3 9 -6 -11 -0 3 3 10 9 16 -8 -17 -4 1 -20 -19 -16 9 12 -4 -14 -20 7 13
-2 10 20 19 -11 -9 -9 21 -20 -19 -16 11 13 27 17 32 -0 17 4 9 -3 19 17 7 -2 13 8 11 14 23 14 -10 -0 13 -11 -1 -2 -18 -13 6 11 14 10 -13
30 4 -15 13 2 18 23 1 -20 -20 -20 -9 -20 -20 15 24 26 30 -4 5 9 10 21 14 11 12 14 17 18 21 3 13 13 16 -14 -20 -9 0 4 -8 11 8 10 13
14 31 16 -20 -9 -1 7 -20 -20 -20 -20 -20 -20 -20 -20 -7 10 3 21 18 13 23 21 24 3 15 19 20 18 24 19 17 20 11 5 -14 -20 -14 -2 15 19 8 0 14
18 30 8 4 -6 17 -20 -20 -20 -20 -20 -20 -20 -17 -20 19 22 -6 4 18 28 27 23 19 12 15 20 21 17 21 15 17 16 2 -3 15 20 -16 4 -5 7 2 -3 12
28 33 15 17 9 11 -20 -20 -20 -20 -20 -0 2 -1 -14 19 -11 5 -1 2 31 36 27 23 26 19 22 22 18 20 21 19 10 -5 -14 -18 14 13 -9 13 14 14 18 2
28 30 7 4 -20 -20 -20 -20 -20 -20 -20 -12 -20 16 -20 -12 -15 32 18 17 29 32 36 18 16 16 13 19 19 10 -10 23 -6 -2 0 -20 6 25 7 -20 -17 -14 -12 1
20 32 21 11 -20 -20 -20 -20 -20 -20 -14 -20 -19 -4 -20 12 13 28 34 18 34 29 26 43 27 19 23 9 4 5 -20 -19 -16 -8 -16 -20 26 25 11 -14 -20 -18 -20 -20
12 7 24 15 -14 -20 2 -20 -20 -20 -20 -20 -20 -5 -3 -20 25 8 9 9 19 26 33 31 17 -2 22 31 18 9 -14 -20 -20 -10 3 14 17 29 2 1 -16 -20 -20 -20
-2 6 18 17 5 -12 -20 -20 -20 -20 4 -20 -20 -20 -12 1 -7 4 13 21 16 13 7 27 26 -9 -9 12 17 31 23 16 23 27 13 19 28 20 -11 3 5 -2 -20 -20
16 17 12 12 6 5 -20 -20 -20 -2 -13 -20 -20 -20 -15 2 3 0 20 23 23 22 19 12 7 10 -10 -19 -20 -16 -18 1 15 7 1 -14 -2 5 6 22 17 -20 -14 -20
18 11 23 21 20 -20 -20 -20 -6 -20 -8 -2 -9 -5 -20 -6 8 15 23 24 25 25 18 3 -17 -20 -20 -20 -20 -20 -20 -20 -5 20 20 17 16 6 8 4 1 -5 -15 -20
17 -20 -8 -13 -5 -0 6 -6 -4 -3 -3 -17 -12 -20 2 3 -4 22 23 22 24 20 13 -19 -20 -20 -20 -20 -20 -20 -20 -20 -20 -20 -20 -13 -16 -20 -17 -14 -4 -10 -20 -20
-3 -13 -3 1 11 29 20 7 -9 -3 -8 -14 12 8 16 17 10 6 9 16 21 21 23 16 -2 -14 -20 -20 -20 -20 -20 -20 -20 -20 -20 -20 -20 -20 -8 -3 -1 -3 1 -2
2 -2 5 4 17 20 12 1 -2 -17 -7 15 5 2 5 13 10 19 13 -8 -3 14 15 8 -20 -20 -20 -20 -20 -20 -20 -20 -20 -20 -20 -20 -20 -20 -20 -20 -3 -1 -0 -2

GFSCGP_prec_radar_081.txt.gz
Reflectivity
-20 -20 -20 -20 -20 -20 -20 -20 -20 -20 -8 -20 -20 -4 -20 -20 -20 -20 -20 -5 -20 -20 -20 -20 -20 -20 -20 -20 -20 -20 -20 -20 -20 -20 -20 -20 0 -6 7 6 1 -3 -3 22
-20 -20 -20 -20 -20 -20 -20 -20 -20 -18 -16 -20 -20 -20 -20 -20 0 -7 4 -20 -20 -20 -20 -20 -20 -20 -20 -20 -20 -20 -20 -20 -20 -20 -20 -20 -4 8 3 8 7 -7 -4 9
-20 -15 -19 -20 -20 -20 -20 -20 -20 -20 -14 -20 -20 -20 -11 -17 -20 6 -4 -9 -20 -20 -20 -20 -20 -20 -20 -20 -20 -20 -20 -20 -20 -20 -20 -20 -12 11 13 18 20 -12 -4 11
-20 -20 -20 -20 -20 -20 -20 -20 -20 -20 -19 -20 -15 -19 -9 -20 10 5 -20 -20 -20 -20 -20 -20 -20 -20 -20 -20 -20 -20 -20 -20 -20 -20 -20 -13 -2 1 7 -1 4 -0 13 20
-20 -20 -20 -20 -20 -20 -20 -20 -20 -20 -20 -20 -20 -20 3 -14 5 -20 -20 -20 -20 -20 -20 -20 -20 -20 -20 -20 -20 -20 -20 -20 -20 -20 -20 -20 -20 7 -20 4 8 6 2 -7
-20 -20 -20 -20 -20 -20 -20 -20 -20 -20 -20 -20 4 -18 -8 -18 -20 -20 -20 -20 -20 -20 -20 -20 -20 -20 -20 -20 -20 -20 -20 -20 -20 -20 -20 -20 -20 1 -11 7 6 -0 -2 -4
-15 -20 -20 -20 -20 -20 -20 -20 -20 -20 -2 -20 -2 -20 -20 2 -20 -20 -20 -20 -20 -20 -20 -20 -20 -20 -20 -20 -20 -20 -20 -20 -20 -20 -20 -20 -20 5 -20 3 2 5 -9 -16
-20 -20 -9 -20 -20 -20 -20 -20 -20 8 8 15 27 -13 7 -20 -20 -20 -20 -20 -20 -20 -20 -20 -20 -20 -20 -20 -20 -20 -20 -20 -20 -20 -20 -20 -20 -18 6 9 2 -9 -6 -8
-20 -19 -16 -20 -20 -20 -20 -20 -20 -19 -20 -20 -20 -20 -20 -17 -20 -15 -19 -20 -20 -20 -20 -20 -20 -20 -20 -20 -20 -20 -20 -20 -20 -20 -20 -20 -20 -19 4 -0 6 15 14 9
-20 -20 -9 7 -20 -20 -20 -10 22 10 -1 10 -10 -1 29 -3 -8 -20 -10 -20 -20 -20 -20 -20 -20 -20 -20 -20 -20 -20 -20 -20 -19 -20 -20 -20 -6 -20 4 4 -5 -20 -20 -20
-20 -20 -20 -20 -20 -20 -16 -19 -2 13 -5 20 12 24 2 -20 -20 -20 -20 -20 -20 -20 5 -19 -20 -20 -20 -20 -16 4 11 3 3 -18 -20 -11 -1 -1 4 7 11 -16 14 -1
14 -8 -20 -20 -20 -5 -10 -3 -12 20 16 19 8 16 -9 -20 -20 -20 -20 -20 -20 -20 14 5 5 0 -1 -20 14 22 8 -2 7 -9 -10 -13 -8 -18 7 5 8 9 2 3
-6 16 15 -13 -11 -3 -20 -20 -19 13 -20 -18 21 25 16 -0 -20 -20 -20 -20 -20 -18 7 15 22 11 10 10 18 16 18 -7 -9 20 -2 1 -6 7 -8 -20 -20 -20 -20 -20
-8 -17 16 3 24 10 26 -20 -20 21 15 18 22 1 1 0 -5 -20 -20 -4 -18 -3 15 17 16 20 16 19 12 19 12 20 -6 5 -8 10 -7 6 -2 9 9 -7 -8 -20
21 -8 -20 -2 -10 -7 -8 32 3 23 19 -20 -17 -16 -16 8 -16 -18 12 3 -2 12 12 22 17 18 18 20 18 16 19 21 17 14 -0 6 -20 -20 -20 -20 -20 -16 -7 -3
20 -8 11 -20 18 14 -20 10 -17 -20 -20 -20 -20 -20 14 23 -16 -20 -20 -10 17 25 14 22 20 22 21 15 21 20 20 14 10 16 14 11 16 4 -0 5 3 -10 -20 -20
20 20 11 -16 24 15 -19 -9 3 -9 -20 -20 1 21 -5 -20 -8 -20 -20 -3 14 24 15 17 28 23 25 20 15 19 19 21 21 18 20 24 10 12 18 8 10 13 8 -2
16 13 13 17 21 18 -20 2 11 -20 -20 -20 -12 -20 -13 -13 -15 -4 -2 18 29 22 33 28 25 24 24 23 18 22 21 20 27 18 27 23 23 15 5 16 24 23 21 5
-14 7 17 33 18 -20 -20 -16 -11 5 29 -7 -6 -17 -20 -20 -20 -2 17 26 12 28 30 33 29 23 26 17 19 12 23 27 23 24 29 -11 -11 20 23 -16 22 15 19 15
7 23 21 18 16 9 25 -20 -20 -20 18 -20 -20 -20 -20 -20 0 -5 5 3 11 22 32 35 39 38 24 24 13 11 20 18 21 14 31 21 15 -20 -20 -14 26 18 11 7
15 9 20 22 15 16 -20 -20 -20 -20 6 1 -20 -20 -20 -19 -9 -0 -3 7 19 23 24 35 35 37 39 38 38 32 12 2 5 4 6 -14 -6 -10 5 15 24 23 0 -10
12 19 19 17 20 20 -20 -18 -4 8 -13 -12 -20 -20 -20 -13 -12 -0 8 10 17 19 33 33 35 29 25 19 19 24 30 34 30 14 8 12 14 17 13 8 12 29 29 18
17 5 30 13 23 2 -20 -7 -18 -5 -4 -3 -20 -20 -20 -18 -15 2 6 7 14 28 27 14 13 0 -12 -7 4 1 -14 -5 -7 9 25 35 32 29 23 26 28 26 19 15
23 -20 4 13 -3 -4 -4 -4 -13 -5 -4 -18 -20 -18 -18 -20 -12 -11 3 10 14 18 14 6 -15 -20 -20 -20 -20 -20 -20 -20 -17 -8 -20 -20 -20 -20 -15 -3 9 11 14 15
-1 3 -10 -5 -19 -17 -6 7 10 3 -2 -0 4 2 -1 4 1 -3 3 13 16 19 18 11 12 7 3 -5 -19 -20 -20 -20 -20 -20 -20 -20 -20 -20 -20 -19 -4 -12 -2 -18
-12 4 1 7 -3 -10 5 11 10 7 1 8 -4 -14 -4 -16 4 11 12 11 9 11 18 17 14 6 -20 -15 -8 -20 -20 -20 -20 -20 -20 -20 -20 -20 -20 -20 -20 -20 -11 -20

GFSCGP_prec_radar_084.txt.gz
Reflectivity
-20 -20 -20 -20 -20 -20 -20 -20 -20 -20 -20 -20 -20 -20 -20 -20 -20 -12 -20 -20 -18 -20 -20 -20 -20 -20 -20 -20 -20 -20 -20 -20 -20 -20 -20 -20 -20 4 -20 -15 -20 9 -4 -20
-20 -20 -20 -20 -20 -20 -20 -20 -20 -20 -20 -20 -20 -20 -20 -20 -20 -20 -5 -2 -19 -20 -18 -20 -20 -20 -20 -20 -20 -20 -20 -20 -20 -20 -20 -20 -20 -20 -20 -12 -12 -1 -20 -16
-20 -20 -20 -20 -20 -20 -20 -20 -20 -20 -20 -20 -20 -20 -20 -20 -10 -2 -19 9 -19 -20 -20 -20 -19 -20 -20 -20 -20 -20 -12 -20 -20 -20 -20 -20 -20 -20 -20 -16 10 -20 -20 -20
-20 -20 -20 -20 -20 -20 -20 -20 -20 -20 -20 -20 -10 -17 -20 -20 10 -13 -14 -10 -15 -16 -17 -1 -18 -20 -20 -20 -20 -20 -20 -20 -20 -20 -20 -20 -20 -20 -20 -20 -2 -13 12 17
-20 -20 -20 -20 -20 -20 -20 -20 -20 -20 -20 -20 -20 -5 -20 -18 -19 -20 -10 -2 -17 8 3 -20 -20 -20 -20 -20 -20 -20 -20 -20 -20 -20 -20 -20 -20 -20 -20 -20 5 10 10 -20
-20 -20 -20 -20 -20 -20 -20 -20 -20 -20 -20 -20 -18 -9 -20 11 15 30 14 -20 -8 -10 -20 -20 -20 -20 -20 -20 -20 -20 -20 -18 -20 -20 -20 -20 -20 -20 -20 -16 7 2 -20 -19
-20 -20 -20 -20 -20 -20 -20 -20 -20 -17 -9 -19 7 4 -12 28 25 27 4 -0 -17 -20 -20 -20 5 -16 -20 -20 -20 -20 -20 -10 -20 -20 -20 -20 -20 -20 -15 -8 -2 -4 -20 -20
-20 -20 -20 11 -20 -20 -20 -20 -1 -5 11 -20 17 25 26 -15 22 -17 -20 -20 -20 -20 -20 -20 -20 -14 -15 -20 -20 -20 -20 -20 -20 -20 -20 -20 -20 -20 -20 -12 -20 -20 -20 -18
-20 -11 -7 -8 -20 -20 -20 -20 -20 -18 -20 -20 -8 16 29 28 -9 -6 -20 -20 -20 -20 -20 -20 -18 -20 4 -11 -20 -20 -20 -17 -18 4 -20 -20 -20 -20 -0 9 11 -19 -20 -3
-20 -14 -20 -20 -20 -20 -20 -20 14 21 11 -20 -8 10 6 34 17 -18 -20 -20 -20 -20 -20 6 -20 -20 -20 -5 29 -20 -20 -19 1 3 -20 -20 -20 -20 4 12 14 12 -20 -20
-1 -12 -20 -19 15 -20 -20 -20 -20 13 13 14 14 28 36 37 30 4 -20 -20 -20 -20 -20 -2 16 23 -20 -6 -20 -19 6 -6 -19 9 3 -20 -20 -18 9 -13 -19 -20 -15 9
-8 -6 14 -20 -20 10 -9 -13 1 16 -20 8 11 13 21 14 16 -18 -20 -20 -20 -20 -20 -20 0 19 24 24 -6 -6 4 -9 2 9 17 -20 10 10 3 5 10 10 -17 -19
-20 4 -0 -20 -1 -16 -11 -0 13 16 22 -19 16 10 13 12 -20 -20 -20 -20 -20 -20 -11 -1 -16 5 11 4 13 -11 21 16 18 -4 6 3 -11 6 15 13 11 14 -15 -5
-12 -20 11 -9 22 15 0 23 21 -8 21 13 1 10 4 13 4 -20 -20 -20 -20 -20 -9 6 11 -1 -5 19 -10 6 23 25 23 18 -17 -20 -14 -12 -12 9 2 16 11 -1
-18 4 -18 -2 -20 16 8 23 4 -17 24 13 -4 -5 19 23 17 1 -20 -20 -20 -20 -3 2 20 16 10 15 13 13 26 20 22 25 22 21 4 13 8 7 8 3 9 6
-8 -3 -6 -20 -20 -20 14 16 -4 -17 30 -2 11 2 -20 12 22 4 -20 -20 -20 -20 14 -14 6 18 15 29 1 15 17 23 24 -16 -8 12 2 -12 -20 6 10 11 14 4
10 21 19 -20 -19 -17 -20 -20 -20 7 25 24 15 23 -20 -20 -20 -20 -20 -20 -19 -4 1 17 8 19 21 23 17 21 18 23 22 9 13 4 -3 1 -20 -20 -20 -20 -20 6
-5 4 19 8 -5 -13 -20 -20 -20 -12 26 20 20 -2 -20 -20 -20 -10 -20 -13 -1 -3 1 22 21 11 26 27 26 22 26 24 9 16 14 14 11 17 18 4 10 6 -8 -2
-7 13 22 17 9 5 25 -20 -20 13 12 -19 -19 -20 -17 -20 -20 -6 -1 19 1 -3 4 3 28 21 33 27 27 25 27 31 21 28 27 25 14 15 22 23 24 23 21 17
-20 1 15 2 20 33 35 9 -20 -20 16 21 -20 -20 -20 -20 -10 -19 6 1 10 -1 2 21 21 31 33 34 32 25 26 28 33 37 34 24 27 30 23 25 27 16 18 8
-5 1 3 15 21 37 28 12 -20 -20 15 -3 -20 -20 -20 -20 -3 -0 4 2 -7 8 -0 10 11 25 23 37 35 25 30 33 30 28 31 37 26 35 34 25 17 -15 -7 -17
-18 16 5 8 23 25 14 4 -13 8 6 2 -20 -20 -20 -15 -6 -10 -0 6 3 16 13 11 5 20 32 31 31 29 31 28 31 32 36 36 30 30 42 36 28 15 12 13
21 21 25 9 20 14 -4 1 -7 -19 -13 -20 -20 -20 -20 -20 -7 -5 -4 -6 -14 11 6 8 23 10 1 21 29 26 30 39 38 38 32 29 29 34 19 18 18 14 10 -2
12 -9 20 26 5 2 -18 -1 -15 -14 -17 -17 -17 -12 -17 -5 -3 -5 -8 -1 -15 -0 4 -5 6 0 -16 5 13 18 14 12 16 14 21 22 21 11 18 19 17 13 17 18
-9 -14 -7 -4 -1 -12 -20 9 -5 4 -1 1 9 2 2 -10 0 3 10 2 3 4 12 2 -2 4 14 10 4 2 1 -13 -7 -14 6 9 11 11 9 -6 2 5 10 6
3 6 -3 4 1 -7 4 7 -9 -14 10 16 1 -1 -1 -20 -10 -5 7 10 5 9 15 13 15 18 3 -17 -19 -14 -14 -13 -16 -20 -18 -3 -6 -9 -15 -16 -20 -7 -20 -19

GFSCGP_prec_radar_087.txt.gz
Reflectivity
-20 -20 -20 -20 -20 -20 -20 -20 -20 -20 -20 -20 -20 -20 -20 -20 -20 -20 -20 -20 -20 -20 -20 -20 -20 -12 -3 -20 -20 -20 -20 -13 -20 -20 -20 -20 -20 14 -20 -20 -20 -20 -20 10
-20 -20 -20 -20 -20 -20 -20 -20 -20 -20 -20 -20 -20 -20 -20 -20 -20 -20 -20 -20 -20 -20 -20 -20 -20 -20 -20 -20 -20 -20 -20 -20 -20 -20 -20 -20 -20 -20 -20 -20 -20 -20 -15 0
-20 -20 -20 -20 -20 -20 -20 -20 -20 -20 -20 -20 -20 -20 -20 -20 -20 -20 -20 -20 -20 -20 -20 -20 -20 -9 -7 -20 -20 -20 -6 -20 -20 -20 -20 -20 -20 -20 -20 -20 -20 -20 1 -15
-20 -20 -20 -20 -20 -20 -20 -20 -20 -20 -20 -20 -20 -14 -20 -20 -20 -18 -20 -19 -20 -20 -20 -20 -14 -5 -20 -20 -20 -19 -20 -20 -20 -20 -20 -20 -20 -20 -20 -20 -20 -20 -18 7
-20 -20 -20 -20 -20 -20 -20 -20 -20 -20 -20 -20 -20 -20 -20 -20 -20 3 -20 -20 -20 -20 -20 -20 -20 -20 -20 -20 -20 -20 -20 -20 -20 -20 -20 -20 -20 -20 -20 -20 -20 -19 -18 8
-20 -20 -20 -20 -20 -20 -20 -20 -20 -20 -20 -20 -20 -7 -20 -20 -20 -20 8 22 -5 -20 -20 -20 -20 -20 -20 -20 -20 -20 -20 -20 -20 -20 -20 -20 -20 -20 -20 -20 -20 5 14 13
-20 -20 -20 -20 -20 -20 -20 -20 -20 -20 -20 -20 -20 -20 -17 14 17 -16 -2 18 23 7 -20 -20 3 4 -9 2 -4 -20 -20 -20 -20 -20 -20 -20 -20 -20 -20 -20 -20 8 -20 2
-20 -20 -20 -20 -20 -20 -20 -20 -20 -20 -20 -20 -20 -20 -6 40 31 -18 32 31 28 9 17 15 14 3 -20 -20 -8 -20 -20 -19 -17 -20 -20 -20 -20 -20 -20 -20 -6 -18 -20 -20
-20 -20 -20 -20 -20 -20 -20 -20 -20 3 -20 -20 -20 -20 8 25 33 36 17 13 -20 -20 -8 -17 -20 -20 -20 -20 1 -18 -20 -20 -20 -17 -20 16 -20 -20 -20 -20 -18 -20 -20 -20
-20 -20 -20 -20 12 -18 -20 -20 -0 19 1 -10 -15 19 26 25 17 23 27 -15 -20 -20 -20 -20 -20 9 26 -20 30 34 35 7 -13 -15 -12 -16 -9 -20 -17 6 7 -20 -20 -20
-20 -20 -20 -20 -20 -20 -20 -20 -20 -12 14 -13 -10 -20 -8 -5 4 -5 25 7 -12 -20 -20 -20 4 13 19 28 36 39 34 35 -1 -6 11 -15 -1 -20 8 6 16 7 -20 -20
-20 -20 -20 -20 -20 -20 18 -3 14 20 9 5 14 -10 -20 7 -0 -20 -1 -19 -15 -20 -20 -20 -20 12 -9 25 19 31 30 36 33 -4 7 6 10 9 6 20 18 13 14 2
-20 -13 -20 -20 -20 -20 -20 7 33 0 17 22 9 -10 5 5 2 -20 -18 -20 -20 -20 -20 -20 -20 -20 12 21 7 -13 -0 -4 25 27 14 12 27 11 12 13 13 14 5 10
-20 -20 -20 9 -20 -19 -2 -11 17 7 27 29 9 -8 20 25 8 29 3 -20 -20 -20 -20 -20 -15 -20 -20 -20 -20 -16 7 5 13 -8 16 13 27 15 10 6 15 15 9 -13
-20 -20 -20 -20 -20 -13 15 -11 0 7 8 21 25 19 -20 -20 16 36 -2 -20 -20 -20 -20 -20 -2 2 -1 7 5 15 21 22 22 22 23 17 24 20 16 9 15 12 11 -3
-20 -20 -20 -20 -20 -20 -17 -20 -20 16 7 -17 -20 39 18 15 12 8 -20 -20 -20 -20 -20 -20 -20 10 6 19 5 12 18 23 17 16 21 19 14 16 13 5 17 17 5 11
-20 -20 -8 -20 3 12 -4 -15 10 -6 22 -19 -14 31 27 -3 -20 -15 0 -20 -3 -13 -20 -15 -11 -8 10 15 15 19 12 17 18 15 8 23 20 11 11 14 23 10 12 -4
-20 -20 5 -19 -14 3 -20 17 2 2 33 27 35 31 13 -20 -15 -19 -11 -20 -13 -10 -20 -5 7 17 25 20 11 25 -6 20 17 16 25 20 11 19 -0 3 18 24 16 7
-19 -17 9 13 16 -20 -20 27 32 13 23 -16 -20 -14 -20 -20 -20 -20 -3 -10 -14 -17 -3 -20 -8 12 31 18 23 21 24 19 16 27 35 28 26 23 12 14 -6 5 6 -17
-20 -9 -14 10 8 -9 23 29 17 35 13 23 -17 -20 -20 -20 -19 -5 -4 -6 -17 -20 -19 11 20 22 -4 17 30 23 26 24 17 32 34 31 29 32 31 29 28 27 30 21
-20 3 -15 -20 -11 15 32 37 24 18 15 -20 -19 -20 -20 -20 -6 3 -9 -9 -20 -15 -4 -0 15 -3 13 17 23 16 28 21 23 27 31 33 35 35 37 29 28 31 28 28
5 10 5 12 18 20 16 20 13 25 -2 -13 -20 -20 -20 -20 -12 -12 -16 -13 -7 -9 2 4 -0 19 24 1 -15 -1 13 23 32 31 25 24 28 26 36 34 27 32 30 25
30 32 20 19 20 30 9 4 7 1 11 -18 -20 -20 -20 -18 -20 -20 -17 -19 -17 -14 -1 -2 -3 8 13 -0 -20 4 20 30 21 23 24 23 22 26 28 29 29 30 30 29
8 7 23 12 5 1 3 6 -1 5 -14 -18 -19 -20 -20 -20 -20 -20 -20 -18 -17 -15 -2 4 5 -20 -19 3 4 9 -1 9 13 11 17 19 23 22 21 20 20 23 25 25
-6 -20 2 17 11 -8 -17 7 11 7 -20 -16 -1 -2 -3 -20 -7 -19 -20 -20 -18 -17 -13 -15 -1 10 9 -13 -18 1 9 11 13 14 14 16 16 16 17 16 14 16 19 21
-1 -2 -18 -3 -0 -12 8 15 11 -6 8 -1 -10 -7 -7 -20 -20 -20 -20 -20 -20 -19 -11 -20 -14 9 15 5 -4 -8 -20 -20 -12 -10 0 8 11 8 7 7 -8 -6 7 9

GFSCGP_prec_radar_093.txt.gz
Reflectivity
-20 -20 -20 -20 -20 -20 -20 -20 -20 -20 -20 -20 -20 -20 -20 -20 -20 -20 -20 -20 -20 -20 -20 -20 -20 -20 -20 -20 -20 -20 -20 -20 -20 -8 -20 -20 -20 -20 -19 -18 -20 -20 -20 -20
-20 -20 -20 -20 -20 -20 -20 -20 -20 -20 -20 -20 -20 -20 -20 -20 -20 -20 -20 -20 -20 -20 -20 -20 -20 -20 -20 -20 -20 -20 -20 -20 -20 9 -2 -20 -20 -20 16 15 -20 -20 -20 -20
-20 -20 -20 -20 -20 -20 -20 -20 -20 -20 -20 -20 -20 -20 -20 -20 -20 -20 -20 -20 -20 -20 -20 -20 -20 -20 -20 -20 -20 -20 -20 -20 -20 9 2 -20 -20 -17 36 20 -6 -16 -20 -20
-20 -20 -20 -20 -20 -20 -20 -20 -20 -20 -20 -20 -20 -20 -20 -20 -20 -20 -20 -20 -20 -20 -20 -20 -20 -20 -20 -20 -20 -20 -20 -20 -9 -7 -20 -20 -20 -1 -10 15 -12 -20 -20 -20
-20 -20 -20 -20 -20 -20 -20 -20 -20 -20 -20 -20 -20 -20 -20 -20 -20 -20 -20 -20 -20 -20 -20 -20 -20 -20 -20 -20 -20 -20 -17 -20 -20 -20 -20 -20 -20 6 -13 -6 -20 -20 -20 -20
-20 -20 -20 -20 -20 -20 -20 -20 -20 -20 -20 -20 -20 -20 -20 -20 -20 -20 -20 -20 -20 -20 -20 -20 -20 -20 -20 -20 -20 -20 -20 -20 -20 -20 -20 -20 -20 -1 -5 12 -16 -20 -20 -20
-20 -20 -10 -5 -17 -20 -20 -20 -20 -20 -20 -20 -20 -20 -20 -20 -20 -20 -20 -13 -20 -17 -11 -20 -5 -20 -17 -20 -20 -20 -20 -20 -20 -20 -20 -17 -20 -20 -19 -5 -13 -20 -20 -20
-20 -11 -20 -20 -20 -20 -20 -20 -20 -20 -20 -20 -20 -20 -20 -20 -20 -20 -20 -20 -20 13 18 -19 -1 -18 9 -6 -15 26 7 -20 -20 -20 -1 -12 3 -15 -15 -10 -20 -20 -20 -20
-20 -18 -7 -20 -20 -20 -20 -20 -20 -20 -20 -20 -20 -20 -20 -20 -20 -20 -20 -20 -2 22 3 9 5 -14 12 -1 16 11 2 -20 -20 -20 -3 31 32 -7 1 -20 -20 -20 -20 -20
-20 -20 -20 -16 -20 -20 -20 -20 -20 -20 -6 -8 -20 -20 -20 -20 -20 -20 -20 -20 16 22 21 -1 -10 1 1 -20 22 12 20 3 -13 -20 28 31 30 -13 18 -20 -20 -20 -20 -20
-20 -20 -20 -20 -20 -20 -20 -20 -10 -20 -13 3 -17 -20 -20 -20 -20 -20 -20 -20 28 11 21 -20 -19 9 13 15 9 -8 -19 17 7 18 28 29 7 -0 8 -20 -20 -20 -20 -20
-20 -20 -20 -20 -20 -20 -20 -17 -20 -3 14 -20 -9 -18 -20 -20 -20 -20 -20 -20 25 22 7 -20 1 -4 13 18 21 -18 -18 7 29 29 32 31 28 -8 -20 -18 -20 -20 -20 -20
-20 -20 -20 -20 -20 -20 -20 -20 -20 -20 -13 -11 12 -14 -20 -20 -9 -20 -20 1 4 -20 2 -13 -20 10 -14 -7 22 18 8 5 26 26 36 31 29 30 -16 -8 -16 -20 -20 -20
-20 -20 -20 -20 -20 -20 -20 -20 -20 -20 -20 -20 -20 -20 -20 -14 6 27 23 -2 -20 -20 -8 -12 -20 -6 -10 -3 23 11 12 31 32 18 21 27 36 29 -8 -2 -20 -20 -20 -20
-20 -20 -20 -20 -20 -20 -20 -20 -20 -20 -20 -20 -20 -20 -20 -5 5 37 -18 -20 -20 -20 -20 -20 -20 -20 -14 -14 -20 13 3 19 20 19 28 41 37 27 -13 11 4 -20 -20 -20
-20 -20 -20 -20 -20 -20 -20 -20 -20 -20 -20 -20 -20 -20 -20 1 13 35 23 -7 -20 -20 -20 -20 -20 -20 -18 -0 -6 -8 -6 -17 25 23 33 34 47 24 3 3 6 -20 -20 -20
-20 -20 -20 -20 -20 -20 -20 -11 -7 -17 -20 -7 -20 -20 -20 -0 6 17 21 1 -16 -6 -15 -20 -20 -20 -20 -9 15 -11 -10 -9 17 8 40 29 29 39 10 11 -10 -20 -20 -20
-20 -20 -20 -20 -20 -20 -20 -17 32 13 -12 13 8 1 5 2 15 1 -9 0 -2 1 -3 -1 -20 -20 -20 -12 3 9 13 -6 16 14 37 14 36 45 38 18 8 -13 3 12
-20 -20 -20 -20 -20 -20 -20 4 25 23 15 13 30 16 -10 11 1 -20 -0 -0 2 1 -0 -2 -2 -20 -20 -20 -10 20 10 13 21 25 27 36 38 39 37 25 13 31 24 -14
-20 -15 3 12 -20 -20 -18 -14 -11 29 20 7 18 15 18 0 -6 -20 0 3 3 0 -1 -9 -12 -13 -19 -20 -20 -20 -5 19 -2 15 -0 18 32 38 30 24 26 26 12 6
-20 3 -18 -20 -18 -17 -6 -4 29 21 11 5 15 16 2 -10 -13 -5 2 4 -2 -13 -11 -20 -20 -18 1 -15 -20 -20 -20 -16 -19 -12 11 11 9 24 22 23 33 24 25 20
14 -3 3 3 9 8 6 19 16 19 11 15 -1 4 -16 -19 -17 -20 -20 -20 -18 -20 -20 -20 -20 -17 -20 -20 -20 -20 -20 -19 -2 -1 -15 -6 -9 -2 10 15 18 26 25 29
10 12 6 7 11 12 9 19 14 26 11 5 -1 -13 -20 -20 -20 -20 -20 -20 -20 -20 -20 -20 -20 -20 -20 -20 -20 -20 -20 -20 -20 -20 -19 -6 5 11 9 -1 8 14 15 20
-17 5 13 3 -0 15 19 14 11 9 -17 -9 -0 -14 -20 -20 -20 -20 -20 -20 -20 -20 -20 -20 -20 -20 -20 -19 -19 -17 -20 -20 -20 -20 -20 -17 -12 -13 -2 4 11 13 16 17
-12 -20 -20 -20 -2 3 12 19 -0 -16 -7 -7 -9 -20 -20 -20 -20 -20 -20 -20 -20 -20 -20 -20 -20 -20 -20 -20 -20 -20 -3 -20 -20 -20 -20 -18 -15 -12 -16 -5 2 3 4 0
-9 -4 -20 -20 -15 -20 0 -7 -6 -12 -13 -20 -20 -20 -20 -20 -20 -20 -20 -20 -20 -20 -20 -20 -20 -20 -20 -20 -20 -20 -20 -20 -20 -20 -20 -12 -9 -14 -10 -19 -15 3 7 8

GFSCGP_prec_radar_096.txt.gz
Reflectivity
-20 -20 -20 -20 -20 -20 -20 -20 -20 -20 -20 -20 -20 -20 -20 -20 -20 -20 -20 -20 -20 -20 -20 -20 -20 -20 -20 -20 -20 -20 -20 -20 -20 1 -20 -18 -20 -20 -20 -16 -4 -19 12 -17
-20 -20 -20 -20 -20 -20 -20 -20 -20 -20 -20 -20 -20 -20 -20 -20 -20 -20 -20 -20 -20 -20 -20 -20 -20 -20 -20 -20 -20 -20 -20 -20 -20 -20 -20 -18 -2 -18 -20 5 -10 -20 -20 -20
-20 -20 -20 -20 -20 -20 -20 -20 -20 -20 -20 -20 -20 -20 -20 -20 -20 -20 -20 -20 -20 -20 -20 -20 -20 -20 -20 -20 -20 -20 -20 -20 -20 -20 -20 -18 -16 8 15 16 -15 37 21 -18
-20 -20 -20 -20 -20 -20 -20 -20 -20 -20 -20 -20 -20 -20 -20 -20 -20 -20 -20 -20 -20 -20 -20 -20 -20 -20 -20 -20 -20 -20 -20 -20 -20 -20 -8 -20 -20 -20 -19 -20 -15 26 46 34
-20 -20 -20 -20 -20 -20 -20 -20 -20 -20 -20 -20 -20 -20 -20 -20 -20 -20 -20 -20 -20 -20 -20 -20 -20 -20 -20 -20 -20 -20 -20 -20 -20 -20 -20 3 -20 -18 -11 -17 -7 21 25 7
-20 -20 -20 -20 -20 -20 -20 -20 -20 -20 -20 -20 -20 -20 -20 -20 -20 -20 -20 -20 -20 -20 -20 -20 -20 -20 -20 -20 -20 -20 -20 -19 5 -15 -20 -19 -20 -20 -20 -20 -20 -12 -9 -14
-20 -20 -20 -20 -20 -20 -20 -20 -20 -20 -20 -20 -20 -20 -20 -20 -20 -20 -20 -20 -20 -20 -20 -20 -20 -20 -20 -20 -20 -20 -4 -19 -6 -13 -20 -20 -20 -20 -20 -20 28 -14 5 -20
-20 -12 -20 -20 -7 -6 -8 -20 -20 -20 -20 -20 -20 -20 -20 -20 -20 -20 -20 -20 -20 -20 -20 -19 3 -10 -20 -20 -15 -20 -1 -5 14 6 15 -6 -19 -20 -19 20 -3 -20 -13 -20
-17 -14 -6 -18 -20 -11 -1 -20 -20 -20 -20 -20 -20 -20 -20 -20 -20 -20 -20 -20 -20 -20 -20 -13 2 12 -15 -14 21 5 8 1 27 23 28 12 -16 -17 -17 18 31 32 -20 -20
-4 4 13 -4 -20 -20 -20 -20 -20 -20 -20 -20 -20 -20 -20 -20 -20 -20 -20 -20 -20 -20 -20 3 -20 23 11 3 9 9 12 10 27 8 10 8 -8 -20 -2 20 36 15 -20 -20
4 -1 -5 0 -13 -20 -20 -20 -20 -20 -20 -4 -20 -20 -20 -20 -20 -20 -20 -20 -20 -20 -20 -5 -20 -17 -7 17 19 18 26 21 27 13 22 7 -18 -20 -14 33 6 12 -7 -20
-10 -20 -20 -16 -13 -8 -20 -8 -20 -20 -19 -20 -3 -19 -20 -20 -20 -20 -20 -20 -20 -16 -20 10 -18 1 -14 -0 4 -17 7 31 28 1 -12 -9 3 -9 35 28 27 25 -20 -20
-20 -20 -20 -20 -20 -13 -16 -20 -20 -20 -20 -20 -15 -20 -20 -20 -20 -20 -20 -12 -7 -16 -20 -20 -20 -20 -20 3 6 11 11 24 20 19 19 16 19 23 21 27 7 -18 -20 -20
-20 -20 -20 -20 -20 -20 -20 -20 -20 -20 -20 -20 -20 -20 -20 -20 -20 -20 -10 -2 29 -14 -20 -20 -20 -20 -20 -7 20 1 14 11 27 27 26 25 28 33 27 26 -12 -20 -20 -20
-20 -20 -20 -20 -20 -20 -20 -20 -20 -20 -20 -20 -20 -20 -20 -20 -20 -4 2 12 23 -1 -20 -20 -20 -20 -20 6 -13 7 20 32 31 10 10 15 18 33 38 25 22 -9 -20 -15
-20 -20 -20 -20 -20 -20 -20 -20 -20 -20 -20 -20 -20 -20 -20 -20 -13 -20 -11 -4 9 13 -18 -20 -20 -20 -20 -16 14 -8 -9 -1 28 16 9 18 22 33 37 37 17 12 13 12
-20 -20 -20 -20 -20 -20 -20 -20 -20 -16 -20 -20 -20 -20 -20 0 -20 -20 -13 2 7 -6 -8 -20 -20 -20 -20 -19 1 11 6 7 -9 23 15 31 29 31 30 39 40 15 21 13
-20 -20 -20 -20 -20 -20 -20 -20 -20 -20 5 8 -14 -5 -10 -20 -18 -6 17 22 1 -5 -1 -5 -20 -20 -19 -20 -19 -10 8 11 -8 9 35 14 25 34 40 42 32 27 19 8
-20 -20 -20 -20 -20 -20 -20 -0 -18 -2 -19 12 -8 -2 9 12 -2 -0 1 -4 -2 -0 2 -2 -1 -2 -20 -20 -20 -20 -15 12 13 10 9 22 38 25 38 38 32 30 16 3
-20 -20 -20 -5 -20 -20 -20 -20 -13 8 4 7 13 18 19 20 12 0 5 -8 -20 -9 -20 -20 -19 -3 -20 -20 -20 -20 -20 -19 -15 0 -2 14 24 28 34 38 37 33 23 28
-20 0 -20 -20 -17 -20 -20 -18 -14 10 8 13 26 24 29 24 17 5 -9 -20 -20 -19 -19 -20 -20 -20 -20 -20 -20 -20 -20 -18 -14 -12 5 -17 -20 -10 19 19 25 33 30 24
-9 -20 -13 -6 -20 -20 -20 -20 -8 11 13 21 24 21 19 13 -19 -17 -20 -17 -20 -20 -19 -20 -19 -20 -15 -20 -20 -20 -20 -18 -20 -20 -20 -20 -20 -19 -17 -15 5 20 11 22
-20 -14 -20 -20 -20 2 -3 9 14 12 17 20 18 18 10 -15 -8 -19 -20 -20 -20 -20 -20 -19 -18 -18 -19 -20 -20 -20 -20 -20 -20 -20 -20 -20 -20 -20 -20 -20 -20 -20 -3 6
-17 2 -18 -12 3 -7 -3 7 0 10 14 15 7 -14 -20 -20 -20 -20 -20 -20 -20 -20 -20 -20 -20 -20 -20 -18 -16 -3 -20 -20 -20 -20 -20 -20 -20 -20 -20 -20 -20 -20 -20 -16
-13 -20 -20 -20 5 -19 2 -0 2 10 5 -18 -18 -20 -20 -20 -20 -20 -20 -20 -20 -20 -20 -20 -20 -20 -20 -20 -20 -20 -20 -20 -20 -20 -20 -20 -20 -20 -20 -20 -20 -20 -19 -20
-20 -20 -20 -20 -19 -8 -5 4 3 -16 -13 -19 -20 -20 -20 -20 -20 -20 -20 -20 -20 -20 -20 -20 -20 -20 -20 -20 -20 -20 -20 -20 -20 -20 -20 -20 -20 -20 -20 -20 -20 -11 3 -8

GFSCGP_prec_radar_099.txt.gz
Reflectivity
-20 -20 -20 -20 -8 -15 -20 -20 -20 -20 -20 -20 -20 -20 -20 -20 -20 -20 -20 -20 -20 -20 -20 -20 -20 -20 -20 -20 -20 -20 -20 -20 -20 -20 -7 0 -20 -20 -14 -15 -19 -20 -20 -20
-20 -20 -20 -19 -20 -20 -20 -20 -20 -20 -20 -20 -20 -20 -20 -20 -20 -20 -20 -20 -20 -20 -20 -20 -20 -20 -20 -20 -20 -20 -20 -20 -20 -20 -20 -20 -20 -2 -3 3 -1 -16 -20 -20
-5 -20 -20 -20 -20 -20 -20 -20 -20 -20 -20 -20 -20 -20 -20 -20 -20 -20 -20 -20 -20 -20 -20 -20 -20 -20 -20 -20 -20 -20 -20 -20 -20 -20 -10 6 9 11 13 9 -12 -4 -7 -17
6 -20 -20 -20 -20 -20 -20 -20 -20 -20 -20 -20 -20 -20 -20 -20 -20 -20 -20 -20 -20 -20 -20 -20 -20 -20 -20 -20 -20 -20 -20 -20 -20 -20 -3 5 -17 -14 -14 -20 -6 0 -18 2
15 13 19 14 -18 -17 -20 -20 -20 -20 -20 -20 -20 -20 -20 -20 -20 -20 -20 -20 -20 -20 -20 -20 -20 -20 -20 -20 -20 -20 -20 -20 -20 -20 -15 5 2 1 3 -11 -20 -14 6 -6
9 10 -12 3 3 -3 -20 -20 -20 -20 -20 -20 -20 -20 -20 -20 -20 -20 -20 -20 -20 -20 -20 -20 -20 -20 -20 -20 -20 -20 -18 -20 -20 -19 -16 8 3 5 9 -5 -13 -2 -18 -15
-20 -20 1 1 -11 -20 -20 -20 -20 -20 -20 -20 -20 -20 -20 -20 -20 -20 -20 -20 -20 -20 -20 -20 -20 -20 0 -13 -20 2 -1 -20 -20 -20 2 12 8 10 10 -3 -20 -20 -12 -14
-20 -7 -3 -19 -20 -20 -20 -20 -20 -20 -20 -20 -20 -20 -20 -20 -20 -20 -20 -20 -20 -20 -20 -20 -20 -20 -18 -1 -13 9 10 7 22 -20 15 9 3 12 12 10 -16 -20 -20 2
7 -4 -20 -20 -20 -20 -20 -20 -20 -20 -20 -20 -20 -20 -20 -20 -20 -20 -20 -20 -20 -20 -20 -20 -20 -20 -18 8 -1 10 5 1 -6 -13 14 0 23 3 20 14 1 -13 -20 -8
9 -1 -17 -20 -20 -20 -20 -20 -8 -20 -20 -20 -20 -20 -20 -20 -20 -20 -20 -20 -20 -20 -20 -20 -20 -20 -17 27 20 10 3 21 8 -6 18 26 -9 -12 20 -5 -7 9 8 22
-9 -4 -10 -20 -20 -20 -20 -20 -20 -20 -20 -20 -20 -20 -20 -20 -20 -20 -20 -20 -20 -20 -20 -20 -20 -20 -20 -1 26 14 13 20 29 23 20 -1 -15 2 -7 -5 -10 3 17 31
1 -5 2 -7 -20 -20 -20 -20 -20 -20 -20 -20 -20 -20 -20 -20 -20 -20 -20 -20 -20 -20 -20 -20 -20 -20 -20 -20 16 2 12 23 27 28 30 20 -2 20 17 -14 -19 -11 11 26
-8 -20 -20 -20 -20 -20 -20 -20 -20 -20 -20 -20 -20 -20 -20 -20 -20 -20 -20 -20 -20 -20 -20 -20 -20 -20 -20 -20 4 23 17 15 24 27 14 15 -5 23 28 21 -17 -20 -19 25
-20 -20 -12 -9 -16 -20 -20 -20 -20 -20 -20 -20 -20 -20 -20 -20 -20 -20 -20 -20 -20 -20 -20 -20 -20 -20 -20 -19 -14 29 7 25 23 14 21 16 14 19 21 10 28 -20 -16 16
-20 -19 -19 -20 -20 -20 -20 -20 -20 -20 -20 -20 -20 -20 -20 -20 -20 -20 -20 -20 -20 -20 -20 -20 -20 -20 -20 -20 -17 -13 -9 34 26 35 19 15 14 12 6 7 9 18 -6 27
-20 -20 -20 -20 -20 -20 -20 -20 -20 -20 -20 -20 -20 -20 -20 -20 -20 -20 -20 -20 -1 -14 -8 -20 -20 -20 -20 -20 -20 -1 7 -10 5 19 32 28 -8 -9 21 22 17 42 16 15
-20 -20 -20 -20 -20 -20 -20 -20 -20 -20 -20 -13 -1 -16 -12 -20 -20 -20 -20 -19 -12 -9 -6 -4 -6 -20 -20 -15 -15 -18 10 21 -5 7 32 22 26 23 23 33 27 41 43 21
-20 -20 -20 -20 -20 -20 -11 -20 -15 -15 4 -20 -12 5 -8 -20 -20 -12 0 12 9 6 -2 -4 -4 -20 -20 -20 -20 -20 -16 4 8 -10 -1 26 11 26 13 12 32 41 42 33
-20 -20 -20 -20 -20 -20 -1 -18 -15 -0 -2 -17 -18 9 -10 10 -2 12 14 18 10 1 -6 -5 -2 -5 -15 -20 -20 -20 -20 -20 -14 14 3 5 9 10 26 36 38 40 42 32
-20 -20 -20 -6 -20 -20 -20 -20 -20 -3 -17 -20 -19 -13 -16 4 14 8 11 10 -2 -20 -20 -18 -1 -1 -20 -19 -20 -20 -20 -20 -20 -16 0 1 4 4 16 24 35 36 36 40
-20 -9 -20 -20 -20 -20 -20 -20 -20 -6 -9 -3 -6 10 17 16 20 18 17 -14 -19 -12 -20 -20 -20 -19 3 -20 -20 -20 -20 -19 -14 -15 -20 -20 -17 -4 2 21 27 28 30 35
-12 -11 -19 -7 -11 -20 -20 -20 -20 -14 4 6 18 19 20 19 14 8 -4 -13 -13 -19 -20 -20 -20 -20 -19 -2 -20 -20 -20 -20 -20 -20 -20 -20 -20 -20 -20 1 12 19 25 29
-20 -20 -20 -20 -20 2 -5 -4 -3 1 5 17 18 20 20 21 17 -7 -8 -15 -20 -20 -20 -20 -20 -20 -20 -20 -7 -20 -20 -20 -20 -20 -20 -20 -20 -20 -20 -20 -17 -11 8 13
-14 -20 -19 -17 3 -9 -0 0 -3 8 8 6 13 14 13 -1 -19 -20 -20 -20 -20 -20 -20 -20 -20 -20 -20 -20 -20 -20 -18 -20 -20 -20 -20 -20 -20 -20 -20 -20 -20 -20 -20 -20
-20 -20 -11 -19 -3 -5 -5 -1 -1 9 6 12 16 10 -1 -20 -20 -20 -20 -20 -20 -20 -20 -20 -20 -20 -20 -20 -20 -20 -20 -20 -20 -20 -20 -20 -20 -20 -20 -8 4 3 6 -0
-20 -20 -20 -20 -12 -20 2 6 4 10 16 10 -15 -20 -20 -20 -20 -20 -20 -20 -20 -20 -20 -20 -20 -20 -20 -20 -20 -20 -20 -20 -20 -20 -20 -20 -20 -20 -20 -20 -20 -20 -8 1

GFSCGP_prec_radar_102.txt.gz
Reflectivity
-8 -20 -20 -20 -20 -20 9 -20 -20 -20 -20 -20 -20 -20 -20 -20 -20 -20 -20 -20 -20 -20 -20 -20 -20 -20 -20 -20 -20 -20 -20 -20 -20 -20 -20 -20 -20 -4 -20 -20 -20 -20 2 2
28 3 7 0 6 1 5 -20 -20 -20 -20 -20 -20 -20 -20 -20 -20 -20 -20 -20 -20 -20 -20 -20 -20 -20 -20 -20 -20 -20 -20 -20 -20 -20 -20 -20 -20 -20 -20 -20 -14 -20 -0 8
1 6 19 15 -16 8 10 -19 -20 2 -12 -20 -20 -20 -20 -20 -20 -20 -20 -20 -20 -20 -20 -20 -20 -20 -20 -20 -20 -20 -20 -20 -20 -20 -20 -20 -20 -20 -1 7 -4 2 5 9
16 12 21 11 -7 8 2 2 -13 -4 -20 -20 -20 -20 -20 -20 -20 -20 -20 -20 -20 -20 -20 -20 -20 -20 -20 -20 -20 -20 -20 -20 -20 -20 -20 -20 -20 -18 -20 -20 -4 6 -16 -10
9 3 15 32 24 14 -12 6 14 -11 -20 -20 -20 -20 -20 -20 -20 -20 -20 -20 -20 -20 -20 -20 -20 -20 -20 -20 -20 -20 -20 -20 -20 -20 -20 0 -20 -20 -20 -19 8 -1 -19 -16
20 19 23 3 19 26 16 6 -20 -20 -20 -20 -20 -20 -6 -20 -20 -20 -20 -20 -20 -20 -20 -20 -20 -20 -20 -20 -20 -20 -20 -20 -20 -20 -20 -12 7 -20 -11 -9 23 13 -1 -16
15 16 9 2 -2 8 16 19 15 10 2 -12 1 -19 -20 -20 -20 -20 -20 -20 -20 -20 -20 -20 -20 -20 -20 -20 -20 -20 -20 -20 -20 -20 -20 -20 3 -20 9 3 15 9 21 5
11 6 -13 -18 -20 -8 -19 9 14 5 -8 -20 -20 -20 -20 -20 -20 -20 -20 -20 -20 -20 -20 -20 -20 -20 -20 -20 -20 -20 -20 -20 5 -4 -10 -20 -1 -20 13 13 16 -17 9 9
-16 7 -19 -9 -20 -15 -1 2 -13 -1 -20 -20 -20 -20 -17 -11 -11 -20 -20 -20 -20 -20 -20 -20 -20 -20 -20 -20 -20 -20 -20 -13 4 14 14 -15 16 18 18 14 15 15 17 14
-20 10 -19 -20 -16 -1 -16 5 4 -5 8 7 -20 -20 -20 -2 -20 -20 -20 -20 -20 -20 -20 -20 -20 -20 -20 -20 -20 -20 -20 -16 -10 4 21 15 2 -17 -6 7 13 -20 13 6
-1 3 -15 -8 -9 -1 -20 -20 5 5 10 10 0 -13 -20 -20 -20 -20 -20 -20 -20 -20 -20 -20 -20 -20 -20 -20 -20 -20 -20 -18 -10 13 21 25 20 18 15 10 -3 10 -12 9
12 -13 -9 -2 -20 -19 -20 -20 -20 -20 -20 -20 -19 -20 -20 -20 -20 -20 -20 -20 -20 -20 -20 -20 -20 -20 -20 -20 -20 -20 -19 2 6 12 12 21 27 22 13 18 28 14 8 11
-8 -20 -18 -20 -20 -20 -20 -20 -20 -20 -20 -20 -20 -20 -20 -20 -20 -20 -20 -20 -20 -20 -20 -20 -20 -20 -20 -20 -20 -20 1 18 13 4 20 13 17 28 27 29 32 29 18 8
-4 -20 -20 -20 -20 -20 -16 -20 -20 -20 -20 -20 -20 -20 -6 -20 -20 -20 -20 -20 -20 -20 -20 -20 -20 -20 -20 -20 -20 -20 -1 38 43 32 11 21 28 24 27 12 39 26 30 14
-20 -20 -20 -20 -20 -20 -20 -20 -20 -20 -20 -20 -20 -20 -20 -20 -20 -20 -20 -20 -20 -20 -20 -20 -20 -20 -20 -20 -20 -20 -14 13 11 26 35 24 30 24 45 34 24 28 23 16
-20 -20 -20 -20 -20 -20 -20 -20 -20 -20 -20 -20 -20 -20 -20 -20 -10 -18 -20 -20 -20 -20 -20 -20 -20 -20 -20 -20 -20 -20 -20 3 7 20 21 30 17 23 5 20 11 12 25 15
-20 -20 -20 -20 -20 -20 -20 -20 -20 -20 -20 -4 -8 -1 -19 -4 16 -14 -15 -19 -3 -1 -2 -1 -1 -1 -15 -3 -3 -5 -1 -2 4 -10 -8 33 36 28 17 21 29 35 27 23
-20 -20 -20 -20 -20 -20 -4 -10 -4 -20 -20 -11 -20 -16 -1 -8 1 2 1 -0 1 2 11 -2 0 0 -1 -4 -20 -20 -20 -19 -6 -15 2 13 22 25 32 29 3 29 37 43
-20 -20 -20 -20 -20 -20 -17 -9 -20 -4 -4 -7 -15 -14 -7 -4 -8 1 2 0 13 15 18 4 5 3 -2 -1 -6 -20 -20 -20 -4 -10 -15 -2 1 8 7 10 8 25 25 27
-20 -20 -20 -3 4 0 6 -20 -20 2 6 -20 -4 -3 10 4 18 2 0 8 16 21 5 7 8 8 -4 -2 -6 -20 -20 -20 -19 -17 4 4 2 -14 -13 13 19 23 32 27
-1 -10 4 6 8 7 -20 -20 -20 9 6 -7 -4 -1 -1 0 -3 2 8 13 15 9 10 10 11 1 3 5 -4 -9 -20 -18 -15 3 4 1 1 2 3 5 18 24 28 31
8 7 3 5 6 11 -20 -19 -6 2 4 -1 -3 3 -3 -1 5 7 11 7 7 8 9 9 2 -4 -5 -20 -20 -0 -17 -1 -2 -1 1 -16 -13 3 3 1 8 24 26 27
5 -10 12 -11 5 -12 -4 -1 -2 3 3 4 9 14 10 14 18 15 5 11 11 6 -10 -19 -20 -20 -20 -20 -6 -3 -20 -19 -8 -8 -4 0 2 1 0 -7 -15 3 18 18
-20 -4 2 -14 4 1 -0 -3 -1 2 -3 10 5 3 4 9 6 10 11 7 -3 -1 -5 -20 -20 -20 -4 -20 -18 -10 -20 -20 -20 -20 -20 -20 -6 -3 0 -19 -16 -20 -1 2
-17 -10 -13 3 4 -1 1 2 -2 -3 -4 5 10 0 -5 -11 4 -5 -2 -1 -1 -2 -4 -20 -20 -20 -8 -20 -20 -20 -20 -20 -20 -20 -20 -20 -20 -20 -11 -14 -18 5 6 0
-20 -18 -1 -7 -9 2 2 3 2 -1 -3 -4 -20 -20 -20 -20 -3 -4 -2 -3 -4 -9 -20 -20 -20 -20 -8 -20 -20 -20 -20 -20 -20 -20 -20 -20 -20 -20 -20 -20 -3 -20 -20 -6

GFSCGP_prec_radar_105.txt.gz
Reflectivity
-20 -20 -20 -20 -20 -20 -20 5 3 -20 -15 1 -20 -20 -20 -20 -20 -20 -20 -20 -20 -20 -20 -20 -20 -20 -20 -20 -20 -20 -20 -20 -20 -20 -20 -20 -20 -20 -20 -20 -20 -20 -8 8
-17 -6 -20 -20 -15 13 11 -9 -20 -4 18 0 -20 -20 -20 -20 -20 -20 -20 -20 -20 -20 -20 -20 -20 -20 -20 -20 -20 -20 -20 -20 -20 -20 -20 -20 -20 -20 -20 -20 -20 -20 7 13
-20 -20 -20 -20 6 3 -10 10 3 -8 21 10 -14 -20 -20 -20 -20 -20 -20 -20 -20 -20 -20 -20 -20 -20 -20 -20 -20 -20 -20 -20 -20 -20 -20 -20 -20 -20 -20 -20 -20 -20 13 6
-1 -20 -20 -20 -19 9 28 13 18 15 5 5 16 -20 7 -20 -20 -20 -20 -20 -20 -20 -20 -20 -20 -20 -20 -20 -20 -20 -20 -20 -20 -20 -20 -20 -20 -20 -20 -20 -20 -20 -20 -9
-20 -19 -20 -20 -20 6 24 11 24 28 8 -3 -10 3 -20 -9 -20 -20 -20 -20 -20 -20 -20 -20 -20 -20 -20 -20 -20 -20 -20 -20 -20 -20 -20 -20 -9 -20 -20 -20 -20 -20 -11 -1
0 17 -18 -20 -10 3 19 19 11 18 11 14 3 9 1 13 -19 -20 -19 -19 -20 -20 -20 -20 -20 -20 -20 -20 -20 -20 -20 -20 -20 -20 -20 -18 -3 -20 -20 -20 -20 -20 -20 -20
4 1 -20 -3 10 0 25 29 15 15 19 9 -4 15 11 20 13 9 12 -20 -20 -20 -20 -20 -20 -20 -20 -20 -20 -20 -20 -20 -20 -20 -20 -15 -20 -0 -12 -20 -20 6 16 7
18 19 1 -18 -8 15 -7 13 10 9 10 11 18 9 18 11 0 10 -17 -20 -20 -20 -20 -20 -20 -20 -20 -20 -20 -20 -20 -20 -20 -20 -20 -17 -16 -20 -20 -14 -20 -13 7 -6
6 -10 -20 -20 -18 12 20 11 2 18 16 8 6 17 5 6 5 12 2 -20 -20 -20 -20 -20 -20 -20 -20 -20 -20 -20 -20 -20 -20 -20 -20 14 9 3 -2 -17 -18 -20 8 -14
1 16 -13 -0 -20 -20 -6 12 11 13 15 10 9 16 23 6 9 -14 -20 -20 -20 -20 -20 -20 -20 -20 -20 -20 -20 -16 -20 -20 -20 -20 -15 4 8 8 -15 17 4 -14 -20 8
-17 5 -3 -18 -20 -19 -5 26 4 25 -3 13 10 19 26 21 20 5 -20 -20 -20 -20 -20 -20 -20 -20 -14 -20 -18 -20 -20 -20 -20 -20 -17 15 -1 -17 27 24 37 -20 -12 -5
-20 3 19 -16 -20 -9 -4 -12 7 6 9 27 -2 13 28 15 -1 6 -20 -20 -20 -20 -20 -20 -20 -20 -20 -0 -20 -20 -20 -11 -20 -20 -18 -17 -13 -2 -10 30 -16 -15 -9 -17
-17 -13 9 -15 -16 -20 -20 -20 -20 -20 -20 -20 6 10 21 -5 -20 -20 -20 -20 -20 -20 -20 -20 -20 -20 -20 -20 -20 -20 -20 -20 -20 -20 -20 -1 -4 3 5 1 5 2 8 3
-20 -20 -6 11 14 -1 -20 -20 -20 -20 -20 -20 -20 -20 14 -6 -20 -20 -20 -20 -20 -20 -20 -20 -20 -20 -20 -20 -20 -20 -2 -20 -20 -20 -14 21 -4 14 16 16 26 20 23 15
-8 -12 -20 -20 -20 -20 -20 -20 -20 -20 -20 -20 -20 -18 -20 -20 -20 -1 -20 -20 -20 -20 -20 -20 -20 -20 -20 -20 -20 -20 -16 -13 -16 1 17 36 39 25 40 25 41 27 23 24
-20 -20 -16 -20 -20 -20 -20 -20 -20 -20 -20 -20 -20 -20 -20 -20 -11 -20 -20 -20 -20 -20 -20 -20 -20 -20 -20 -20 -20 -5 -8 -2 -17 11 12 13 9 26 15 14 18 39 28 39
-20 -20 -20 -20 -20 -20 -20 -20 -20 -20 -20 -20 -15 -7 -20 -15 -13 -15 -3 -12 -20 -20 -6 -2 -20 -7 -5 -2 -20 -3 -9 -20 -10 18 13 7 5 29 36 27 28 37 35 30
-20 -20 -20 -20 -20 -20 -20 -20 -20 -20 -20 -20 -20 -20 -20 -12 -15 -7 -3 0 -5 -2 -3 -1 -1 2 1 5 -3 -5 -20 -20 -7 10 14 15 9 21 33 29 26 12 -13 5
-20 -20 -20 -20 -20 -4 -20 -12 -17 -19 1 -20 -19 -20 -8 -20 -15 -16 -17 0 2 3 10 15 4 6 4 11 1 -3 -20 -20 -11 8 8 17 25 12 15 17 14 -5 5 18
-20 -20 -20 -3 7 5 -2 -20 -20 -6 -17 -16 -6 -19 -8 5 10 7 2 1 3 12 18 8 13 12 13 10 -4 -3 -2 -12 -4 3 11 19 21 16 9 6 -0 3 10 16
-1 2 6 4 6 1 -6 -20 -20 4 6 -8 -10 -20 -20 13 -4 4 3 3 12 12 10 18 14 11 9 9 -20 -5 -4 2 2 3 -6 -3 7 -2 10 2 1 20 30 23
0 3 -3 7 11 17 -20 -20 -1 -3 -5 -20 -5 3 -1 -2 -2 -6 -4 6 10 8 15 11 9 5 -4 -20 -19 -20 -20 -16 -19 -20 -3 -9 -20 -14 -5 -10 -0 6 22 20
5 -0 22 -1 7 -18 -7 -20 -19 -20 -5 2 -1 1 -4 -18 -19 -3 7 8 12 12 8 4 -6 -20 -20 -20 -20 -20 -20 -20 -5 -6 -20 -10 -18 -20 -9 -12 -6 -20 1 2
-5 -17 2 -14 -3 -18 -15 -11 -2 -4 -4 -2 -2 -4 -7 -2 9 14 14 7 1 0 -6 -20 -20 -20 -20 -20 -20 -20 -20 -20 -20 -20 -20 -20 -9 -10 -15 -20 -16 -20 -8 4
-4 -1 -10 -4 -15 -9 -20 -12 -7 -6 -2 -2 -2 -5 -1 -2 0 -5 -2 1 1 -7 -6 -20 -20 -20 -20 -20 -20 -20 -20 -20 -20 -20 -20 -20 -20 -18 -14 -20 -20 -10 4 -2
-16 -6 -10 12 -20 -8 -20 -8 -8 -3 -4 -14 -20 -15 -20 -12 -5 -18 -11 -8 -1 -2 -3 -8 -10 -20 -20 -20 -20 -20 -20 -20 -20 -20 -20 -20 -20 -20 -20 -18 -20 -20 -20 -17

GFSCGP_prec_radar_111.txt.gz
Reflectivity
-20 -20 -20 -20 -20 -20 -20 -20 -20 -20 -20 -20 -20 -20 -20 -20 -20 -1 -20 -3 3 10 8 -20 -20 -20 -20 -20 -20 -20 -20 -20 -20 -20 -20 -20 -20 -20 -20 -20 -20 -20 -20 -20
-20 -20 -20 -20 -20 -20 -20 -20 -20 -20 -20 -20 -20 -20 -20 -20 -20 7 15 13 4 14 12 -20 -20 -20 -20 -20 -20 -20 -20 -20 -20 -20 -20 -20 -20 -20 -20 -20 -20 -20 -20 -20
-20 -20 -20 -20 -20 -20 -20 -20 -20 -20 -20 -20 -20 -20 -20 -20 -20 -20 7 3 12 15 5 -20 -20 -20 -20 -20 -20 -20 -20 -20 -20 -20 -20 -20 -20 -20 -20 -20 -20 -20 -20 -20
-20 -20 -20 -20 -20 -20 -20 -20 -20 -20 -20 -20 -20 6 -20 -20 -20 -20 15 17 27 27 14 -12 -20 -20 -20 -20 -20 -20 -20 -20 -20 -20 -20 -20 -20 -20 -20 -20 -20 -20 -20 -20
-20 -20 -20 -20 -20 -20 -20 -20 -20 -20 -20 -20 -20 -3 -20 -20 -20 -20 -12 22 32 23 -10 -20 -20 -18 -18 -20 7 -20 -20 -20 -20 -20 -20 -20 -20 -20 -20 -20 -20 -20 -20 -20
-20 -20 -20 -20 -20 -20 -20 -20 -20 -20 -19 -10 -20 -20 -20 -20 -20 -20 21 21 17 29 5 -20 -19 -17 12 -16 -20 -20 -13 -3 -10 -20 -20 -20 -20 -20 -20 -20 -20 -20 -20 -20
-20 -20 -20 -20 -20 -20 -20 -20 -16 -20 5 -20 -20 -20 -20 -20 -5 -20 22 37 29 -7 -20 -20 -20 1 -12 11 12 -20 -18 -1 -5 -17 -15 -8 -17 -20 -20 -20 -20 -20 -20 -20
-20 -20 -20 -20 -20 -20 -20 -20 -19 -20 -20 8 -20 -12 -20 -18 13 28 45 33 36 29 22 12 12 -5 -20 -20 -20 -20 -20 -20 -20 -18 -19 -20 -20 -20 -20 -20 -15 -8 -2 -10
-20 -18 -20 -20 -20 -20 -17 -20 -7 2 -20 -20 -20 -20 -20 -15 45 39 37 21 11 8 -10 7 5 -20 -20 -5 -15 -18 -19 -20 -20 -20 -20 -20 -20 -20 -20 -20 6 2 7 12
-6 -12 -20 -20 -20 -20 -20 -20 -19 -7 2 -13 -20 -1 28 34 39 36 38 25 7 26 27 14 -1 -9 7 -8 -12 -20 -20 -19 -20 -20 -20 -20 -20 -20 -20 5 -0 10 7 14
7 -20 -20 -19 -20 -20 -20 -11 2 -6 4 12 -20 14 37 35 42 36 40 33 23 6 13 17 5 -15 -20 -20 -20 -20 -20 -20 -20 -20 -20 -20 -20 -20 -20 -20 16 15 9 16
13 3 3 -20 -20 -20 4 -6 1 12 21 12 29 23 26 21 30 33 -15 -4 22 11 13 0 -1 -20 -20 -20 -20 -20 -20 -20 -20 -20 -20 -20 -20 -20 -20 -20 -20 -14 -19 -20
24 23 19 -16 -20 -20 -20 -18 -20 -3 4 -10 -1 4 3 22 15 20 10 6 -6 3 -19 -20 -20 -20 -20 -20 -20 -20 -20 -20 -20 -20 -20 -20 -20 -20 -20 -20 -20 -20 -20 -20
-6 -13 -20 -20 -20 -20 -20 -18 -20 -15 -19 -20 -9 9 -17 -6 -8 -20 -15 3 6 -4 -20 -20 -20 -20 -20 -20 -20 -20 -20 -20 -20 -20 -20 -20 -19 -17 -20 -20 -20 -20 -20 -20
18 -0 -0 -20 -20 -20 -2 -20 -3 1 -19 -20 -19 -18 -20 -20 -20 -20 -20 -20 -16 2 -20 -20 -20 -20 -10 -20 -20 -20 -20 -20 -20 -20 -20 -19 -12 -14 -20 -20 -20 -20 -20 -20
4 9 4 -20 -20 -20 -20 -20 -20 -20 -20 -20 -20 -20 -20 -20 -20 -20 -20 -20 -20 -20 -20 -20 -20 -20 -20 -12 1 -20 -3 -13 -20 -20 0 -5 -13 3 -18 -20 -20 -20 -7 6
-20 1 -19 -20 -15 3 -20 -20 -20 -20 -20 -20 -20 -20 -20 -20 -20 -9 -20 -20 1 -5 -9 0 4 0 1 -3 6 -2 -1 -8 -17 -17 -6 -1 -3 -7 -7 -20 -20 -20 -14 1
-18 -11 4 1 -20 -20 -20 -20 -20 -20 -20 -20 -20 -20 -20 -20 -20 -20 -19 -20 -20 -1 -20 -8 -13 -11 -14 -1 -10 4 10 -4 -9 -17 -14 -9 -17 -20 -6 -2 -12 -20 -18 -5
-5 -3 -20 -20 -20 -13 -20 -20 -20 -20 -20 -20 -20 -20 -20 -20 -20 -0 -20 -20 -2 -20 -7 -20 -10 -2 2 9 16 18 9 14 -4 -13 -9 2 12 12 10 13 13 7 5 4
-20 -20 -20 -20 -20 -20 -20 -20 -20 -20 -20 -20 -20 -20 -18 -20 -20 -7 -20 -20 -20 -20 -20 -18 -1 -10 -6 10 25 25 15 10 9 9 6 2 6 6 10 -3 8 14 13 16
-20 -20 -20 -20 -18 -20 -20 -20 -20 -20 -20 -20 -20 -20 -20 -20 -20 -20 -20 -20 -20 -14 -1 -1 -2 10 15 16 16 13 14 8 3 -14 -20 -20 -20 2 2 -2 -20 -18 -17 -20
-20 -20 -20 -20 -20 -3 -20 -20 -20 -20 -20 -20 -20 -20 -20 -20 -20 -20 -20 -20 -20 -0 3 6 6 15 18 19 15 7 -16 -19 -10 -9 -19 -15 -20 -18 -17 -6 -20 -20 -20 -20
-11 -20 -20 -20 -20 -20 -20 -20 -13 -20 -20 -20 -20 -20 -20 -20 -20 -20 -20 -18 -2 4 7 13 14 8 -2 -18 -20 -20 -20 -20 -20 -20 -20 -20 -20 -20 -20 -20 -20 -20 -20 -20
-20 -20 -20 -20 -20 -20 -20 -20 -20 -20 -20 -20 -20 -20 -20 -20 -20 -20 -18 2 3 5 -6 -20 -20 -20 -20 -20 -20 -20 -20 -20 -20 -20 -20 -20 -20 -20 -20 -20 -20 -20 -20 -20
-20 -20 -20 -12 -20 -13 -20 -20 -20 -20 -20 -20 -20 -20 -20 -20 -20 -20 -20 -20 -20 -20 -20 -20 -20 -20 -20 -20 -20 -20 -20 -20 -20 -20 -20 -20 -20 -20 -20 -20 -20 -20 -20 -20
-20 -20 -20 -20 -20 -20 -20 -20 -20 -20 -20 -20 -20 -6 -20 -20 -20 -20 -20 -20 -20 -20 -20 -20 -20 -20 -20 -20 -20 -20 -20 -20 -20 -20 -20 -20 -20 -20 -20 -20 -20 -14 -19 -20

GFSCGP_prec_radar_114.txt.gz
Reflectivity
-20 -20 -20 -20 -20 -20 -20 -20 -20 -20 -20 -20 -20 -20 -20 -20 -20 -20 -20 -20 1 -2 -4 -20 -20 -20 -20 -20 -20 -20 -20 -20 -20 -20 -20 -20 -20 -20 -20 -20 -20 -20 -20 -20
-20 -20 -20 -20 -20 -20 -20 -20 -20 -20 -20 -20 -20 -20 -20 -20 -20 -20 -20 -20 11 3 -0 -18 -20 -20 -20 -20 -20 -20 -20 -20 -20 -20 -20 -20 -20 -20 -20 -20 -20 -20 -20 -20
-20 -20 -20 -20 -20 -20 -20 -20 -20 -20 -20 -20 -20 -20 -20 -20 -20 -20 -20 -20 -20 4 29 -1 -14 -20 -20 -20 -20 -20 -20 -20 -20 -20 -20 -20 -20 -20 -20 -20 -20 -20 -20 -20
-20 -20 -20 -20 -20 -20 -20 -20 -20 -20 -20 -20 -20 -13 -20 -20 -20 -20 -20 -20 -20 2 8 -16 6 -1 -20 -20 -20 -20 -20 -17 -20 -20 -20 -20 -20 -20 -20 -20 -20 -20 -20 -20
-20 -20 -20 -20 -20 -20 -20 -20 -20 -20 -20 -20 -20 -20 -20 -20 -20 -20 -20 -20 -20 -11 38 26 3 -15 -20 -20 -20 -20 -20 -20 4 -17 -20 -20 -20 -20 -20 -20 -20 -20 -20 -20
-20 -20 -20 -20 -20 -20 -20 -20 -20 -20 -20 -20 -20 -20 -20 -20 -20 -12 -20 -17 -20 -20 -10 27 13 -4 -20 -20 -20 -20 -19 -19 -20 -20 -4 -20 -20 -20 -20 -20 -20 -20 -20 -20
-20 -20 -20 -20 -20 -20 -20 -20 -5 -20 -19 -20 -20 -20 -20 12 -16 -10 -20 -8 39 22 25 15 10 -3 -11 -20 -20 -20 1 6 7 -8 -7 -15 -20 -20 -20 -20 -20 -20 -20 -20
-20 -20 -20 -20 -20 -20 -20 -20 -20 -20 -20 -20 -20 -20 4 23 16 29 23 20 27 40 31 20 7 10 0 -20 -16 -4 -1 -20 -20 -13 -3 -20 -20 -20 -20 -19 -20 -20 -20 -20
-20 -20 -20 -20 -20 -20 -20 -20 -20 -15 -20 -20 -20 -20 -5 16 35 35 36 36 35 40 27 16 9 20 14 9 -4 -20 -19 -19 -18 -20 -19 -19 -19 -20 -20 -20 -20 -6 -20 -20
-20 -16 -20 -20 -20 -20 -20 -20 -20 -20 -20 -4 -20 -20 -20 18 30 35 39 39 42 39 40 34 30 28 15 -3 -18 -6 -19 -20 -20 -20 -8 12 6 -20 -20 -20 -20 -20 -20 -20
-20 -20 -20 -20 -19 -20 -20 -17 -3 -20 -20 3 -1 -20 11 -17 2 5 34 38 35 31 27 21 16 12 17 12 -12 -20 -20 -20 -20 -20 -20 -20 -20 -20 -20 -20 -20 -20 -20 -20
11 -3 -20 -20 -19 -20 -20 -20 3 -7 -20 14 -20 8 16 -7 26 -19 -20 3 22 23 17 6 -19 -9 6 0 -7 -20 -20 -20 -20 -20 3 5 -20 -20 -20 -20 -20 -20 -20 -20
-20 8 2 26 -4 -20 -20 -20 -20 -4 7 -12 -20 -20 11 17 -12 -20 -20 -20 -4 6 9 15 5 -20 -20 -20 -20 -20 -20 -20 -20 -19 -20 -12 -20 -20 -20 -20 -20 -20 -20 -20
5 -2 11 2 22 1 -20 -20 -19 8 -5 -20 -20 -20 -12 13 -20 -20 -20 -20 -20 -20 -14 -18 3 -10 -20 -20 -20 -20 -20 -20 -20 -20 -17 -13 -20 -20 -20 -20 -20 -20 -20 -20
-20 -20 9 12 15 -19 -20 -20 -20 -3 -19 -20 -20 -20 -12 -20 -20 -20 -20 -20 -20 -20 -20 -19 -20 -20 -7 -6 -20 -20 -20 -20 -20 -20 -16 -18 -4 2 -6 -13 -20 -20 -20 -20
-20 -20 -20 -20 -19 -4 2 -20 -20 -20 -20 -20 -20 -20 -20 -20 -20 -20 -20 -20 -20 -20 -7 -12 -20 -20 -20 -11 -15 -20 -20 -20 -20 -20 -20 -20 -20 -20 1 -20 -19 -20 -20 -20
-19 -20 -19 14 27 20 -2 -20 -20 -20 -20 -20 -20 -20 -20 -20 -20 -20 -20 -20 -20 -20 -19 -6 1 -2 -1 -1 2 -3 -20 -20 -20 -20 -20 -20 -20 -20 -18 -17 -19 -9 1 -11
-20 -20 -20 -10 -4 18 -18 -20 -20 -18 -20 -20 -20 -20 -20 -20 -20 -20 -20 -20 -4 -20 -20 -13 -20 -6 -5 9 -3 -10 -20 -20 -20 -20 -20 -20 -20 -18 -3 3 3 -1 9 9
-20 -20 9 -10 -8 -18 -20 -20 -20 -20 -20 -20 -20 -20 -20 -20 -20 2 -20 -13 -20 -2 -20 -19 -4 4 3 -18 -19 -20 -20 -9 -10 -14 -20 -19 -19 -20 -20 -20 -20 -12 -19 -11
-16 -19 -7 -20 -20 -20 -20 -20 -20 -20 -20 -20 -20 -20 -20 -20 -20 -7 -4 -12 -20 -20 6 3 -19 -20 -20 -20 -20 -10 5 5 6 -8 1 -5 -4 -20 -20 -20 -20 -16 -12 -11
-20 -20 -20 -18 -20 -20 -20 -5 -20 -20 -20 -20 -20 -20 -20 -20 -20 -20 -20 -20 -20 3 2 -20 -20 -20 -20 -19 -0 6 -4 -4 -20 -0 -20 -20 -20 -20 -20 -18 -11 0 4 5
-9 -20 -20 -20 -20 -20 -20 -20 -20 -20 -20 -20 -20 -20 -20 -20 -20 -20 -20 -20 -20 -15 -16 -20 -20 -20 -20 -12 -16 -7 -8 -20 -20 -20 -20 -20 -20 -20 -20 -8 -7 -4 0 -0
-20 -20 -20 -20 -20 -20 -20 -20 -20 -20 -20 -20 -20 -20 -20 -20 -20 -20 -20 -20 -20 -20 -20 -20 -20 -20 -20 -20 -20 -20 -20 -18 -20 -20 -20 -20 -20 -20 -20 -20 -20 -20 -19 -6
-20 -20 -20 -20 -20 -20 -20 -20 -20 -20 -20 -20 -20 -20 -20 -20 -20 -20 -20 -20 -20 -20 -20 -20 -20 -20 -20 -20 -20 -20 -20 -20 -20 -20 -20 -20 -20 -20 -20 -20 -20 -20 -20 -20
-20 -20 -20 -13 -20 -20 -19 -20 -20 -20 -20 -20 -20 -20 -20 -20 -20 -20 -20 -20 -20 -20 -20 -20 -20 -20 -20 -20 -20 -20 -20 -20 -20 -20 -20 -20 -20 -20 -20 -20 -10 -20 -20 -20
-20 -20 -20 -20 -20 -20 -20 -20 -20 -20 -20 -20 -20 -20 -20 -20 -20 -20 -20 -20 -20 -20 -20 -20 -20 -20 -20 -20 -20 -20 -20 -20 -20 -20 -20 -20 -20 -20 -20 -20 -20 1 -20 -20

GFSCGP_prec_radar_117.txt.gz
Reflectivity
-20 -20 -20 -20 -20 -20 -20 -20 -20 -20 -20 -20 -20 -20 -20 -20 -20 -20 -20 -20 -20 -20 -20 -20 -20 -20 -20 -20 -20 -20 -20 -20 -20 -20 -20 -20 -20 -20 -20 -20 -20 -20 -20 -20
-20 -20 -20 -20 -20 -20 -20 -20 -20 -20 -20 -20 -20 -20 -20 -20 -20 -20 -20 -20 -20 -20 -20 -20 -20 -20 -20 -20 -20 -20 -20 -20 -20 -20 -20 -20 -20 -20 -20 -20 -20 -20 -20 -20
-20 -20 -20 -20 -20 -20 -20 -20 -20 -20 -20 -20 -20 -20 -20 -20 -20 -20 -20 -20 -20 -20 -20 -20 -20 -20 -17 -12 -20 -14 -11 -20 -20 -20 -20 -20 -20 -20 -20 -20 -20 -20 -20 -20
-20 -20 -20 -20 -20 -20 -20 -20 -20 -20 -20 -20 -20 -20 -20 -20 -20 -20 -20 -20 -20 -20 -20 -20 -20 -20 -2 25 1 14 -15 -20 -20 -20 -20 -20 -20 -20 -20 -20 -20 -20 -20 -20
-20 -20 -20 -20 -20 -20 -20 -20 -20 -20 -20 -20 -20 -20 -20 -20 -20 -13 -20 -20 -20 -20 -15 -6 22 20 2 7 33 20 -3 -20 -20 -20 -20 -20 -20 -20 -20 -20 -20 -20 -20 -20
-20 -20 -20 -20 -20 -20 -20 -20 -20 -20 -20 -20 -20 -20 -20 -0 -4 -20 16 11 -19 -13 17 10 10 9 -19 22 13 18 7 -20 -19 -16 -20 -20 -20 -16 -10 -20 -20 -20 -20 -20
-20 -20 -20 -20 -20 -20 -20 -18 2 -20 -20 -20 -20 -20 -8 10 -4 -4 15 27 31 16 19 31 28 21 26 33 34 18 8 -17 4 -20 -20 -20 -2 -20 16 12 5 -14 -19 -20
-20 -20 -20 -20 -20 -20 -20 -19 -20 -20 -20 -20 -20 -20 -20 1 -2 -19 3 28 29 37 36 31 30 23 18 14 28 1 -18 -1 -20 -20 -20 -20 6 -20 -7 -16 -18 -5 -16 -18
-20 -20 -20 -20 -20 -20 -20 -20 -20 -17 -19 -20 -20 -9 8 5 -19 -20 -14 -7 16 35 32 32 42 37 21 16 8 -12 -13 -16 -20 -20 -20 -20 -20 -18 -3 5 -20 -17 -20 -11
-20 -20 -20 -20 -20 -20 -20 -20 -20 -17 -20 -14 -20 -20 -20 -20 18 24 21 26 23 20 15 17 29 30 30 18 16 8 9 -1 -20 -17 -20 -20 -20 -20 -20 -17 -4 -11 -20 -20
-20 -2 -20 -19 -20 -20 -20 -20 -20 -20 -20 -20 -20 -20 -20 -20 -18 -12 -8 -1 4 15 18 26 28 33 29 31 29 26 25 17 8 5 -20 -20 -9 -20 -20 -16 -20 -3 -6 -20
-20 20 9 -19 -20 -18 -14 -20 1 -20 -20 -20 -20 -20 -20 -20 -14 -20 -20 -20 -20 -18 -13 10 16 18 20 16 13 -1 -18 -0 -19 -20 -20 -20 -18 -20 -20 -20 -20 -20 -20 -20
-20 -5 -8 -15 -20 -20 27 3 -5 -11 -20 -20 -20 -20 -20 2 -1 -20 -20 -20 -20 -20 -20 -20 -14 -4 4 9 -17 -20 -20 -20 -20 -20 -20 -20 -16 -7 -6 -19 -20 -20 -20 -20
-14 -20 -5 -20 -20 -20 -20 26 13 5 -12 -20 -20 -20 1 7 -20 -20 -20 -20 -20 -20 -20 -20 -20 -20 -12 -17 -17 -20 -20 -20 -20 -20 -5 -20 -20 -20 -20 -20 -11 -20 -20 -20
11 -1 -20 -20 -10 -20 -17 25 32 19 -20 -19 -20 -20 -20 -20 -20 -20 -20 -20 -20 -20 -20 -20 -20 -12 -20 -7 -20 -20 -20 -14 -20 -20 -20 -14 -19 -20 -20 -20 -20 -20 -20 -20
-20 -20 -20 -20 18 -20 -20 13 -10 -20 -12 -7 -19 -1 -20 -20 -20 -20 -20 -20 -20 -20 -20 -20 -20 -20 -4 -1 -17 -20 -2 -5 -20 -4 -14 -20 -20 -20 -20 -20 -20 -20 -20 -20
5 -20 -14 -7 -20 12 21 -20 -18 -18 -14 -20 -20 -20 -20 -20 -20 -20 -20 -19 -20 -20 -20 -20 -20 -17 -15 -6 4 -3 2 -20 -20 -20 -20 -20 -20 -20 -20 -20 -20 -20 -20 -20
-19 -20 12 8 -20 7 -20 -14 17 6 -10 -20 -20 -20 -20 -20 -20 -20 -20 -20 -20 -20 -20 -20 -18 -20 -20 -13 7 -12 6 -7 -19 -13 -6 -19 -19 -11 -20 -20 -20 -20 -20 -20
-19 -20 -20 -9 -20 -20 -20 -20 -20 -20 -20 -20 -20 -20 -20 -20 -20 -18 -20 -20 -20 -20 -20 -20 -14 -11 -20 -20 -20 9 -18 5 -13 -15 -3 -16 -4 -19 -20 -20 -20 -20 -20 -20
-20 -20 -2 -20 -20 -20 -20 -20 -20 -20 -20 -20 -20 -20 -20 -20 -20 -20 -20 -20 -20 -20 -3 -16 -20 -20 -20 -20 -20 -13 -1 2 4 -4 -13 -12 -20 -20 -20 -20 -20 -20 -20 -20
1 -1 -20 -20 -20 -20 -20 -20 -20 -20 -20 -20 -20 -20 -20 -20 -20 -20 -20 -20 -20 -20 -20 -20 -20 -20 -20 -20 -20 -20 -20 -16 -5 -19 -20 -20 -20 -20 -20 -20 -20 -20 -20 -20
-20 -20 -20 -20 -20 -20 -20 -20 -20 -20 -20 -20 -20 -20 -20 -20 -20 -20 -20 -3 -10 -19 -20 -20 -20 -20 -20 -20 -20 -20 -19 -20 -20 -20 -17 -20 -20 -20 -20 -20 -20 -20 -20 -20
-20 -20 -20 -20 -20 -20 -20 -20 -20 -20 -20 -20 -20 -20 -20 -20 -20 -20 -20 -20 -20 -20 -20 -20 -20 -20 -20 -20 -15 -6 3 -2 -20 -20 -20 -20 -20 -20 -20 -20 -20 -20 -20 -20
-20 -20 -20 -20 -20 -20 -20 -20 -20 -20 -20 -20 -20 -20 -20 -20 -20 -20 -20 -20 -20 -20 -20 -20 -20 -20 -20 -20 -20 -20 -20 -20 -20 -20 -20 -20 -20 -20 -20 -13 -20 -20 -20 -20
-13 -20 -20 -14 -14 -20 -20 -20 -20 -20 -20 -20 -20 -20 -20 -20 -20 -20 -20 -20 -20 -20 -20 -20 -20 -20 -20 -20 -20 -20 -20 -20 -20 -20 -20 -20 -20 -20 -20 -7 -20 -20 -20 -20
-20 -20 -20 -20 -20 -20 -20 -20 -20 -20 -20 -20 -20 -20 -20 -20 -20 -20 -20 -20 -20 -20 -20 -20 -20 -20 -20 -20 -20 -20 -20 -20 -20 -20 -20 -20 -20 -20 -20 -20 -20 -20 -20 -20

GFSCGP_prec_radar_120.txt.gz
Reflectivity
-20 -20 -20 -20 -20 -20 -20 -20 -20 -20 -20 -20 -20 -20 -20 -20 -20 -20 -20 -20 -20 -20 -20 -20 -20 -20 -20 -20 -20 -20 -20 -20 -20 -20 -20 -20 -20 -20 -20 -20 -20 -20 -20 -20
-20 -20 -20 -20 -20 -20 -20 -20 -20 -20 -20 -20 -20 -20 -20 -20 -20 -20 -20 -20 -20 -20 -20 -20 -20 -20 -20 -20 -20 -20 -20 -20 -20 -20 -20 -20 -20 -20 -20 -20 -20 -20 -20 -20
-20 -20 -20 -20 -20 -20 -20 -20 -20 -20 -20 -20 -20 -20 -20 -20 -20 -20 -20 -20 -20 -20 -20 -20 -20 -20 -20 -20 -20 -20 -20 -20 -20 -20 -6 -19 -20 -20 -20 -20 -20 -20 -20 -20
-20 -20 -20 -20 -20 -20 -20 -20 -20 -20 -20 -20 -20 -20 -20 -20 -20 -20 -20 -20 -20 -20 -20 -20 -20 -20 -20 -20 -20 -19 -20 1 19 -20 2 -8 -20 -20 -20 -20 -20 -20 -20 -20
-20 -20 -20 -20 -20 -20 -20 -20 -20 -20 -20 -20 -20 -20 -20 -20 -20 6 4 -8 -8 6 -13 -3 2 -19 -18 -12 -20 -14 4 20 34 13 8 -16 -20 -20 -12 -20 -20 -20 -20 -20
-20 -20 -20 -20 -20 -20 -20 -20 -20 -20 -20 -20 -20 -20 -20 -18 -14 12 16 -1 -3 5 19 20 2 15 20 13 -20 16 1 28 13 34 11 7 7 -6 -9 -20 -20 -20 -19 -20
-20 -20 -20 -20 -20 -20 -20 -20 3 -20 -20 -20 -20 -20 -20 -14 -4 -19 -14 -20 -19 -12 5 15 7 16 30 27 -8 -18 1 -2 1 10 10 -2 3 -7 -20 -14 -12 -20 -20 -20
-20 -20 -20 -20 -20 -20 -20 -17 6 -20 -20 -20 -20 -20 -20 -18 -20 -18 -20 -20 -20 -20 -19 6 20 22 15 28 31 11 19 22 24 25 15 21 6 -20 -20 -20 -20 -20 -20 -20
-20 -20 -20 -20 -20 -20 -20 -2 -20 2 -16 -19 -20 -20 -20 0 -20 -3 -4 -20 -20 -20 -16 -20 -7 13 11 17 34 12 2 -7 -5 -3 -20 3 -1 -11 -19 -20 -20 -20 -20 -20
-20 -20 -20 -20 -20 -20 -20 -20 -20 2 9 -20 -20 -20 -20 -4 -14 1 -9 -20 -11 -2 -17 -20 -20 -20 -20 -4 20 17 -2 -19 -16 -19 -7 -16 -14 -14 -13 -20 -20 -20 -20 -20
-20 -20 -20 -20 -20 -20 -20 -20 -20 7 -8 -20 -20 -20 -20 -20 -20 -17 -13 -9 -20 -20 -20 -20 -20 -20 -20 -19 -11 17 12 10 6 3 -3 -3 -9 -4 -10 -3 -2 -20 -20 -20
-20 -19 9 -20 -20 -20 -18 15 13 17 -20 -20 -20 -20 -20 -20 -20 -20 -19 -20 -20 -20 -20 -20 -20 -20 -20 -20 -7 -0 5 8 -15 -2 -14 -16 -6 -5 -20 -14 -6 -20 -20 -20
-17 21 7 7 11 10 -19 -20 -5 7 -15 -8 -20 -20 -20 -20 -19 -20 -20 -20 -20 -20 -20 -20 -20 -20 -20 -20 -20 -6 14 11 5 -5 -9 -20 -20 -20 -17 -13 -20 -20 -20 -20
18 7 -20 -20 -20 -20 -20 -20 -20 15 18 5 7 -13 -10 -9 -19 -20 -20 -20 -20 -20 -20 -20 -20 -20 -20 -20 -20 -20 -8 5 4 0 -17 -20 -20 -20 -17 -13 -20 -6 -20 -20
8 11 18 -1 0 -10 -20 -20 -20 -2 -15 13 18 2 -20 -20 -20 -20 -20 -20 -20 -20 -20 -20 -20 -20 -17 -15 -20 -8 -18 -20 -19 -20 -20 -20 -20 -20 -20 -20 -20 -20 -20 -20
11 12 5 -20 -20 -1 15 -20 -20 -20 -5 33 30 5 -20 -20 -20 -20 -20 -20 -20 -20 -20 -20 -20 -20 -20 -0 -15 -3 -20 -20 -20 -20 -20 -20 -20 -20 -18 -13 -20 -20 -20 -20
16 14 -17 -13 -20 -20 -13 -20 -20 -20 -20 -20 -20 -20 -20 -20 -20 -20 -20 -20 -20 -20 -20 -20 -20 -20 -17 3 -0 2 -19 -20 -20 -20 -18 -19 -20 -17 -8 -20 -20 -20 -20 -20
-15 13 10 -5 -17 15 -20 -20 -20 -20 -20 -20 -20 -20 -20 -20 -20 -20 -20 -20 -20 -20 -20 -20 -20 -20 -20 -20 -14 -11 -14 -20 -20 -17 -15 -7 -8 -6 -20 -20 -20 -20 -20 -20
12 13 -4 -18 -19 -20 -20 -20 -20 -20 -20 -20 -20 -20 -20 -20 -20 -15 -20 -20 -20 -20 -20 -20 -20 -20 -20 -20 -20 -20 -19 -2 -17 -11 -16 0 7 -19 -20 -20 -20 -20 -20 -20
12 -20 9 1 -20 -20 -20 -20 -20 -20 -20 -20 -20 -20 -20 -20 -20 -20 -20 -20 -20 -20 -20 -20 -20 -20 -20 -20 -20 -20 -17 -20 -16 -20 -20 -13 -20 -20 -20 -20 -20 -20 -20 -20
6 6 -13 -20 -20 -20 -20 -20 -20 -20 -20 -20 -20 -20 -20 -20 -20 -20 -20 -20 -20 -20 -20 -20 -20 -20 -20 -20 -20 -20 -20 -18 -20 -20 -20 -20 -20 -20 -20 -20 -20 -20 -20 -20
-20 -20 -15 -18 -20 -20 -20 -20 -20 -20 -20 -20 -20 -20 -20 -20 -20 -20 -20 -20 -20 -20 -20 -20 -20 -20 -20 -20 -20 -20 -20 -20 -20 -20 -20 -17 -20 -20 -20 -20 -20 -20 -20 -20
-20 -20 -20 -20 -20 -20 -20 -20 -20 -20 -20 -20 -20 -20 -20 -20 -20 -20 -20 -20 -20 -20 -20 -20 -20 -20 -20 -20 -20 -20 -15 -20 -20 -20 -20 -20 -20 -3 -20 -20 -20 -20 -20 -20
-20 -20 -20 -20 -20 -20 -20 -20 -20 -20 -20 -20 -20 -20 -20 -20 -20 -20 -20 -20 -20 -20 -20 -20 -20 -20 -20 -20 -20 -20 -20 -20 -20 -20 -20 -20 -20 -20 -20 -20 -20 -20 -20 -20
-20 -20 -20 -20 -18 -20 -20 -20 -20 -20 -20 -20 -20 -20 -20 -20 -20 -20 -20 -20 -20 -20 -20 -20 -20 -20 -20 -20 -20 -20 -20 -20 -20 -20 -20 -20 -20 -20 -20 -20 -20 -20 -20 -20
-20 -20 -20 -20 -16 -20 -20 -20 -20 -20 -20 -20 -20 -20 -20 -20 -20 -20 -20 -20 -20 -20 -20 -20 -20 -20 -20 -20 -20 -20 -20 -20 -20 -20 -20 -20 -20 -20 -20 -20 -20 -20 -20 -20

GFSCGP_prec_radar_123.txt.gz
Reflectivity
-20 -20 -20 -20 -20 -20 -20 -20 -20 -20 -20 -20 -20 -20 -20 -20 -20 -20 -20 -20 -20 -20 -20 -20 -20 -20 -20 -20 -20 -20 -20 -4 3 -20 -20 -20 -20 -20 -20 -20 -20 -20 -20 -20
-20 -20 -20 -20 -20 -20 -20 -20 -20 -20 -20 -20 -20 -20 -20 -20 -20 -20 -20 -20 -20 -20 -20 -20 -20 -20 -20 -20 -20 -20 -20 -20 -13 -20 5 -20 -20 -20 -20 -20 -20 -20 -20 -20
-20 -20 -20 -20 -20 -20 -20 -20 -20 -20 -20 -20 -20 -20 -20 -20 -20 -20 -20 -20 -20 -20 -20 -20 -20 -20 -20 -20 -20 -20 -20 -20 -20 -20 -20 -20 -20 -20 -20 -20 -20 -20 -20 -20
-20 -20 -20 -20 -20 -20 -20 -20 -20 -20 -20 -20 -20 -20 -20 -20 -20 -20 -20 -20 -17 4 -20 -20 -20 -20 -20 -20 -20 -20 -20 -20 -17 -10 -10 -20 -20 -20 -20 -13 -20 -20 -20 -20
-20 -20 -20 -20 -20 -20 -20 -20 -20 -20 -20 -20 -20 -20 -20 -20 -20 -20 -20 -6 -20 -20 -20 -20 -20 -20 -20 -20 -20 -20 -20 -20 -20 4 -13 -7 -18 -1 3 -8 -8 -20 -20 -20
-20 -20 -20 -20 -20 -20 -20 -20 -20 -20 -20 -20 -20 -20 -20 -20 -20 -20 -20 -20 -20 -15 -14 -20 -20 -15 -20 -17 -20 -16 -20 -19 -20 -0 -4 -16 11 33 11 18 9 -19 -20 -20
-20 -20 -20 -20 -20 -20 -20 -20 -12 -20 -7 -20 -20 -20 -20 -20 -20 -20 -20 -20 -13 -15 -20 -9 -9 -12 -9 -17 -20 -20 -1 28 11 -20 -14 -9 30 26 25 13 7 -11 -20 -20
-20 -20 -20 -20 -20 -20 -20 -20 -20 -20 -20 -20 -20 -20 -20 -20 -20 -20 -20 -20 -5 -6 -3 -12 -19 -19 -19 -19 -20 -20 -20 -20 -20 11 8 18 16 7 19 -14 3 -7 -12 -20
-20 -20 -20 -20 -20 -20 -20 -20 -20 -16 -19 -16 -20 -20 -20 -20 -11 -16 -19 -14 -20 -1 -18 -20 -20 -20 -20 -20 -20 -20 -19 -20 -19 -10 -8 10 6 -17 5 16 -3 -2 -20 -20
-20 -20 -20 -20 -20 -20 -20 -20 -17 -2 12 -11 -20 -20 -20 -12 -20 -18 -11 -11 -12 -18 -20 -20 -20 -20 -12 -20 -20 -20 -15 -3 -3 -1 -2 1 -2 -18 -12 -14 -5 -20 -20 -20
-20 -20 -20 -20 -20 -20 -20 -20 -20 -0 -19 -13 -20 -20 -20 -20 -20 -20 -20 -20 -20 -20 -20 -20 -20 -20 -20 -20 -20 -6 -10 -1 -3 -15 -8 -17 3 13 1 -4 -10 -12 -20 -20
-20 -20 11 -20 -20 -20 -20 -20 -2 -10 -16 14 17 -19 -20 -20 -20 -20 -20 5 -20 -20 -20 -20 -20 -20 -20 -20 -8 -3 -15 -3 -2 0 -1 -2 -4 -1 -20 -4 -19 -20 -15 -20
-20 -17 12 12 -12 -19 -20 -19 5 9 21 -16 12 -16 -20 -20 -20 -20 -20 -20 -20 -20 -20 -20 -20 -20 -19 -1 -3 -3 -5 -4 -4 -9 -7 -7 -18 -20 -8 -20 -12 -20 -20 -20
-7 -20 15 11 12 19 6 11 10 20 -1 15 -20 -20 -20 -20 -13 17 -13 -20 -20 -20 -20 -20 -20 -20 -19 -17 -2 -5 -9 -20 -20 -20 -20 -17 -20 -20 -20 -20 -20 -20 -20 -20
-20 -20 7 -20 -7 -20 -16 -20 -7 21 -20 17 -20 -20 -20 -20 -3 28 15 -20 -20 -20 -20 -20 -20 -9 -8 -20 -20 -20 -20 -20 -20 -20 -20 -20 -20 -20 -20 -20 -20 -20 -20 -20
-20 -9 -20 -20 -20 -9 -16 -20 -20 -20 -20 -20 -16 -5 -20 -16 25 -10 -10 -20 -14 -20 -20 -20 -20 -20 -16 -11 -20 -20 -20 -20 -20 -20 -20 -20 -17 -20 -20 -20 -20 -20 -20 -20
-20 -15 -20 -5 -20 -7 12 -20 -20 -20 -20 -20 -20 -20 -20 -20 -20 3 -19 -20 -20 -20 -20 -20 -20 -1 -2 -3 -9 -20 -20 -20 -20 -20 -20 -20 -20 -10 -9 -20 -20 -20 -20 -8
-18 -1 21 -3 12 16 -20 -20 -20 -20 -20 -20 -20 -20 -20 -20 -20 -20 -20 -20 -20 -20 -20 -17 -20 -20 -11 -15 3 3 -20 -20 -20 -20 -20 -20 -16 -12 -20 -20 -20 -20 -20 -7
-20 5 11 19 -2 -3 -18 -20 -20 -20 -20 -20 -20 -20 -20 -20 -20 -20 -20 -20 -20 -20 -20 -20 -20 -20 -20 -20 -20 -20 -4 -20 -20 -20 -20 -20 -7 -5 -20 -20 -20 -20 -20 -20
-18 -20 3 21 6 -9 -20 -20 -20 -20 -20 -20 -20 -20 -20 -20 -20 -20 -20 -20 -20 -20 -20 -20 -20 -20 -20 -20 -20 -20 -20 -20 -20 -20 -20 -20 -20 -20 -20 -20 -20 -9 -20 -20
4 11 21 30 23 6 -20 -20 -20 -20 -20 -20 -20 -20 -20 -20 -20 -20 -20 -20 -20 -20 -20 -20 -20 -20 -20 -20 -20 -20 -20 -20 -20 -20 -20 -20 -20 -20 -20 -20 -20 -14 -20 -20
7 6 -6 3 -2 -20 -20 -20 -20 -20 -20 -20 -20 -20 -20 -20 -20 -20 -20 -20 -20 -20 -20 -20 -20 -20 -20 -20 -20 -20 -18 -20 -20 -20 -20 -20 -20 -20 -20 -20 -20 -20 -20 -20
9 1 -14 -20 -20 -20 -20 -20 -20 -20 -20 -20 -20 -20 -20 -20 -20 -20 -20 -20 -20 -20 -20 -20 -20 -20 -20 -20 -20 -20 -20 -20 -20 -20 -20 -19 -20 -20 -20 -20 -20 -20 -20 -20
-20 -20 -20 -20 -20 -20 -20 -20 -20 -20 -20 -20 -20 -20 -20 -20 -20 -20 -20 -20 -20 -20 -20 -20 -20 -20 -20 -20 -20 -20 -20 -20 -20 -20 -20 -20 -20 -20 -20 -20 -20 -20 -20 -8
-2 -20 -20 -20 -20 -20 -20 -20 -20 -20 -20 -20 -20 -20 -20 -20 -20 -20 -20 -20 -20 -20 -20 -20 -20 -20 -20 -20 -20 -20 -20 -20 -20 -20 -20 -20 -20 -20 -20 -10 -6 -17 -3 -6
-20 -20 -20 -20 -20 -20 -20 -20 -20 -20 -20 -20 -20 -20 -20 -20 -20 -20 -20 -20 -20 -20 -20 -20 -20 -20 -20 -20 -20 -20 -20 -20 -20 -20 -20 -20 -20 -20 -20 -20 -20 -19 -11 -4

GFSCGP_prec_radar_126.txt.gz
Reflectivity
-20 -20 -20 -20 -20 -20 -20 -20 -20 -20 -20 -20 -20 -20 -20 -20 -20 -20 -20 -20 -20 -20 -20 -20 -20 -20 -20 -20 -20 -20 -20 -20 -20 -20 -20 2 -6 -19 -20 -20 -20 -20 -20 -20
-20 -20 -20 -20 -20 -20 -20 -20 -20 -20 -20 -20 -20 -20 -20 -20 -20 -20 -20 -20 -20 -20 -20 -20 -20 -20 -20 -20 -20 -20 -20 -20 -20 -20 -20 -20 -8 6 -20 -10 -11 -20 -20 -20
-20 -20 -20 -20 -20 -20 -20 -20 -20 -20 -20 -20 -20 -20 -20 -20 -20 -20 -20 -20 -20 -20 -20 -20 -20 -20 -20 -20 -20 -20 -20 -20 -20 -20 -20 -20 -9 -16 -20 -20 -20 -20 -20 -20
-20 -20 -20 -20 -20 -20 -20 -20 -20 -20 -20 -20 -20 -20 -20 -20 -20 -20 -20 -20 -20 -20 -20 -20 -20 -20 -20 -20 -20 -20 -20 -20 -20 -20 -20 -20 -20 10 -20 -20 -8 -20 -20 -20
-20 -20 -20 -20 -20 -20 -20 -20 -20 -20 -20 -20 -20 -20 -20 -20 -20 -20 -20 -20 -20 -20 -20 -19 -20 -19 -11 -20 -20 -20 -20 -20 -20 -20 -20 -20 -20 -20 1 -20 -20 -20 -20 -20
-20 -20 -20 -20 -20 -20 -20 -20 -20 -20 -20 -20 -20 -20 -20 -20 -20 -20 -20 -20 -20 -20 -20 -20 -20 -20 -20 -20 -20 -7 -13 -20 -20 -20 -16 -16 -20 -20 -20 -20 -20 -8 -9 -20
-20 -20 -20 -20 -20 -20 -20 -20 -20 -20 -20 -20 -20 -20 -20 -20 -20 -20 -20 -20 -20 -20 -20 -20 -20 -20 -20 -14 -14 -0 -0 -0 -6 -20 -20 -19 -16 -20 -14 4 27 2 23 -3
-20 -20 -20 -20 -20 -20 -20 -20 -20 -20 -20 -20 -20 -20 -20 -20 -20 -20 -20 -20 -3 -6 -20 -20 -20 -20 -20 -11 -20 -20 -20 -20 -20 -20 -20 -20 -19 -5 -6 -1 -8 8 27 29
-20 -20 -20 -20 -20 -20 -20 -20 -20 -20 -20 -1 -20 -20 -20 -20 -20 -20 -20 -20 -20 -17 -18 -20 -20 -20 -20 -20 -20 -20 -20 -20 -20 -20 -20 -8 -6 -1 -0 -5 -3 -2 24 25
-20 -20 -20 -20 -20 -20 -20 -20 -9 5 1 9 -20 -20 -20 -20 -20 -20 -20 -20 -20 -7 -20 -20 -20 -19 -20 -20 -20 -4 -20 -5 -20 -1 -3 -10 -6 -5 -1 -16 -4 -12 -3 5
-20 -20 -20 -20 -20 -20 -20 -12 -20 3 10 10 -2 -20 -20 -20 -20 -20 -20 -15 -20 -20 -20 -20 -20 -20 -20 -20 -20 -15 -3 -10 1 -2 -10 -6 -0 -6 -5 -2 -1 -5 -0 -2
-20 -20 -20 -2 -20 -20 -20 -20 -18 17 17 -20 18 -11 -20 -20 -20 -20 -20 -20 -20 -20 -20 -20 -20 -20 -20 -20 -20 -6 -4 -4 -3 -5 -3 -3 -10 -20 -19 -3 -8 -16 -10 -10
-20 -1 9 9 -11 2 -13 -20 -20 10 22 -12 20 -3 -3 -20 -20 -20 -20 -15 -20 -20 -20 -20 -20 -20 -20 -20 -20 -11 -6 -15 -20 -20 -20 -20 -20 -20 -18 -20 -9 -20 -20 -20
-20 -12 12 10 16 12 1 13 18 21 23 16 -5 -4 -20 -10 -20 -20 -20 -20 -16 -9 -20 -20 -20 -20 -20 -18 -20 -20 -20 -20 -20 -20 -20 -20 -20 -20 -20 -20 -20 -20 -20 -20
9 -20 -20 -20 -20 -19 18 5 10 15 15 22 -15 -19 -20 -20 -20 -20 -20 -20 17 17 -20 -20 -20 -20 -20 -11 -20 -20 -20 -20 -20 -20 -20 -20 -20 -20 -20 -20 -20 -20 -20 -20
-19 -20 -20 -20 -20 -20 -20 -20 -20 -20 -20 -20 -20 -20 -20 -20 -20 -20 -20 -20 -3 -20 -20 -20 -20 -20 -20 -9 -20 -20 -20 -20 -20 -20 -20 -20 -20 -20 -20 -20 -20 -20 -20 -20
22 17 15 -6 -18 3 16 -20 -20 -20 -20 -20 -0 -20 -20 -20 -20 -20 -20 -20 -20 -20 15 -16 -20 -20 -3 -17 -20 -10 -20 -20 -20 -20 -20 -20 -20 -20 -20 -20 -20 -20 -20 -20
8 8 14 -8 11 19 -20 -20 -20 -20 -20 -20 -20 -20 -20 -20 -20 -15 -20 -20 -19 6 -20 -20 -7 -20 -20 -16 -2 -20 -20 -20 -20 -20 -20 -20 -20 -20 -20 -20 -20 -20 -6 -11
9 17 20 19 2 -20 -17 -20 -20 -20 -20 -20 -20 -20 -20 -20 -20 -20 -20 -20 -4 -13 -20 -14 -13 -20 -17 -10 -12 -20 -20 -20 -20 -20 -20 -20 -20 -19 -19 -20 -20 -17 -20 -20
-19 -14 17 5 14 10 -20 -20 -20 -20 -20 -20 -20 -20 -20 -20 -16 -20 -20 -20 -18 -20 -4 -4 -20 -20 -20 -19 -5 -20 -20 -20 -20 -20 -20 -20 -20 -20 -20 -14 -18 -20 -3 -2
-2 5 12 8 10 -4 -20 -20 -20 0 -20 -20 -20 -20 -20 -20 -17 -20 -15 1 -14 -8 -2 -7 -3 -20 -20 -20 -20 -20 -20 -9 -4 -20 -20 -20 -20 -20 -11 -13 -4 -20 -20 -20
13 22 15 13 18 22 -3 -2 -5 -11 -20 -20 -20 -20 -20 -16 -14 -18 -20 -14 1 2 -14 -5 -4 -5 -20 -20 -20 -20 -17 -2 -2 -20 -20 -20 -20 -20 -20 -20 -4 -20 -20 -20
7 -18 10 22 17 4 5 -6 -20 -20 -20 -20 -20 -20 -20 -20 -12 -5 -20 -20 -18 -15 -7 -4 -14 -20 -20 -20 -20 -20 -20 -12 -18 -20 -20 -20 -20 -20 -20 -20 -20 -20 -20 -20
-4 -20 -20 -20 -20 -20 -20 -20 -20 -20 -20 -20 -20 -20 -20 -20 -20 -20 -16 -20 -15 -6 -20 -20 -20 -20 -20 -20 -20 -20 -20 -20 -20 -20 -20 -20 -20 -20 -20 -20 -20 -20 -20 -20
2 -20 -20 -20 -20 -20 -20 -20 -20 -20 -20 -20 -20 -20 -20 -20 -20 -20 -1 -11 -15 -14 -20 -20 -20 -20 -20 -20 -20 -20 -20 -20 -20 -20 -20 -20 -20 -20 -20 -20 -20 -20 -11 -20
-19 -14 -10 21 -20 -20 -19 -20 -20 -20 -20 -20 -20 -20 -20 -20 -20 -20 -5 -3 -8 -4 -20 -20 -20 -20 -20 -20 -20 -20 -20 -20 -20 -20 -20 -20 -20 -20 -20 -20 -20 -20 -20 -20